[[{"header":{"parameterUnit":"m.s-1","parameterCategory":1,"la1":30.6,"la2":29.2853,"lo1":-89.7004,"lo2":-87.6739,"dy":0.0162,"dx":0.0183,"nx":112,"ny":82,"refTime":"2024-03-30T00:00:00:Z","depth":0,"parameterNumber":2,"parameterNumberName":"U-component_of_WINDS"},"data":[0.0,0.0,0.0,0.0,0.0,0.0,0.0,0.0,0.0,0.0,0.0,0.0,0.0,0.0,0.0,0.0,0.0,0.0,0.0,0.0,0.0,0.0,0.0,0.0,0.0,0.0,0.0,0.0,0.0,0.0,0.0,0.0,0.0,0.0,0.0,0.0,0.0,0.0,0.0,0.0,0.0,0.0,0.0,0.0,0.0,0.0,0.0,0.0,0.0,0.0,0.0,0.0,0.0,0.0,0.0,0.0,0.0,0.0,0.0,0.0,0.0,0.0,0.0,0.0,0.0,0.0,0.0,0.0,0.0,0.0,0.0,0.0,0.0,0.0,0.0,0.0,0.0,0.0,0.0,0.0,0.0,0.0,0.0,0.0,0.0,0.0,0.0,0.0,0.0,0.0,0.0,-5.8515,-6.1282,-6.3045,-6.293,-6.1478,-5.9797,-5.8001,0.0,0.0,0.0,0.0,0.0,0.0,0.0,0.0,0.0,0.0,0.0,0.0,0.0,0.0,0.0,0.0,0.0,0.0,0.0,0.0,0.0,0.0,0.0,0.0,0.0,0.0,0.0,0.0,0.0,0.0,0.0,0.0,0.0,0.0,0.0,0.0,0.0,0.0,0.0,0.0,0.0,0.0,0.0,0.0,0.0,0.0,0.0,0.0,0.0,0.0,0.0,0.0,0.0,0.0,0.0,0.0,0.0,0.0,0.0,0.0,0.0,0.0,0.0,0.0,0.0,0.0,0.0,0.0,0.0,0.0,0.0,0.0,0.0,0.0,0.0,0.0,0.0,0.0,0.0,0.0,0.0,0.0,0.0,0.0,0.0,0.0,0.0,0.0,0.0,0.0,0.0,0.0,0.0,0.0,0.0,0.0,0.0,0.0,0.0,0.0,0.0,0.0,0.0,0.0,-5.8072,-6.1755,-6.3274,-6.3694,-6.2968,-6.1975,-6.0408,-5.8039,0.0,0.0,0.0,0.0,0.0,0.0,0.0,0.0,0.0,0.0,0.0,0.0,0.0,0.0,0.0,0.0,0.0,0.0,0.0,0.0,0.0,0.0,0.0,0.0,0.0,0.0,0.0,0.0,0.0,0.0,0.0,0.0,0.0,0.0,0.0,0.0,0.0,0.0,0.0,0.0,0.0,0.0,0.0,0.0,0.0,0.0,0.0,0.0,0.0,0.0,0.0,0.0,0.0,0.0,0.0,0.0,0.0,0.0,0.0,0.0,0.0,0.0,0.0,0.0,0.0,0.0,0.0,0.0,0.0,0.0,0.0,0.0,0.0,0.0,0.0,0.0,0.0,0.0,0.0,0.0,0.0,0.0,0.0,0.0,0.0,0.0,0.0,0.0,0.0,0.0,0.0,0.0,0.0,0.0,0.0,0.0,0.0,0.0,0.0,0.0,0.0,0.0,0.0,-5.6509,-5.8686,-6.2495,-6.2815,-6.2815,-6.2892,-6.1287,-5.9568,-5.8001,-5.632,0.0,0.0,0.0,0.0,0.0,0.0,0.0,0.0,0.0,0.0,0.0,0.0,0.0,0.0,0.0,0.0,0.0,0.0,0.0,0.0,0.0,0.0,0.0,0.0,0.0,0.0,0.0,0.0,0.0,0.0,0.0,0.0,0.0,0.0,0.0,0.0,0.0,0.0,0.0,0.0,0.0,0.0,0.0,0.0,0.0,0.0,0.0,0.0,0.0,0.0,0.0,0.0,0.0,0.0,0.0,0.0,0.0,0.0,0.0,0.0,0.0,0.0,0.0,0.0,0.0,0.0,0.0,0.0,0.0,0.0,0.0,0.0,0.0,0.0,0.0,0.0,0.0,0.0,0.0,0.0,0.0,0.0,0.0,0.0,0.0,0.0,0.0,0.0,0.0,0.0,0.0,0.0,0.0,0.0,0.0,0.0,0.0,0.0,0.0,0.0,0.0,0.0,-5.725,-5.9136,-6.2257,-6.2056,-6.1917,-6.2591,-6.0488,-5.8806,-5.8016,-5.6371,0.0,0.0,0.0,0.0,0.0,0.0,0.0,0.0,0.0,0.0,0.0,0.0,0.0,0.0,0.0,0.0,0.0,0.0,0.0,0.0,0.0,0.0,0.0,0.0,0.0,0.0,0.0,0.0,0.0,0.0,0.0,0.0,0.0,0.0,0.0,0.0,0.0,0.0,0.0,0.0,0.0,0.0,0.0,0.0,0.0,0.0,0.0,0.0,0.0,0.0,0.0,0.0,0.0,0.0,0.0,0.0,0.0,0.0,0.0,0.0,0.0,0.0,0.0,0.0,0.0,0.0,0.0,0.0,0.0,0.0,0.0,0.0,0.0,0.0,0.0,0.0,0.0,0.0,0.0,0.0,0.0,0.0,0.0,0.0,0.0,0.0,0.0,0.0,0.0,0.0,0.0,0.0,0.0,0.0,0.0,0.0,0.0,0.0,0.0,0.0,0.0,0.0,-5.6945,-5.8974,-6.1499,-6.1797,-6.1799,-6.1875,-6.0291,-5.8949,-5.8157,-5.647,0.0,0.0,0.0,0.0,0.0,0.0,0.0,0.0,0.0,0.0,0.0,0.0,0.0,0.0,0.0,0.0,0.0,0.0,0.0,0.0,0.0,0.0,0.0,0.0,0.0,0.0,0.0,0.0,0.0,0.0,0.0,0.0,0.0,0.0,0.0,0.0,0.0,0.0,0.0,0.0,0.0,0.0,0.0,0.0,0.0,0.0,0.0,0.0,0.0,0.0,0.0,0.0,0.0,0.0,0.0,0.0,0.0,0.0,0.0,0.0,0.0,0.0,0.0,0.0,0.0,0.0,0.0,0.0,0.0,0.0,0.0,0.0,0.0,0.0,0.0,0.0,0.0,0.0,0.0,0.0,0.0,0.0,0.0,0.0,0.0,0.0,0.0,0.0,0.0,0.0,0.0,0.0,0.0,0.0,0.0,0.0,0.0,0.0,0.0,0.0,0.0,0.0,-5.6945,-5.8962,0.0,-6.1339,-6.1237,-6.1773,-5.9818,-5.8437,-5.8131,0.0,0.0,0.0,0.0,0.0,0.0,0.0,0.0,0.0,0.0,0.0,0.0,0.0,0.0,0.0,0.0,0.0,0.0,0.0,0.0,0.0,0.0,0.0,0.0,0.0,0.0,0.0,0.0,0.0,0.0,0.0,0.0,0.0,0.0,0.0,0.0,0.0,0.0,0.0,0.0,0.0,0.0,0.0,0.0,0.0,0.0,0.0,0.0,0.0,0.0,0.0,0.0,0.0,0.0,0.0,0.0,0.0,0.0,0.0,0.0,0.0,0.0,0.0,0.0,0.0,0.0,0.0,0.0,0.0,0.0,0.0,0.0,0.0,0.0,0.0,0.0,0.0,0.0,0.0,0.0,0.0,0.0,0.0,0.0,0.0,0.0,0.0,0.0,0.0,0.0,0.0,0.0,0.0,0.0,0.0,0.0,0.0,0.0,0.0,0.0,0.0,0.0,-5.5272,-5.7033,-5.8961,0.0,-6.1043,-6.0863,-6.1156,-5.935,-5.812,-5.7812,0.0,0.0,0.0,0.0,0.0,0.0,0.0,0.0,0.0,0.0,0.0,0.0,0.0,0.0,0.0,0.0,0.0,0.0,0.0,0.0,0.0,0.0,0.0,0.0,0.0,0.0,0.0,0.0,0.0,0.0,0.0,0.0,0.0,0.0,0.0,0.0,0.0,0.0,0.0,0.0,0.0,0.0,0.0,0.0,0.0,0.0,0.0,0.0,0.0,0.0,0.0,0.0,0.0,0.0,0.0,0.0,0.0,0.0,0.0,0.0,0.0,0.0,0.0,0.0,0.0,0.0,0.0,0.0,0.0,0.0,0.0,0.0,0.0,0.0,0.0,0.0,0.0,0.0,0.0,0.0,0.0,0.0,0.0,0.0,0.0,0.0,0.0,0.0,0.0,0.0,0.0,0.0,0.0,0.0,0.0,0.0,0.0,0.0,0.0,0.0,0.0,0.0,-5.5266,-5.7147,-5.8968,-6.0718,-6.0965,-6.0671,-5.9872,-5.9022,-5.8134,0.0,0.0,0.0,0.0,0.0,0.0,0.0,0.0,0.0,0.0,0.0,0.0,0.0,0.0,0.0,0.0,0.0,0.0,0.0,0.0,0.0,0.0,0.0,0.0,0.0,0.0,0.0,0.0,0.0,0.0,0.0,0.0,0.0,0.0,0.0,0.0,0.0,0.0,0.0,0.0,0.0,0.0,0.0,0.0,0.0,0.0,0.0,0.0,0.0,0.0,0.0,0.0,0.0,0.0,0.0,0.0,0.0,0.0,0.0,0.0,0.0,0.0,0.0,0.0,0.0,0.0,0.0,0.0,0.0,0.0,0.0,0.0,0.0,0.0,0.0,0.0,0.0,0.0,0.0,0.0,0.0,0.0,0.0,0.0,0.0,0.0,0.0,0.0,0.0,0.0,0.0,0.0,0.0,0.0,0.0,0.0,0.0,0.0,0.0,0.0,0.0,0.0,0.0,-5.5484,-5.723,-5.8847,-6.0046,-6.0759,-6.1027,-6.0812,-5.9418,-5.8449,-5.8217,0.0,0.0,0.0,0.0,0.0,0.0,0.0,0.0,0.0,0.0,0.0,0.0,0.0,0.0,0.0,0.0,0.0,0.0,0.0,0.0,0.0,0.0,0.0,0.0,0.0,0.0,0.0,0.0,0.0,0.0,0.0,0.0,0.0,0.0,0.0,0.0,0.0,0.0,0.0,0.0,0.0,0.0,0.0,0.0,0.0,0.0,0.0,0.0,0.0,0.0,0.0,0.0,0.0,0.0,0.0,0.0,0.0,0.0,0.0,0.0,0.0,0.0,0.0,0.0,0.0,0.0,0.0,0.0,0.0,0.0,0.0,0.0,0.0,0.0,0.0,0.0,0.0,0.0,0.0,0.0,0.0,0.0,0.0,0.0,0.0,0.0,0.0,0.0,0.0,0.0,0.0,0.0,0.0,0.0,0.0,0.0,0.0,0.0,0.0,0.0,0.0,0.0,-5.5633,-5.7352,-5.8871,-5.9887,-6.0755,-6.101,-6.0325,-5.9315,-5.8421,-5.7747,0.0,0.0,0.0,0.0,0.0,0.0,0.0,0.0,0.0,0.0,0.0,0.0,0.0,0.0,0.0,0.0,0.0,0.0,0.0,0.0,0.0,0.0,0.0,0.0,0.0,0.0,0.0,0.0,0.0,0.0,0.0,0.0,0.0,0.0,0.0,0.0,0.0,0.0,0.0,0.0,0.0,0.0,0.0,0.0,0.0,0.0,0.0,0.0,0.0,0.0,0.0,0.0,0.0,0.0,0.0,0.0,0.0,0.0,0.0,0.0,0.0,0.0,0.0,0.0,0.0,0.0,0.0,0.0,0.0,0.0,0.0,0.0,0.0,0.0,0.0,0.0,0.0,0.0,0.0,0.0,0.0,0.0,0.0,0.0,0.0,0.0,0.0,0.0,0.0,0.0,0.0,0.0,0.0,0.0,0.0,0.0,0.0,0.0,0.0,0.0,0.0,0.0,-5.5777,-5.7481,-5.8962,-5.9879,-6.0777,-6.0689,-5.9158,-5.8885,-5.814,-5.6524,0.0,0.0,0.0,0.0,0.0,0.0,0.0,0.0,0.0,0.0,0.0,0.0,0.0,0.0,0.0,0.0,0.0,0.0,0.0,0.0,0.0,0.0,0.0,0.0,0.0,0.0,0.0,0.0,0.0,0.0,0.0,0.0,0.0,0.0,0.0,0.0,0.0,0.0,0.0,0.0,0.0,0.0,0.0,0.0,0.0,0.0,0.0,0.0,0.0,0.0,0.0,0.0,0.0,0.0,0.0,0.0,0.0,0.0,0.0,0.0,-5.2164,0.0,0.0,0.0,0.0,0.0,0.0,0.0,0.0,0.0,0.0,0.0,0.0,0.0,0.0,0.0,0.0,0.0,0.0,0.0,0.0,0.0,0.0,0.0,0.0,0.0,0.0,0.0,0.0,0.0,0.0,0.0,0.0,0.0,0.0,0.0,0.0,0.0,0.0,0.0,0.0,0.0,-5.5929,-5.7613,-5.888,-5.9197,-6.0062,-6.0477,-6.0091,-5.8804,-5.7864,-5.7513,-5.6835,0.0,0.0,0.0,0.0,0.0,0.0,0.0,0.0,0.0,0.0,0.0,0.0,0.0,0.0,0.0,0.0,0.0,0.0,0.0,0.0,0.0,0.0,0.0,0.0,0.0,0.0,0.0,0.0,0.0,0.0,0.0,0.0,0.0,0.0,0.0,0.0,0.0,0.0,0.0,0.0,0.0,0.0,0.0,0.0,0.0,0.0,0.0,0.0,0.0,0.0,0.0,0.0,0.0,0.0,0.0,0.0,0.0,0.0,0.0,0.0,-5.2563,0.0,0.0,0.0,0.0,0.0,0.0,0.0,0.0,0.0,0.0,0.0,0.0,0.0,0.0,0.0,0.0,0.0,0.0,0.0,0.0,0.0,0.0,0.0,0.0,0.0,0.0,0.0,0.0,0.0,0.0,0.0,0.0,0.0,0.0,0.0,0.0,0.0,0.0,0.0,0.0,-5.6071,-5.7372,-5.8306,-5.8414,-5.9225,-5.9628,-5.9198,-5.8301,-5.7635,-5.7197,-5.6761,0.0,0.0,0.0,0.0,0.0,0.0,0.0,0.0,0.0,0.0,0.0,0.0,0.0,0.0,0.0,0.0,0.0,0.0,0.0,0.0,0.0,0.0,0.0,0.0,0.0,0.0,0.0,0.0,0.0,0.0,0.0,0.0,0.0,0.0,0.0,0.0,0.0,0.0,0.0,0.0,0.0,0.0,0.0,0.0,0.0,0.0,0.0,0.0,0.0,0.0,0.0,0.0,0.0,-5.1456,-5.2329,-5.333,-5.333,-5.373,-5.4414,-5.3379,-5.2707,-5.2446,0.0,0.0,0.0,0.0,0.0,0.0,0.0,0.0,0.0,0.0,0.0,0.0,0.0,0.0,0.0,0.0,0.0,0.0,0.0,0.0,0.0,0.0,0.0,0.0,0.0,-5.56,-5.5617,0.0,0.0,0.0,0.0,0.0,0.0,0.0,0.0,0.0,0.0,0.0,0.0,-5.6201,-5.7074,-5.7744,-5.7794,-5.8434,-5.8597,-5.7855,-5.766,-5.7265,-5.655,-5.6511,-5.6506,0.0,0.0,0.0,0.0,0.0,0.0,0.0,0.0,0.0,0.0,0.0,0.0,0.0,0.0,0.0,0.0,0.0,0.0,0.0,0.0,0.0,0.0,0.0,0.0,0.0,0.0,0.0,0.0,0.0,0.0,0.0,0.0,-4.6995,-4.7646,0.0,0.0,0.0,0.0,0.0,0.0,0.0,0.0,0.0,0.0,0.0,0.0,0.0,0.0,-5.3048,-5.2376,-5.2801,-5.4319,-5.4436,-5.5341,-5.6925,-5.6925,-5.7019,-5.7123,-5.6251,0.0,-5.3495,-5.3466,0.0,0.0,0.0,0.0,0.0,0.0,0.0,0.0,0.0,0.0,0.0,0.0,0.0,0.0,0.0,0.0,0.0,0.0,0.0,0.0,0.0,0.0,-5.4805,-5.5574,-5.6284,-5.6549,0.0,-5.5566,-5.5517,-5.5441,0.0,0.0,0.0,0.0,0.0,0.0,0.0,0.0,-5.6278,-5.7099,-5.7719,-5.7794,-5.7887,-5.7933,-5.7816,-5.7153,-5.6721,-5.6604,-5.6604,-5.6602,-5.6602,-5.6599,0.0,0.0,0.0,0.0,0.0,0.0,0.0,0.0,0.0,0.0,0.0,0.0,0.0,0.0,0.0,0.0,0.0,0.0,0.0,0.0,0.0,0.0,0.0,0.0,0.0,0.0,0.0,0.0,0.0,-4.7514,-4.7172,-4.6549,-4.8081,-4.963,0.0,0.0,0.0,0.0,0.0,0.0,0.0,0.0,0.0,-5.4188,-5.266,-5.2646,-5.4414,-5.3613,-5.4295,-5.6539,-5.6539,-5.7167,-5.8384,-5.8384,-5.8389,-5.8398,-5.8048,-5.686,-5.5224,-5.4601,-5.4495,-5.476,0.0,0.0,0.0,0.0,-5.5007,-5.395,-5.4002,-5.2715,0.0,0.0,0.0,0.0,0.0,0.0,0.0,0.0,0.0,0.0,0.0,0.0,0.0,-5.5771,-5.623,-5.6329,-5.5895,-5.5707,-5.5604,0.0,-5.5502,-5.5488,-5.5488,0.0,0.0,0.0,0.0,0.0,-5.6324,-5.6761,-5.7043,-5.7104,-5.715,-5.7113,-5.7113,-5.6801,-5.6606,-5.6606,-5.6606,-5.6606,-5.6606,-5.6606,-5.656,0.0,0.0,0.0,0.0,0.0,0.0,0.0,0.0,0.0,0.0,0.0,0.0,0.0,0.0,0.0,0.0,0.0,0.0,0.0,0.0,0.0,0.0,0.0,0.0,0.0,0.0,0.0,0.0,-4.767,-4.7586,-4.6512,-4.8056,-4.9531,0.0,0.0,0.0,0.0,0.0,0.0,-5.3017,-5.2809,-5.3443,-5.5228,-5.4136,-5.4334,-5.6091,-5.5467,-5.61,-5.8027,-5.8027,-5.849,-5.9347,-5.9347,-5.9464,-5.9659,-5.9425,-5.8607,-5.736,-5.593,-5.5151,-5.4943,-5.549,-5.5805,-5.5909,-5.6007,-5.5126,-5.3899,-5.3968,-5.2941,-5.1468,-5.0812,0.0,-5.1208,-5.1101,0.0,0.0,0.0,0.0,-5.37,-5.4619,-5.4872,-5.5112,-5.5966,-5.6117,-5.6064,-5.604,-5.5952,-5.5845,0.0,-5.561,-5.5643,-5.5643,0.0,0.0,0.0,0.0,-5.6286,-5.6425,-5.6482,-5.6514,-5.6604,-5.6606,-5.6606,-5.6606,-5.6606,-5.6606,-5.6606,-5.6606,-5.6606,-5.6606,-5.6606,-5.6563,-5.6514,0.0,0.0,0.0,0.0,0.0,0.0,0.0,0.0,0.0,0.0,0.0,0.0,0.0,0.0,0.0,0.0,0.0,0.0,0.0,0.0,0.0,0.0,0.0,0.0,0.0,0.0,0.0,0.0,0.0,-4.8917,-4.9199,0.0,0.0,0.0,0.0,-5.076,-5.1672,-5.225,-5.2334,-5.3216,-5.453,-5.6275,-5.6261,-5.7025,-5.8802,-5.8763,-5.8802,-5.8918,-5.8918,-5.9386,-6.0243,-6.0243,-6.0672,-6.1412,-6.0594,-6.0204,-5.9893,-5.7371,-5.5823,-5.5091,-5.4983,-5.5463,-5.6194,-5.6206,-5.565,-5.4935,-5.5008,-5.395,-5.2537,-5.2477,-5.191,-5.1196,-5.113,-5.1734,0.0,0.0,-5.3682,-5.3963,-5.4786,-5.5036,-5.5291,-5.6108,-5.6297,-5.6281,-5.622,-5.6162,-5.6093,0.0,-5.5779,-5.5779,-5.5779,0.0,-5.599,-5.6079,-5.6226,-5.6334,-5.6484,-5.6488,-5.6514,-5.6604,-5.6606,-5.6606,-5.6606,-5.6606,-5.6606,-5.6606,-5.6606,-5.6606,-5.6606,-5.6606,-5.6604,-5.6604,-5.6514,0.0,0.0,0.0,0.0,0.0,0.0,0.0,0.0,0.0,0.0,0.0,0.0,0.0,0.0,0.0,0.0,0.0,0.0,0.0,0.0,0.0,0.0,0.0,0.0,0.0,0.0,0.0,0.0,-5.0054,-5.0604,0.0,-5.2174,-5.2329,-5.2412,-5.2514,-5.2901,-5.3657,-5.4852,-5.5291,-5.6261,-5.7999,-5.8087,-5.8641,-5.9815,-5.9854,-6.0126,-6.0672,-6.0672,-6.0828,-6.114,-6.114,-6.1295,-6.1568,-6.1257,-6.0828,-6.0243,-5.9299,-5.8389,-5.7619,-5.7564,-5.7698,-5.7875,-5.7381,-5.662,-5.5818,-5.5337,-5.4416,-5.3451,-5.3459,-5.3169,-5.2869,-5.285,-5.3063,-5.3363,-5.3646,-5.3779,-5.3998,-5.4883,-5.513,-5.5372,-5.6246,-5.6433,-5.6416,-5.6398,-5.6344,-5.6319,-5.6212,-5.6128,-5.6056,-5.6056,-5.6181,-5.6257,-5.6297,-5.6363,-5.6457,-5.6488,-5.6548,-5.656,-5.6604,-5.6606,-5.6606,-5.6606,-5.6606,-5.6606,-5.6606,-5.6606,-5.6606,-5.6606,-5.6606,-5.6606,-5.6606,-5.6563,-5.656,0.0,0.0,0.0,0.0,0.0,0.0,0.0,0.0,0.0,0.0,0.0,0.0,0.0,0.0,0.0,0.0,0.0,0.0,0.0,0.0,0.0,0.0,0.0,0.0,0.0,0.0,-5.0996,-5.1037,-5.1857,-5.2627,-5.3252,-5.364,-5.3886,-5.3984,-5.4608,-5.553,-5.6757,-5.7123,-5.7955,-5.9372,-5.9406,-5.9835,-6.0702,-6.0702,-6.1013,-6.1607,-6.1607,-6.1607,-6.1607,-6.1607,-6.1607,-6.1607,-6.1607,-6.1257,-6.075,-6.075,-6.039,-5.983,-5.9246,-5.8963,-5.8875,-5.8345,-5.7766,-5.7186,-5.6654,-5.5918,-5.5139,-5.4866,-5.4546,-5.4221,-5.3909,-5.4051,-5.4276,-5.4255,-5.4498,-5.4862,-5.5475,-5.5642,-5.5769,-5.6371,-5.6482,-5.6514,-5.6514,-5.6464,-5.6418,-5.6449,-5.6111,-5.5808,-5.5808,-5.5906,-5.5992,-5.6004,-5.6276,-5.6494,-5.6506,-5.6558,-5.6606,-5.6606,-5.6606,-5.6606,-5.6606,-5.6333,-5.6177,-5.6177,-5.5903,-5.5708,-5.5708,-5.5708,-5.5708,-5.5708,-5.5708,-5.5708,-5.5708,0.0,0.0,0.0,0.0,0.0,0.0,0.0,0.0,0.0,0.0,0.0,0.0,0.0,0.0,0.0,0.0,0.0,0.0,0.0,0.0,0.0,0.0,0.0,-4.9283,-5.0796,-5.1943,-5.1991,-5.2857,-5.3503,-5.363,-5.4488,-5.5029,-5.5106,-5.6742,-5.7756,-5.7795,-5.8569,-5.942,-6.0316,-6.025,-6.0645,-6.1495,-6.1495,-6.1544,-6.1607,-6.1607,-6.1607,-6.1607,-6.1607,-6.1607,-6.1607,-6.1607,-6.1607,-6.1607,-6.1607,-6.1607,-6.1412,-5.9737,-5.9074,-5.9074,-5.9035,-5.9035,-5.8996,-5.8996,-5.8451,-5.7598,-5.6819,-5.5996,-5.5134,-5.4277,-5.4589,-5.5251,-5.5256,-5.5853,-5.6492,-5.6496,-5.651,-5.6488,-5.6503,-5.6509,-5.6509,-5.6509,-5.6509,-5.6503,-5.6488,-5.5755,-5.51,-5.51,-5.5159,-5.517,-5.517,-5.5903,0.0,-5.647,-5.6521,-5.6606,-5.6606,-5.6606,-5.6606,-5.6567,-5.5788,-5.5281,-5.5242,-5.4461,-5.399,-5.399,-5.399,-5.399,-5.399,-5.399,-5.399,-5.399,0.0,0.0,0.0,0.0,0.0,0.0,0.0,0.0,0.0,0.0,0.0,0.0,0.0,0.0,0.0,0.0,0.0,0.0,0.0,0.0,0.0,0.0,-5.0631,-5.1154,-5.1703,-5.2491,-5.3762,-5.4782,-5.5614,-5.6311,-5.7249,-5.7824,-5.7915,-5.8369,-5.8919,-5.9542,-5.981,-6.0316,-6.1139,-6.1134,-6.13,-6.1559,-6.1559,-6.1564,-6.1607,-6.1607,-6.1607,-6.1607,-6.1607,-6.1607,-6.1607,-6.1607,-6.1607,-6.1607,-6.1607,-6.1607,-6.1568,-6.1062,-6.0906,-6.0828,-6.0165,-5.9542,-5.8996,-5.8996,-5.8841,-5.8607,-5.8373,-5.7711,-5.697,-5.6736,-5.6425,-5.6156,-5.6129,-5.6332,-5.65,-5.6488,-5.6497,-5.6506,-5.6558,-5.656,-5.656,-5.656,-5.656,-5.656,-5.6555,-5.5848,-5.5215,-5.5165,-5.5215,-5.507,-5.4443,-5.5081,0.0,-5.5638,-5.6192,-5.6587,-5.6587,-5.6587,-5.6352,-5.5727,-5.5454,-5.5024,-5.44,-5.4126,-5.4009,-5.4009,-5.4009,-5.4009,-5.4009,-5.4009,-5.4009,0.0,0.0,0.0,0.0,0.0,0.0,0.0,0.0,0.0,0.0,0.0,0.0,0.0,0.0,0.0,0.0,0.0,0.0,0.0,0.0,0.0,0.0,-5.0766,-5.1471,-5.3041,-5.3257,-5.3768,-5.5147,-5.6156,-5.7087,-5.802,-5.8925,-5.9516,-5.9557,-5.9874,-6.0302,-6.0804,-6.0833,-6.1022,-6.1495,-6.1518,-6.1523,-6.1554,-6.1554,-6.1559,-6.1607,-6.1607,-6.1607,-6.1607,-6.1607,-6.1607,0.0,-6.1607,-6.1607,-6.1607,-6.1607,-6.1607,0.0,0.0,0.0,0.0,0.0,-6.0516,-6.0088,-6.0088,-5.9854,-5.9542,-5.9542,-5.8957,-5.8221,-5.823,-5.7689,-5.703,-5.7049,-5.6787,-5.6485,-5.6503,-5.6511,-5.6558,-5.6604,-5.6606,-5.6606,-5.6606,-5.6606,-5.6606,-5.6606,-5.6177,0.0,-5.5309,-5.4962,-5.4578,-5.4074,-5.4431,-5.4748,-5.4751,-5.5185,-5.5498,-5.5498,-5.5498,-5.5303,-5.4795,-5.4406,0.0,0.0,0.0,-5.2217,-5.1866,-5.1866,0.0,0.0,0.0,-5.2022,-5.2374,0.0,0.0,0.0,-5.2908,-5.2908,0.0,0.0,0.0,0.0,0.0,0.0,0.0,0.0,0.0,0.0,0.0,0.0,0.0,0.0,0.0,0.0,-5.1707,-5.2208,-5.4789,-5.5171,-5.5479,-5.617,-5.7237,-5.8198,-5.896,-5.9888,-6.0453,-6.0438,-6.1179,-6.1607,-6.1602,0.0,0.0,0.0,0.0,-6.1507,-6.1495,-6.1495,-6.1549,-6.1607,-6.1607,-6.1607,-6.1607,-6.1607,-6.1607,-6.1607,-6.1607,-6.1607,-6.1607,-6.1612,-6.1612,-6.1616,-6.1612,-6.1607,-6.1607,-6.1607,-6.1607,-6.1607,-6.1607,0.0,0.0,-6.0443,-5.9863,-5.9166,-5.9147,-5.8605,-5.795,-5.7967,-5.7317,-5.6665,-5.6665,-5.6636,-5.6606,-5.6606,-5.6606,-5.6606,-5.6606,-5.6606,-5.6606,-5.6606,-5.6606,-5.6333,-5.5591,-5.4732,-5.4112,-5.4003,-5.4006,-5.4009,-5.4015,-5.4016,-5.4016,-5.4016,0.0,0.0,-5.386,-5.3158,-5.2338,-5.1478,-5.0658,-4.9915,-4.9212,-4.9173,-4.9173,-4.9173,-4.9173,-4.9525,-5.0267,-5.0267,-5.0658,-5.14,-5.1399,-5.1399,0.0,0.0,0.0,0.0,0.0,0.0,0.0,0.0,0.0,0.0,0.0,0.0,0.0,0.0,0.0,-5.2168,-5.2815,-5.388,-5.5864,-5.6736,-5.7192,-5.7295,-5.8754,-5.9843,-6.0004,-6.0848,-6.1369,-6.1334,-6.149,-6.1559,-6.15,-6.1495,0.0,-6.1495,-6.1484,-6.1534,-6.1564,-6.1564,-6.1602,-6.1607,0.0,0.0,-6.1607,-6.1607,-6.1607,-6.1607,-6.1607,-6.1607,-6.1607,-6.1586,-6.1608,-6.158,-6.1586,-6.1607,-6.1607,-6.1607,-6.1607,-6.1607,-6.1607,-6.1504,-6.1361,-6.1361,-6.0793,-6.0145,-6.0148,-5.9524,0.0,-5.8841,-5.8223,-5.7565,-5.7536,-5.7072,-5.6606,-5.6606,-5.6606,-5.6606,-5.6606,-5.6606,-5.6606,-5.6606,-5.6606,-5.6567,-5.6372,-5.563,-5.4814,-5.412,-5.401,-5.4016,-5.3982,-5.3983,-5.3984,-5.3984,-5.3984,-5.3711,-5.3007,-5.2812,-5.2343,-5.1445,-5.125,-5.1093,-5.0937,-5.0937,-5.0937,-5.0937,-5.0937,-5.0976,-5.1132,-5.1132,-5.125,-5.1406,-5.1405,-5.1404,0.0,0.0,0.0,0.0,0.0,0.0,0.0,0.0,0.0,0.0,0.0,-5.0491,-5.0939,0.0,-5.1968,-5.2929,-5.418,-5.5501,-5.6855,-5.8194,-5.9007,-5.8965,-5.9737,-6.0458,-6.0926,-6.133,-6.1607,-6.1607,-6.1607,-6.1602,-6.1549,-6.1549,-6.1549,-6.1549,-6.1549,-6.1559,-6.1607,-6.1607,-6.1607,-6.1607,-6.1607,-6.1607,-6.1607,-6.1607,-6.1841,-6.2231,-6.1777,-6.1859,-6.221,-6.1768,-6.1588,-6.1595,-6.1612,-6.1603,-6.1603,-6.1603,-6.1603,-6.1603,-6.1603,-6.1612,-6.1619,-6.1619,-6.1315,-6.1013,-6.1023,-6.0438,-5.9739,-5.9756,-5.9134,-5.8434,-5.8439,-5.8168,-5.7738,-5.7309,-5.7192,-5.7074,-5.6684,-5.6606,-5.6606,-5.6606,-5.6606,-5.6606,-5.6606,-5.6255,-5.5636,-5.479,-5.4287,-5.4019,-5.3984,-5.3633,-5.3359,-5.3359,-5.2969,-5.2539,-5.2109,-5.168,-5.125,-5.082,-5.0391,-5.0156,-5.0156,-5.0156,-5.0156,-5.0156,-5.0156,-5.0351,-5.0781,-5.0781,-5.1211,-5.2031,-5.2031,-5.2031,0.0,0.0,0.0,0.0,0.0,0.0,0.0,0.0,-4.9909,-4.993,-5.0131,-5.053,-5.1253,-5.208,-5.3036,-5.4129,-5.5488,-5.6796,-5.7827,-5.9152,-6.0044,-6.0064,-6.0351,-6.0828,-6.1529,-6.1607,-6.1607,-6.1607,-6.1607,-6.1607,-6.1607,-6.1607,-6.1607,-6.1607,-6.1607,-6.1607,-6.1607,-6.1763,-6.1841,-6.1841,-6.1997,-6.2075,-6.2075,-6.2075,-6.2465,-6.3088,-6.2409,-6.2426,-6.2863,-6.2141,-6.1761,-6.1605,-6.1605,-6.1605,-6.1605,-6.1598,-6.1595,-6.1595,-6.1595,-6.1598,-6.1602,-6.1602,-6.1605,-6.1648,-6.1699,-6.1197,-6.0654,-6.0664,-6.0002,-5.9339,-5.9339,-5.9222,-5.8909,-5.8207,-5.805,-5.7816,-5.6996,-5.684,-5.6801,-5.6645,-5.6606,-5.6606,-5.6606,-5.6723,-5.6534,-5.5692,-5.4796,-5.4253,-5.4258,-5.3476,-5.2969,-5.2969,-5.2305,-5.1836,-5.168,-5.0898,-5.043,-5.043,-4.9766,-4.9375,-4.9375,-4.9375,-4.9375,-4.9375,-4.9375,-4.9805,-5.0703,-5.0703,-5.1484,-5.2969,-5.3125,-5.3125,-4.7951,-4.578,-4.4345,-4.5927,-4.6385,-4.6878,0.0,0.0,-4.9979,-4.9999,-5.1162,-5.2246,-5.2329,-5.3049,-5.4198,-5.5843,-5.6329,-5.7048,-5.8646,-5.9035,-5.9152,-5.9152,-6.0516,-6.149,-6.1607,-6.1607,-6.1607,-6.1607,-6.1607,-6.1607,-6.1607,-6.1607,-6.1607,-6.1607,-6.1607,-6.1607,-6.1607,-6.2387,-6.2737,-6.2776,-6.3478,-6.3828,-6.3828,-6.3828,-6.3867,-6.3945,-6.3934,-6.3577,-6.2984,-6.287,-6.2407,-6.1676,-6.1676,-6.1676,-6.1674,-6.1609,-6.1595,-6.1595,-6.1595,-6.1644,-6.1696,-6.1696,-6.1705,-6.1676,-6.1715,-6.164,-6.1562,-6.1562,-6.0939,-6.0237,-6.0237,-5.969,-5.9063,-5.8987,-5.8948,-5.8714,-5.7855,-5.766,-5.7465,-5.6723,-5.6606,-5.6606,-5.6606,-5.7192,-5.7395,-5.6591,-5.5695,-5.5151,-5.5156,-5.4375,-5.3867,-5.3867,-5.3789,-5.3398,-5.2617,-5.1758,-5.1289,-5.1289,-5.1172,-5.1133,-5.1133,-5.1133,-5.1133,-5.1133,-5.1133,-5.1562,-5.2422,-5.2422,-5.2891,-5.3867,-5.4648,-5.4609,-4.6028,-4.4126,-4.3231,-4.4434,-4.5474,-4.6508,-4.7742,-4.8663,-4.9551,-5.0555,-5.1304,-5.2091,-5.3143,-5.4048,-5.5026,0.0,-5.6858,-5.7637,-5.8841,-5.8996,-5.8996,-5.8996,-5.962,-6.0282,-6.0789,-6.0828,-6.1062,-6.1568,-6.1607,-6.1607,-6.1607,-6.1607,-6.1607,-6.1607,-6.1607,-6.1841,-6.2348,-6.2737,-6.3127,-6.3595,-6.3945,-6.4101,-6.4101,-6.4101,-6.4115,-6.4181,-6.4712,-6.4502,-6.3742,-6.3742,-6.3238,-6.2462,-6.2462,-6.2149,-6.1718,-6.1668,-6.1663,-6.1663,-6.1663,-6.1666,-6.171,-6.171,-6.1715,-6.1718,-6.1718,-6.1718,-6.1718,-6.1718,-6.1444,-6.1174,-6.1174,-6.09,-6.0508,-5.9963,-5.9846,-5.9612,-5.8753,-5.8558,-5.848,-5.8128,-5.805,-5.805,-5.805,-5.8324,-5.8445,-5.8108,-5.7333,-5.6791,-5.6796,-5.5625,-5.457,-5.4062,-5.3984,-5.3867,-5.3476,-5.3125,-5.2891,-5.2891,-5.2422,-5.2148,-5.2148,-5.168,-5.1641,-5.2148,-5.2148,-5.2578,-5.3476,-5.3476,-5.3906,-5.4765,-5.5117,-5.539,-4.4872,-4.3593,-4.3324,-4.4183,-4.5497,-4.6805,-4.7655,-4.85,-4.9503,-5.0969,-5.1682,-5.2473,-5.3993,-5.4968,-5.5825,-5.6679,-5.7334,-5.791,-5.8529,-5.8646,-5.8568,-5.8338,-5.8299,-5.8646,-5.9503,-6.001,-6.0555,-6.1179,-6.1451,-6.1607,-6.1607,-6.1607,-6.1612,-6.1616,-6.1811,-6.2245,-6.2873,-6.3384,-6.393,-6.4471,-6.4744,-6.4822,-6.4822,-6.4822,-6.4883,-6.4957,-6.5595,-6.5415,-6.4648,-6.4648,-6.414,-6.3321,-6.3086,-6.2618,-6.203,-6.1796,-6.1718,-6.1718,-6.1718,-6.1718,-6.1718,-6.1718,-6.1718,-6.1718,-6.1718,-6.1718,-6.1718,-6.1718,-6.1718,-6.1718,-6.1718,-6.1718,-6.1522,-6.09,-6.0744,-6.051,-5.9651,-5.9456,-5.9378,-5.9141,-5.9102,-5.9102,-5.9102,-5.93,-5.9458,-5.9466,-5.8969,-5.8509,-5.8278,-5.6953,-5.5664,-5.4805,-5.4492,-5.4375,-5.4375,-5.4141,-5.3984,-5.3984,-5.3398,-5.3047,-5.3047,-5.2461,-5.2422,-5.3047,-5.3047,-5.3476,-5.4375,-5.4375,-5.4805,-5.5664,-5.5664,-5.6015,-4.5419,-4.4924,-4.5127,-4.5987,-4.6884,-4.7776,-4.8569,-4.9424,-5.0274,-5.1133,-5.2645,-5.4087,-5.4983,-5.5879,-5.6702,-5.752,-5.7676,-5.7715,-5.7754,-5.7754,-5.7442,-5.6663,-5.6585,-5.6896,0.0,-5.9308,-6.0321,-6.0321,-6.1101,-6.1607,-6.1607,-6.1607,-6.1616,-6.1599,-6.2422,-6.2863,-6.2918,-6.4599,-6.5418,-6.5457,-6.6315,-6.6705,-6.6705,-6.6705,-6.6716,-6.6733,-6.6733,-6.6313,-6.5546,-6.5546,-6.5038,-6.4182,-6.3321,-6.2969,-6.2852,-6.1991,-6.1718,-6.1718,-6.1718,-6.1718,-6.1718,-6.1718,-6.1718,-6.1718,-6.1718,-6.1718,-6.1718,-6.1718,-6.1718,-6.1718,-6.1718,-6.1718,-6.1679,-6.1679,-6.164,-6.1405,-6.0549,-6.0354,-6.0119,-5.9261,-5.9102,-5.9102,-5.9102,-5.9807,-6.0354,-6.0354,-6.0332,-6.0031,-5.9255,-5.8398,-5.75,-5.6601,-5.5742,-5.5273,-5.5273,-5.4492,-5.3984,-5.3984,-5.3984,-5.3945,-5.3945,-5.3945,-5.3945,-5.3945,-5.3945,-5.4375,-5.5273,-5.5273,-5.5703,-5.6562,-5.6562,-5.6562,-4.6006,-4.5863,-4.6066,-4.6924,-4.8636,-5.0186,-5.0441,-5.1171,-5.2015,-5.2844,-5.3046,-5.3483,-5.4925,-5.5432,-5.6094,-5.7541,-5.7295,-5.7091,-5.7637,-5.7247,-5.6819,-5.6546,-5.6507,0.0,0.0,0.0,0.0,-6.0243,-6.1101,-6.1607,-6.1607,-6.1582,-6.1595,-6.1599,-6.2434,-6.3187,-6.378,-6.4911,-6.5808,-6.6354,-6.6666,-6.6783,-6.6783,-6.6798,-6.6805,-6.6811,-6.6784,-6.6636,-6.6405,-6.6405,-6.5897,-6.5116,-6.4843,-6.4375,-6.375,-6.2891,-6.2579,-6.2462,-6.1913,-6.1718,-6.1718,-6.1718,-6.1718,-6.1718,-6.1718,-6.1718,-6.1718,-6.1718,-6.1718,-6.1718,-6.1718,-6.1718,-6.1718,-6.1718,-6.1718,-6.1601,-6.133,-6.1252,-6.1174,-6.0898,-6.082,-6.082,-6.082,-6.1054,-6.1256,-6.127,-6.0768,-5.9916,-5.8515,-5.8086,-5.7578,-5.668,-5.6328,-5.6172,-5.6172,-5.5898,-5.5742,-5.5742,-5.5195,-5.4844,-5.4844,-5.4297,-5.4258,-5.4844,-5.4844,-5.5273,-5.6172,-5.6172,-5.6328,-5.6601,-5.6601,-5.6601,-4.6787,-4.742,-4.8246,-4.8829,-5.0655,-5.2203,-5.1915,-5.2217,-5.2749,-5.3311,-5.3007,-5.3132,-5.4839,-5.5147,-5.5615,-5.7061,-5.7087,-5.7005,-5.7243,-5.7096,-5.687,-5.6554,-5.6515,-5.6632,0.0,0.0,0.0,-5.9776,-6.0915,-6.1582,-6.1582,-6.1603,-6.1736,-6.2095,-6.2925,-6.3793,-6.4694,-6.5556,-6.6258,-6.6805,-6.6805,-6.6805,-6.6805,-6.6817,-6.6781,-6.6781,-6.6792,-6.6795,-6.6795,-6.6795,-6.6483,-6.6014,-6.5702,-6.5273,-6.4648,-6.3789,-6.3282,-6.2891,-6.1991,-6.1718,-6.1718,-6.1718,-6.1718,-6.1718,-6.1718,-6.1718,-6.1718,-6.1718,-6.1718,-6.1718,-6.1718,-6.1718,-6.1718,-6.1718,-6.1718,-6.1718,-6.1718,-6.1718,-6.1718,-6.1718,-6.1718,-6.1718,-6.1718,-6.1718,-6.1688,-6.1707,-6.1201,-6.0267,-5.8594,-5.8086,-5.7578,-5.668,-5.6601,-5.6601,-5.6601,-5.6601,-5.6601,-5.6601,-5.6055,-5.5742,-5.5742,-5.5234,-5.5195,-5.5742,-5.5742,-5.6055,-5.6601,-5.6601,-5.6601,-5.6601,-5.6601,-5.6601,-4.7918,-4.9521,-5.1433,-5.1511,-5.2749,-5.3667,-5.2873,-5.2636,-5.259,-5.261,-5.2567,-5.3065,0.0,0.0,-5.5341,-5.6315,-5.7172,-5.7415,-5.6658,-5.7303,-5.7549,0.0,0.0,0.0,0.0,0.0,0.0,-5.9079,0.0,-6.1603,-6.1603,-6.1666,-6.2073,-6.299,-6.3848,-6.4713,-6.5585,-6.6405,-6.6795,-6.6795,-6.6795,-6.6795,-6.6795,-6.6795,-6.6795,-6.6795,-6.6795,-6.6795,-6.6795,-6.6795,-6.6795,-6.6717,-6.5975,-6.5663,-6.5546,-6.4687,-6.3828,-6.3008,-6.2149,-6.1757,-6.1718,-6.1718,-6.1718,-6.1718,-6.1718,-6.1718,-6.1718,-6.1718,-6.1718,-6.1718,-6.1718,-6.1718,-6.1718,-6.1718,-6.1718,-6.1718,-6.1718,-6.1718,-6.1718,-6.1718,-6.1718,-6.1718,-6.1718,-6.1718,-6.1688,-6.1707,-6.167,-6.1048,-5.9414,-5.8476,-5.7617,-5.6719,-5.6601,-5.6601,-5.6601,-5.6601,-5.6601,-5.6601,-5.6601,-5.6601,-5.6601,-5.6601,-5.6601,-5.6601,-5.6601,-5.6601,-5.6601,-5.6601,-5.6601,-5.6601,-5.6601,-5.6601,-5.0108,-5.0889,-5.1706,-5.2994,-5.3637,-5.3848,-5.3611,-5.3054,-5.261,-5.2606,-5.2099,-5.213,0.0,0.0,0.0,-5.7016,-5.7575,0.0,-5.7502,-5.8172,0.0,-5.757,0.0,-5.8506,-5.8741,-5.9556,0.0,0.0,-6.1027,-6.1608,-6.1588,-6.2272,-6.275,-6.299,-6.4442,-6.5348,-6.5585,-6.6405,-6.6795,-6.6795,-6.6795,-6.6795,-6.6795,-6.6795,-6.6795,-6.6795,-6.6795,-6.6795,-6.6795,-6.6795,-6.6795,-6.6795,-6.6561,-6.6483,-6.6405,-6.5585,-6.5116,-6.4804,-6.3945,-6.2774,-6.1718,-6.1718,-6.1718,-6.1718,-6.1718,-6.1718,-6.1718,-6.1718,-6.1718,-6.1718,-6.1718,-6.1718,-6.1718,-6.1718,-6.1718,-6.1718,-6.1718,-6.1718,-6.1718,-6.1718,-6.1718,-6.1718,-6.1718,-6.1718,-6.1688,-6.1707,-6.1162,-6.0345,-5.9336,-5.9023,-5.8281,-5.6758,-5.6601,-5.6601,-5.6601,-5.6601,-5.6601,-5.6601,-5.6601,-5.6601,-5.6601,-5.6601,-5.6601,-5.6601,-5.6601,-5.6601,-5.6601,-5.6601,-5.6601,-5.6601,-5.6601,-5.6953,-5.113,-5.2216,-5.322,-5.3805,-5.4209,-5.4258,-5.3518,-5.2964,-5.2489,-5.2099,-5.1935,0.0,-5.3565,-5.447,0.0,0.0,0.0,0.0,-5.839,-5.9026,-5.9272,0.0,-5.8786,0.0,-5.9619,-6.0119,-6.0549,0.0,-6.1403,-6.179,-6.2194,-6.2716,-6.3349,-6.413,-6.5075,-6.578,-6.6131,-6.6561,-6.6795,-6.6795,-6.6795,-6.6795,-6.6795,-6.6795,-6.6795,-6.6795,0.0,-6.6795,-6.6795,-6.6795,-6.6795,-6.6795,-6.6795,-6.6795,-6.6756,-6.6288,-6.5897,-6.5546,-6.5038,-6.3984,-6.2774,-6.2384,-6.1991,-6.1718,-6.1718,-6.1718,-6.1718,-6.1718,-6.1718,-6.1718,-6.1718,-6.1718,-6.1718,-6.1718,-6.1718,-6.1718,-6.1718,-6.1718,-6.1718,-6.1718,-6.1718,-6.1718,-6.1718,-6.1718,-6.1688,-6.1707,-6.128,-6.0658,-5.9844,-5.9414,-5.8828,-5.7851,-5.7734,-5.7578,-5.7187,-5.7187,-5.6992,-5.6601,-5.6601,-5.6601,-5.6601,-5.6601,-5.6601,-5.6601,-5.6601,-5.6601,-5.6601,-5.6601,-5.6797,-5.7187,-5.7187,-5.7656,-5.1878,-5.3501,-5.5003,-5.4258,-5.4543,-5.4589,-5.2957,-5.2606,-5.2372,-5.1632,0.0,-5.303,-5.3823,-5.5224,-5.6552,-5.7448,0.0,-5.9874,-5.9118,-5.9841,-6.0173,-5.9372,-5.9375,-5.9733,-6.0492,-6.0561,-6.0909,-6.1624,-6.1819,-6.2209,-6.2954,-6.312,-6.3984,-6.5702,-6.5741,-6.6092,-6.6795,-6.6795,-6.6795,-6.6795,-6.6795,-6.6795,-6.6795,-6.6795,-6.6795,-6.6795,0.0,0.0,-6.6795,-6.6795,-6.6795,-6.6795,-6.6795,-6.6795,-6.6795,-6.6795,-6.6366,-6.5741,-6.5741,-6.5194,-6.4336,-6.3477,-6.2657,-6.2032,-6.2032,-6.2032,-6.2032,-6.2032,-6.1952,-6.1874,-6.1874,-6.1796,-6.1718,-6.1718,-6.1718,-6.1718,-6.1718,-6.1718,-6.1718,-6.1718,-6.1718,-6.1718,-6.1718,-6.1681,-6.169,-6.1707,-6.1709,-6.144,-6.0664,-5.9844,-5.9336,-5.9219,-5.9219,-5.8906,-5.8125,-5.8086,-5.7734,-5.6992,-5.6953,-5.6875,-5.6797,-5.6758,-5.6719,-5.6601,-5.6719,-5.6758,-5.6758,-5.6875,-5.7344,-5.8086,-5.8086,-5.8515,-5.4367,-5.4861,-5.5155,-5.5021,-5.4531,-5.3849,-5.284,-5.2606,0.0,0.0,-5.3069,-5.3918,-5.4713,-5.5151,-5.5896,-5.7439,0.0,0.0,0.0,0.0,-6.1091,0.0,0.0,0.0,0.0,0.0,0.0,0.0,0.0,-6.285,-6.3006,-6.3672,-6.4843,-6.6522,-6.66,-6.6678,-6.6795,-6.6795,-6.6795,-6.6795,-6.6795,-6.6795,-6.6795,-6.6795,-6.6795,-6.6795,-6.6795,0.0,-6.6795,-6.6795,-6.6795,-6.6795,-6.6795,-6.6795,-6.6795,-6.6795,-6.6717,-6.66,-6.66,-6.6053,-6.5234,-6.4375,-6.3984,-6.3867,-6.3867,-6.3867,-6.3867,-6.3867,-6.3321,-6.2774,-6.2774,-6.2228,-6.1718,-6.1718,-6.1718,-6.1718,-6.1718,-6.1718,-6.1718,-6.1718,-6.1718,-6.1718,-6.1718,-6.1688,-6.1699,-6.1708,-6.1713,-6.1639,-6.1484,-6.0703,-5.9922,-5.9258,-5.9219,-5.914,-5.8984,-5.8984,-5.8906,-5.875,-5.875,-5.8437,-5.7695,-5.7656,-5.7344,-5.6601,-5.7305,-5.7656,-5.7695,-5.8398,-5.8828,-5.8984,-5.8984,-5.9414,-5.521,-5.5549,-5.5649,-5.4741,-5.4219,-5.3541,-5.2216,0.0,0.0,0.0,-5.365,-5.4494,-5.4441,-5.5541,0.0,0.0,0.0,0.0,0.0,0.0,0.0,0.0,0.0,0.0,0.0,0.0,0.0,0.0,0.0,0.0,-6.3633,-6.4882,-6.5978,-6.6756,-6.6795,-6.6795,-6.6795,-6.6795,-6.6795,-6.6795,-6.6795,-6.6795,-6.6795,-6.6795,-6.6795,-6.6795,-6.6795,0.0,-6.6795,-6.6795,-6.6795,-6.6795,-6.6795,-6.6795,-6.6795,-6.6795,-6.6795,-6.6795,-6.6795,-6.6561,-6.617,-6.5741,-6.5002,-6.4299,-6.4299,-6.4299,-6.4299,-6.4299,-6.3984,-6.3672,-6.3672,-6.336,-6.3047,-6.3047,-6.3047,-6.293,-6.2462,-6.2384,-6.2228,-6.1796,-6.1718,-6.1681,-6.1688,-6.1694,-6.1702,-6.1712,-6.1716,-6.1717,-6.1719,-6.1328,-6.0937,-6.0547,-6.0508,-6.0312,-5.9844,-5.9805,-5.9648,-5.9219,-5.9219,-5.9023,-5.8594,-5.8594,-5.8398,-5.7969,-5.8359,-5.8594,-5.8594,-5.8984,-5.9414,-5.9805,-5.9805,-6.0273,-5.5737,-5.5844,-5.5868,-5.4305,-5.3748,-5.3229,-5.1632,-5.2138,0.0,-5.2883,-5.4234,-5.5199,-5.4498,0.0,-5.7238,0.0,-5.8289,0.0,0.0,0.0,0.0,0.0,0.0,0.0,0.0,0.0,0.0,0.0,0.0,0.0,-6.4531,-6.5975,-6.6795,-6.6795,-6.6795,-6.6795,-6.6795,-6.6795,-6.6795,-6.6795,-6.6795,-6.6795,-6.6795,-6.6795,-6.6795,-6.6795,-6.6795,0.0,0.0,-6.6795,-6.6795,-6.6795,-6.6795,-6.6795,-6.6795,-6.6795,-6.6795,-6.6795,-6.6795,-6.6795,-6.6795,-6.6795,-6.59,-6.4846,-6.4846,-6.4846,-6.4846,-6.4846,-6.4728,-6.457,-6.457,-6.4455,-6.4299,-6.4299,-6.4299,-6.4104,-6.3438,-6.3282,-6.3086,-6.2384,-6.211,-6.2,-6.1969,-6.1818,-6.1708,-6.1716,-6.1717,-6.1718,-6.1719,-6.1719,-6.1719,-6.1719,-6.1719,-6.1406,-6.0742,-6.0664,-6.039,-5.9765,-5.9726,-5.9648,-5.9453,-5.9453,-5.9375,-5.9219,-5.9375,-5.9453,-5.9453,-5.9648,-6.0078,-6.0664,-6.0664,-6.1055,-5.6617,-5.5872,-5.5085,-5.4134,-5.3307,-5.2489,-5.1515,0.0,-5.3779,-5.3798,-5.5166,-5.6336,-5.6276,-5.6436,-5.6592,-5.6517,-5.7353,-5.8022,0.0,0.0,0.0,0.0,0.0,0.0,0.0,0.0,0.0,0.0,0.0,0.0,0.0,-6.6327,-6.6795,-6.6795,-6.6795,-6.6795,-6.6795,-6.6795,-6.6795,-6.6795,-6.6795,-6.6795,-6.6795,-6.6795,-6.6795,-6.6795,-6.6795,0.0,0.0,-6.6795,-6.6795,-6.6795,-6.6795,-6.6795,-6.6795,-6.6795,-6.6795,-6.6795,-6.6795,-6.6795,-6.6795,-6.6795,-6.6717,-6.6561,-6.6561,-6.6561,-6.6561,-6.6561,-6.6053,-6.5468,-6.5468,-6.4882,-6.4299,-6.4299,-6.4299,-6.4299,-6.4182,-6.4182,-6.4143,-6.4065,-6.3408,-6.2867,-6.2867,-6.2217,-6.1716,-6.1716,-6.1718,-6.1719,-6.1719,-6.1719,-6.1719,-6.1719,-6.1719,-6.168,-6.1601,-6.1562,-6.1562,-6.1484,-6.1484,-6.1133,-6.0312,-6.0273,-5.9961,-5.9219,-5.9922,-6.0273,-6.0273,-6.1094,-6.1523,-6.1562,-6.1562,-6.1601,-5.6597,-5.5463,-5.4332,-5.3986,-5.3249,-5.2512,-5.221,0.0,-5.4047,-5.456,-5.5652,-5.6358,-5.5818,-5.6134,-5.6332,-5.5795,-5.6896,0.0,-5.7785,0.0,0.0,0.0,0.0,0.0,0.0,0.0,0.0,0.0,0.0,0.0,0.0,-6.6639,-6.6795,-6.6795,-6.6795,-6.6795,-6.6795,-6.6795,-6.6795,-6.6795,-6.6795,-6.6795,-6.6795,-6.6795,-6.6795,-6.6795,-6.6795,0.0,0.0,-6.6795,-6.6795,-6.6795,-6.6795,-6.6795,-6.6795,-6.6795,-6.6795,-6.6795,-6.6795,-6.6795,-6.6795,-6.6795,-6.6795,-6.6795,-6.6795,-6.6795,-6.6795,-6.6795,-6.6561,-6.6327,-6.6327,-6.6053,-6.5783,-6.5783,-6.5783,-6.5663,-6.5194,-6.5084,-6.4933,-6.4386,-6.4003,-6.3777,-6.378,-6.3473,-6.3084,-6.2578,-6.2461,-6.2305,-6.1758,-6.1719,-6.1719,-6.1719,-6.1719,-6.1719,-6.1719,-6.1719,-6.1719,-6.1719,-6.1719,-6.1523,-6.1211,-6.1172,-6.1015,-6.0703,-6.1015,-6.1172,-6.1172,-6.1523,-6.1719,-6.1719,-6.2226,-6.2461,-5.6533,-5.5411,-5.4294,-5.427,-5.3614,-5.3,0.0,0.0,-5.4459,-5.5087,-5.5906,-5.6335,-5.5717,-5.6107,-5.6347,-5.5694,-5.6631,-5.745,-5.7448,0.0,0.0,0.0,0.0,0.0,0.0,0.0,0.0,0.0,0.0,0.0,0.0,-6.6795,-6.6795,-6.6795,-6.6795,-6.6795,-6.6795,-6.6795,-6.6795,-6.6795,-6.6795,-6.6795,-6.6795,-6.6795,-6.6795,-6.6795,0.0,0.0,0.0,-6.6795,-6.6795,-6.6795,-6.6795,-6.6795,-6.6795,-6.6795,-6.6795,-6.6795,-6.6795,-6.6795,-6.6795,-6.6795,-6.6795,-6.6795,-6.6795,-6.6795,-6.6795,-6.6795,-6.6795,-6.6795,-6.6795,-6.6795,-6.6795,-6.6795,-6.6795,-6.6641,-6.6097,-6.5948,-6.5798,-6.5176,-6.4872,-6.4682,-6.4685,-6.4452,-6.4101,-6.3476,-6.3398,-6.3164,-6.2539,-6.2461,-6.2461,-6.2461,-6.2226,-6.1992,-6.1719,-6.1719,-6.1719,-6.1719,-6.1719,-6.1719,-6.1719,-6.1719,-6.1719,-6.1719,-6.1719,-6.1836,-6.207,-6.207,-6.2226,-6.2461,-6.3086,-6.3515,-5.6626,-5.5801,-5.5209,-5.5209,-5.4521,-5.3871,0.0,0.0,-5.5201,-5.5218,-5.5884,-5.6511,-5.6563,-5.6604,-5.6604,-5.6606,-5.6606,-5.6606,-5.6606,0.0,0.0,0.0,0.0,0.0,0.0,0.0,0.0,0.0,0.0,0.0,0.0,-6.6795,-6.6795,-6.6795,-6.6795,-6.6795,-6.6795,-6.6795,-6.6795,-6.6795,-6.6795,-6.6795,-6.6795,-6.6795,-6.6795,0.0,0.0,0.0,0.0,-6.6795,-6.6795,-6.6795,-6.6795,-6.6795,-6.6795,-6.6795,-6.6795,-6.6795,-6.6795,-6.6795,-6.6795,-6.6795,-6.6795,-6.6795,-6.6795,-6.6795,-6.6795,-6.6795,-6.6795,-6.6795,-6.6795,-6.6795,-6.6795,-6.6795,-6.6795,-6.68,-6.677,-6.6772,-6.6815,-6.6862,-6.6166,-6.5583,-6.5583,-6.4882,-6.4297,-6.4297,-6.4297,-6.4297,-6.4258,-6.4258,-6.4258,-6.4258,-6.3515,-6.2656,-6.1758,-6.1719,-6.1719,-6.1719,-6.1719,-6.1719,-6.1719,-6.1719,-6.1719,-6.1719,-6.1719,-6.2109,-6.3008,-6.3008,-6.3437,-6.4258,-6.4297,-6.4765,-5.6315,-5.5372,-5.4433,-5.5067,-5.458,-5.4125,-5.4721,-5.5072,-5.5426,-5.6014,-5.6365,-5.6563,-5.6604,-5.6606,-5.6606,-5.6606,-5.6606,0.0,0.0,0.0,0.0,0.0,0.0,0.0,0.0,0.0,0.0,0.0,0.0,0.0,0.0,-6.6795,-6.6795,-6.6795,-6.6795,-6.6795,-6.6795,-6.6795,-6.6795,-6.6795,-6.6795,-6.6795,-6.6795,-6.6795,0.0,0.0,0.0,0.0,0.0,-6.6795,-6.6795,-6.6795,-6.6795,-6.6795,-6.6795,-6.6795,-6.6795,-6.6795,-6.6795,-6.6795,-6.6795,-6.6795,-6.6795,-6.6795,-6.6795,-6.6795,-6.6795,-6.6795,-6.6795,-6.6795,-6.6795,-6.6795,-6.6795,-6.6795,-6.6802,-6.6809,-6.6811,-6.6821,-6.6868,-6.6909,-6.6678,-6.6484,-6.6484,-6.625,-6.5859,-6.5273,-6.5195,-6.4961,-6.4375,-6.4297,-6.4297,-6.4297,-6.4062,-6.3555,-6.2656,-6.2578,-6.2578,-6.2578,-6.3164,-6.3476,-6.3476,-6.3476,-6.3476,-6.3476,-6.3476,-6.3594,-6.3906,-6.3906,-6.4336,-6.5195,-6.5195,-6.5664,-5.6237,-5.5649,-5.5028,-5.5545,-5.5332,-5.5114,-5.5667,-5.5786,-5.5864,-5.6059,-5.6098,-5.602,-5.5669,-5.5903,-5.6098,-5.6098,-5.6372,0.0,0.0,0.0,0.0,0.0,0.0,0.0,0.0,0.0,0.0,0.0,0.0,0.0,0.0,0.0,-6.6795,-6.6795,-6.6795,-6.6795,-6.6795,-6.6795,-6.6795,-6.6795,-6.6795,-6.6795,-6.6795,-6.6795,0.0,0.0,0.0,0.0,0.0,-6.6795,-6.6795,-6.6795,-6.6795,-6.6795,-6.6795,-6.6795,-6.6795,-6.6795,-6.6795,-6.6795,-6.6795,-6.6795,-6.6795,-6.6795,-6.6795,-6.6795,-6.6795,-6.6795,-6.6795,-6.6795,-6.6795,-6.6795,-6.6798,-6.6802,-6.6807,-6.6813,-6.6821,-6.6868,-6.6911,-6.6912,-6.6914,-6.6914,-6.6914,-6.6914,-6.6719,-6.6172,-6.6094,-6.5898,-6.5351,-6.5273,-6.5273,-6.5273,-6.5,-6.457,-6.4023,-6.3672,-6.3476,-6.3476,-6.3984,-6.4297,-6.4297,-6.4297,-6.4297,-6.4297,-6.4297,-6.4453,-6.4805,-6.5117,-6.5547,-6.6094,-6.6094,-6.6367,0.0,-5.6441,-5.6482,-5.6485,-5.6548,-5.6606,-5.6606,-5.6606,0.0,-5.5474,-5.532,-5.5044,-5.4147,-5.4693,-5.532,-5.532,0.0,0.0,0.0,0.0,0.0,0.0,0.0,0.0,0.0,0.0,0.0,0.0,0.0,0.0,0.0,0.0,-6.6795,-6.6795,-6.6795,-6.6795,-6.6795,-6.6795,-6.6795,-6.6795,-6.6795,-6.6795,-6.6795,-6.6795,0.0,0.0,0.0,0.0,0.0,-6.6795,-6.6795,-6.6795,-6.6795,-6.6795,-6.6795,-6.6795,-6.6795,-6.6795,-6.6795,-6.6795,-6.6795,-6.6795,-6.6795,-6.6795,-6.6795,-6.6795,-6.6795,-6.6795,-6.6795,-6.6795,-6.6795,-6.6795,-6.68,-6.6809,-6.6813,-6.6818,-6.687,-6.6911,-6.6912,-6.6914,-6.6914,-6.6914,-6.6914,-6.6914,-6.6914,-6.6914,-6.6914,-6.6914,-6.6914,-6.6914,-6.6914,-6.6914,-6.6172,-6.5703,-6.5703,-6.4883,-6.4375,-6.4375,-6.4453,-6.4492,-6.4492,-6.4492,-6.4492,-6.4492,-6.4492,-6.4883,-6.5703,-6.6523,-6.6914,-6.6914,-6.6914,-6.6914,-5.648,0.0,-5.6485,-5.65,-5.6555,-5.6606,0.0,-5.6606,-5.6333,-5.5474,-5.532,0.0,0.0,-5.4693,-5.532,0.0,0.0,0.0,0.0,0.0,0.0,0.0,0.0,0.0,0.0,0.0,0.0,0.0,0.0,0.0,0.0,0.0,-6.6795,-6.6795,-6.6795,-6.6795,-6.6795,-6.6795,-6.6795,-6.6795,-6.6795,-6.6795,-6.6795,-6.6795,0.0,0.0,0.0,0.0,-6.6795,-6.6795,-6.6795,-6.6795,-6.6795,-6.6795,-6.6795,-6.6795,-6.6795,-6.6795,-6.6795,-6.6795,-6.6795,-6.6795,-6.6795,-6.6795,-6.6795,-6.6795,-6.6795,-6.6795,-6.6795,-6.6795,-6.6795,-6.6795,-6.68,-6.6809,-6.6857,-6.6863,-6.691,-6.6913,-6.6914,-6.6914,-6.6914,-6.6914,-6.6914,-6.6914,-6.6914,-6.6914,-6.6914,-6.6914,-6.6914,-6.6914,-6.6914,-6.6914,-6.6719,-6.6601,-6.6601,-6.5781,-6.5273,-6.5273,-6.5937,-6.6289,-6.6289,-6.6289,-6.6289,-6.6289,-6.6289,-6.6406,-6.6601,-6.6797,-6.6914,-6.6914,-6.6914,-6.6914,-5.6985,-5.68,-5.6497,-5.6506,-5.6558,-5.6606,-5.6606,-5.6606,-5.6333,-5.5474,-5.532,0.0,0.0,0.0,0.0,0.0,0.0,0.0,0.0,0.0,0.0,0.0,0.0,0.0,0.0,0.0,0.0,0.0,0.0,0.0,0.0,0.0,-6.6795,-6.6795,-6.6795,-6.6795,-6.6795,-6.6795,-6.6795,-6.6795,-6.6795,-6.6795,-6.6795,-6.6795,-6.6795,0.0,0.0,0.0,-6.6795,-6.6795,-6.6795,-6.6795,-6.6795,-6.6795,-6.6795,-6.6795,-6.6795,-6.6795,-6.6795,-6.6795,-6.6795,-6.6795,-6.6795,-6.6795,-6.6795,-6.6795,-6.6795,-6.6795,-6.6795,-6.6795,-6.6795,-6.68,-6.6807,-6.6856,-6.6863,-6.6909,-6.6912,-6.6914,-6.6914,-6.6914,-6.6914,-6.6914,-6.6914,-6.6914,-6.6914,-6.6914,-6.6914,-6.6914,-6.6914,-6.6914,-6.6914,-6.6914,-6.6914,-6.6914,-6.6914,-6.6484,-6.6211,-6.6211,-6.664,-6.6914,-6.6914,-6.6914,-6.6914,-6.6914,-6.6914,-6.6914,-6.6914,-6.6914,-6.6914,-6.6914,-6.6914,-6.6914,-5.7791,-5.7445,-5.6901,-5.6901,-5.6948,-5.6996,-5.6996,-5.6996,-5.6684,-5.5708,-5.5513,0.0,0.0,-5.4693,0.0,0.0,0.0,0.0,0.0,0.0,0.0,0.0,0.0,0.0,0.0,0.0,0.0,0.0,0.0,0.0,0.0,0.0,0.0,-6.6795,-6.6795,-6.6795,-6.6795,-6.6795,-6.6795,-6.6795,-6.6795,-6.6795,-6.6795,-6.6795,-6.6795,0.0,0.0,0.0,-6.6795,-6.6795,-6.6795,-6.6795,-6.6795,-6.6795,-6.6795,-6.6795,-6.6795,-6.6795,-6.6795,-6.6795,-6.6795,-6.6795,-6.6795,-6.6795,-6.6795,-6.6798,-6.6798,-6.6798,-6.6798,-6.6798,-6.6798,-6.6805,-6.6815,-6.6863,-6.6908,-6.6912,-6.6914,-6.6914,-6.6914,-6.6914,-6.6914,-6.6914,-6.6914,-6.6914,-6.6914,-6.6914,-6.6914,-6.6914,-6.6914,-6.6914,-6.6914,-6.6914,-6.6914,-6.6914,-6.6914,-6.6914,-6.6914,-6.6914,-6.6914,-6.6914,-6.6914,-6.6914,-6.6914,-6.6914,-6.6914,-6.6914,-6.6914,-6.6914,-6.6914,-6.6914,-6.6914,-6.6914,-5.8847,-5.8819,-5.8709,-5.8709,-5.8712,-5.8712,-5.8712,-5.8712,-5.8285,-5.6723,0.0,0.0,0.0,-5.4693,-5.532,0.0,0.0,0.0,0.0,0.0,0.0,0.0,0.0,0.0,0.0,0.0,0.0,0.0,0.0,0.0,0.0,0.0,0.0,-6.6795,-6.6795,-6.6795,-6.6795,-6.6795,-6.6795,-6.6795,-6.6795,-6.6795,-6.6795,-6.6795,-6.6795,0.0,0.0,-6.6795,-6.6795,-6.6795,-6.6795,-6.6795,-6.6795,-6.6795,-6.6795,-6.6795,-6.6795,-6.6795,-6.6795,-6.6795,-6.6795,-6.6795,-6.6795,-6.6795,-6.6795,-6.6802,-6.6809,-6.6809,-6.6802,-6.6798,-6.6807,-6.6811,-6.6817,-6.6869,-6.6911,-6.6912,-6.6914,-6.6914,-6.6914,-6.6914,-6.6914,-6.6914,-6.6914,-6.6914,-6.6914,-6.6914,-6.6914,-6.6914,-6.6914,-6.6914,-6.6914,-6.6914,-6.6914,-6.6914,-6.6914,-6.6914,-6.6914,-6.6914,-6.6914,-6.6914,-6.6914,-6.6914,-6.6914,-6.6914,-6.6914,-6.6914,-6.6914,-6.6914,-6.6914,-6.6914,-6.6914,-6.6914,-5.9678,-5.9802,-5.9924,-6.039,-5.9805,-5.9102,-5.9102,-5.9102,-5.8868,-5.8128,-5.7933,0.0,0.0,0.0,0.0,0.0,0.0,0.0,0.0,0.0,0.0,0.0,0.0,0.0,0.0,0.0,0.0,0.0,0.0,0.0,0.0,0.0,0.0,-6.6795,-6.6795,-6.6795,-6.6795,-6.6795,-6.6795,-6.6795,-6.6795,-6.6795,-6.6795,-6.6795,-6.6795,-6.6795,0.0,-6.6795,-6.6795,-6.6795,-6.6795,-6.6795,-6.6795,-6.6795,-6.6795,-6.6795,-6.6795,-6.6795,-6.6795,-6.6795,-6.6795,-6.6795,-6.68,-6.6805,-6.6805,-6.6813,-6.6859,-6.6859,-6.6856,-6.6854,-6.6857,-6.6862,-6.6866,-6.6872,-6.6912,-6.6914,-6.6914,-6.6914,-6.6914,-6.6914,-6.6914,-6.6914,-6.6914,-6.6914,-6.6914,-6.6914,-6.6914,-6.6914,-6.6914,-6.6914,-6.6914,-6.6914,-6.6914,-6.6914,-6.6914,-6.6914,-6.6914,-6.6914,-6.6914,-6.6914,-6.6914,-6.6914,-6.6914,-6.6914,-6.6914,-6.6914,-6.6914,-6.6914,-6.6914,-6.6914,-6.6914,-6.7148,-6.0508,-6.0705,-6.0861,-6.1522,-6.0703,-5.9727,-5.9727,-5.9727,-5.9649,-5.9456,-5.9417,0.0,0.0,0.0,0.0,0.0,0.0,0.0,0.0,0.0,0.0,0.0,0.0,0.0,0.0,0.0,0.0,0.0,0.0,0.0,0.0,0.0,-6.66,-6.6795,-6.6795,-6.6795,-6.6795,-6.6795,-6.6795,-6.6795,-6.6795,-6.6795,-6.6795,-6.6795,-6.6795,-6.6795,-6.6795,-6.6795,-6.6795,-6.6795,-6.6795,-6.6795,-6.6795,-6.6795,-6.6795,-6.6795,-6.6795,-6.6795,-6.6795,-6.6798,-6.68,-6.68,-6.6807,-6.6815,-6.6815,-6.686,-6.6905,-6.6905,-6.6906,-6.6907,-6.6906,-6.6909,-6.6911,-6.6912,-6.6914,-6.6914,-6.6914,-6.6914,-6.6914,-6.6914,-6.6914,-6.6914,-6.6914,-6.6914,-6.6914,-6.6914,-6.6914,-6.6914,-6.6914,-6.6914,-6.6914,-6.6914,-6.6914,-6.6914,-6.6914,-6.6914,-6.6914,-6.6914,-6.6914,-6.6914,-6.6914,-6.6914,-6.6914,-6.6914,-6.6914,-6.6914,-6.6914,-6.6914,-6.6992,-6.7187,-6.7187,-6.7656,-6.1601,-6.1601,-6.1601,-6.1679,-6.1601,-6.1522,-6.1522,-6.1522,-6.1288,-6.0471,-6.0315,-6.0041,0.0,0.0,0.0,0.0,0.0,0.0,0.0,0.0,0.0,0.0,0.0,0.0,0.0,0.0,0.0,0.0,0.0,0.0,0.0,0.0,0.0,-6.6795,-6.6795,-6.6795,-6.6795,-6.6795,-6.6795,-6.6795,-6.6795,-6.6795,-6.6795,-6.6795,-6.6795,-6.6795,-6.6795,-6.6795,-6.6795,-6.6795,-6.6795,-6.6795,-6.6795,-6.6795,-6.6795,-6.6795,-6.6795,-6.6795,-6.6795,-6.6802,-6.6811,-6.6811,-6.6857,-6.6902,-6.6902,-6.6907,-6.6911,-6.6911,-6.6913,-6.6914,-6.6912,-6.6911,-6.6912,-6.6914,-6.6914,-6.6914,-6.6914,-6.6914,-6.6914,-6.6914,-6.6914,-6.6914,-6.6914,-6.6914,-6.6914,-6.6914,-6.6914,-6.6914,-6.6914,-6.6914,-6.6914,-6.6914,-6.6914,-6.6914,-6.6914,-6.6914,-6.6914,-6.6914,-6.6914,-6.6914,-6.6914,-6.6914,-6.6914,-6.6914,-6.6914,-6.6914,-6.6914,-6.6914,-6.7305,-6.8125,-6.8125,-6.8555,-6.1718,-6.1718,-6.1718,-6.1718,-6.1718,-6.1718,-6.1718,-6.1718,-6.1757,-6.1954,-6.1603,-6.0939,0.0,0.0,0.0,0.0,0.0,0.0,0.0,0.0,0.0,0.0,0.0,0.0,0.0,0.0,0.0,0.0,0.0,0.0,0.0,0.0,0.0,-6.6014,-6.6053,-6.6288,-6.6795,-6.6795,-6.6795,-6.6795,-6.6795,-6.6795,-6.6795,-6.6795,-6.6795,-6.6795,-6.6795,-6.6795,-6.6795,-6.6795,-6.6795,-6.6795,-6.6795,-6.6795,-6.6795,-6.6795,-6.68,-6.6807,-6.6807,-6.6813,-6.6859,-6.6859,-6.6865,-6.6909,-6.6909,-6.6912,-6.6914,-6.6914,-6.6914,-6.6914,-6.6914,-6.6914,-6.6914,-6.6914,-6.6914,-6.6914,-6.6914,-6.6914,-6.6914,-6.6914,-6.6914,-6.6914,-6.6914,-6.7344,-6.7695,-6.7695,-6.8164,-6.8515,-6.8515,-6.8476,-6.8437,-6.8437,-6.8437,-6.8476,-6.8515,-6.8515,-6.8515,-6.8476,-6.7461,-6.6914,-6.6914,-6.6914,-6.7148,-6.7695,-6.7695,-6.7969,-6.8515,-6.8476,-6.8633,-6.8945,-6.8984,-6.9453,-6.1369,-6.1291,-6.1291,-6.1291,-6.1291,-6.1369,-6.164,-6.1483,-6.1525,-6.2423,-6.211,-6.1444,-6.0549,0.0,0.0,0.0,0.0,0.0,0.0,0.0,0.0,0.0,0.0,0.0,0.0,0.0,0.0,0.0,0.0,0.0,0.0,0.0,0.0,0.0,-6.5194,-6.5468,-6.6017,-6.6288,-6.6405,-6.6405,-6.6678,-6.6795,-6.6795,-6.6795,-6.6795,-6.6795,-6.6795,-6.6795,-6.6795,-6.6795,-6.6795,-6.6795,-6.6795,-6.6795,-6.6798,-6.68,-6.6807,-6.6813,-6.6815,-6.6862,-6.6906,-6.6906,-6.691,-6.6912,-6.6912,-6.6914,-6.6914,-6.6914,-6.6914,-6.6914,-6.6914,-6.6914,-6.6914,-6.6914,-6.6914,-6.6914,-6.6914,-6.6914,-6.6992,-6.7265,-6.7305,-6.7383,-6.7656,-6.8164,-6.8594,-6.8594,-6.9101,-6.9492,-6.9492,-6.9453,-6.9414,-6.9414,-6.9414,-6.9414,-6.9492,-6.9492,-6.9453,-6.9414,-6.8359,-6.7695,-6.7695,-6.7695,-6.7969,-6.8594,-6.8594,-6.8867,-6.9453,-6.9414,-6.9531,-6.9805,-6.9844,-7.0312,-6.0627,-6.0393,-6.0393,-6.0393,-6.0393,-6.0627,-6.1483,-6.1017,-6.0627,-6.1522,-6.1718,-6.1444,-6.0588,-6.1134,0.0,0.0,0.0,0.0,0.0,0.0,0.0,0.0,0.0,0.0,0.0,0.0,0.0,0.0,0.0,0.0,0.0,0.0,0.0,0.0,-6.4299,-6.4299,-6.4299,-6.5155,-6.5585,-6.5585,-6.6405,-6.6795,-6.6795,-6.6795,-6.6795,-6.6795,-6.6795,-6.6795,-6.6795,-6.6795,-6.6795,-6.6795,-6.6798,-6.6798,-6.6798,-6.6809,-6.6811,-6.6813,-6.6862,-6.6907,-6.6911,-6.6911,-6.6913,-6.6914,-6.6914,-6.6914,-6.6914,-6.6914,-6.6914,-6.6914,-6.6914,-6.6914,-6.6914,-6.6914,-6.6914,-6.6914,-6.6914,-6.6914,-6.7148,-6.8047,-6.8203,-6.8476,-6.9258,-6.9414,-6.9414,-6.9492,-6.9453,-6.9453,-6.9531,-6.9531,-6.9531,-6.9531,-6.9453,-6.9453,-6.9531,-6.9453,-6.9453,-6.9531,-6.9531,-6.9492,-6.9414,-6.9414,-6.9453,-6.9492,-6.9453,-6.9414,-6.9414,-6.9414,-6.9883,-7.0703,-7.0703,-7.1172,-6.0627,-6.0393,-6.0393,-6.0393,-6.0393,-6.0627,-6.1483,-6.1017,-6.0471,-6.0744,-6.1759,-6.2345,-6.1486,0.0,0.0,0.0,0.0,0.0,0.0,0.0,0.0,0.0,0.0,0.0,0.0,0.0,0.0,0.0,0.0,0.0,0.0,0.0,0.0,0.0,-6.3399,-6.3672,-6.4299,-6.457,-6.4687,-6.4687,-6.5546,-6.6249,-6.6795,-6.6795,-6.6795,-6.6795,-6.6795,-6.6795,-6.6795,-6.6795,-6.6795,-6.6798,-6.6805,-6.6807,-6.6809,-6.6857,-6.6865,-6.6868,-6.6909,-6.6912,-6.6914,-6.6914,-6.6914,-6.6914,-6.6914,-6.6914,-6.6914,-6.6914,-6.6914,-6.6914,-6.6914,-6.6914,-6.6914,-6.6914,-6.6914,-6.6914,-6.6914,-6.6914,-6.7148,-6.8047,-6.8203,-6.8476,-6.9258,-6.9922,-7.0312,-7.0351,-7.0859,-7.125,-7.125,-7.125,-7.125,-7.125,-7.125,-7.125,-7.125,-7.125,-7.125,-7.125,-7.125,-7.0703,-6.9453,-6.9414,-6.9687,-7.0312,-7.0312,-7.0625,-7.1211,-7.1211,-7.1367,-7.1601,-7.1601,-7.1758,-6.0198,-5.9885,-5.9807,-5.9456,-5.9612,-6.0002,-6.0547,0.0,0.0,0.0,-6.1252,-6.2306,-6.1796,0.0,0.0,0.0,0.0,0.0,0.0,0.0,0.0,0.0,0.0,0.0,0.0,0.0,0.0,0.0,0.0,0.0,0.0,0.0,0.0,0.0,-6.2462,-6.2735,-6.3243,-6.3594,-6.3789,-6.3789,-6.4687,-6.5507,-6.6327,-6.6639,-6.6795,-6.6795,-6.6795,-6.6795,-6.6798,-6.68,-6.6802,-6.6805,-6.6815,-6.6857,-6.6857,-6.6905,-6.6909,-6.6911,-6.6912,-6.6914,-6.6914,-6.6914,-6.6914,-6.6914,-6.6914,-6.6914,-6.6914,-6.6914,-6.6914,-6.6914,-6.6914,-6.6914,-6.6914,-6.6914,-6.6914,-6.6914,-6.6914,-6.7187,-6.7656,-6.8555,-6.8984,-6.9453,-7.0273,-7.0859,-7.1211,-7.1211,-7.164,-7.1992,-7.1992,-7.1992,-7.1992,-7.1992,-7.1992,-7.1992,-7.1992,-7.1992,-7.1992,-7.1992,-7.1992,-7.1523,-7.0469,-7.043,-7.0664,-7.1211,-7.1211,-7.1484,-7.1992,-7.1992,-7.1992,-7.1992,-7.1992,-7.1992,-5.9571,-5.9102,-5.8909,-5.8011,-5.8519,0.0,-5.9102,-6.039,-6.1093,-5.9454,0.0,-6.1718,0.0,0.0,0.0,0.0,0.0,0.0,0.0,0.0,0.0,0.0,0.0,0.0,0.0,0.0,0.0,0.0,0.0,0.0,0.0,0.0,0.0,0.0,-6.1718,-6.1718,-6.1718,-6.2501,-6.2891,0.0,-6.375,-6.4609,-6.539,-6.6288,-6.6717,-6.6795,-6.6795,-6.6798,-6.6798,-6.6809,-6.6813,-6.6815,-6.6862,-6.6904,-6.6905,-6.691,-6.6912,-6.6912,-6.6914,-6.6914,-6.6914,-6.6914,-6.6914,-6.6914,-6.6914,-6.6914,-6.6914,-6.6914,-6.6914,-6.6914,-6.6914,-6.6914,-6.6914,-6.6914,-6.6914,-6.6914,-6.6914,-6.7578,-6.8476,-6.9336,-7.0156,-7.0976,-7.1836,-7.1992,-7.1992,-7.1992,-7.1992,-7.1992,-7.1992,-7.1992,-7.1992,-7.1992,-7.1992,-7.1992,-7.1992,-7.1992,-7.1992,-7.1992,-7.1992,-7.1992,-7.1992,-7.1992,-7.1992,-7.1992,-7.1992,-7.1992,-7.1992,-7.1992,-7.1992,-7.1992,-7.1992,-7.1992,-5.9571,-5.9102,0.0,-5.8011,-5.8987,-5.9924,-5.9261,-5.9924,-6.0393,-5.9339,0.0,0.0,0.0,0.0,0.0,0.0,0.0,0.0,0.0,0.0,0.0,0.0,0.0,0.0,0.0,0.0,0.0,0.0,0.0,0.0,0.0,0.0,0.0,-6.1718,-6.1718,-6.1718,-6.1718,-6.1874,-6.1991,0.0,-6.2852,-6.3399,-6.3594,-6.5155,-6.6209,-6.6795,-6.6795,-6.68,-6.6809,-6.6811,-6.6817,-6.6862,-6.6908,-6.691,-6.6911,-6.6913,-6.6914,-6.6914,-6.6914,-6.6914,-6.6914,-6.6914,-6.6914,-6.6914,-6.6914,-6.6914,-6.6914,-6.6914,-6.6914,-6.6914,-6.6914,-6.6914,-6.6914,-6.6914,-6.6914,-6.6914,-6.6914,-6.7578,-6.8437,-6.9258,-7.0117,-7.0976,-7.1836,-7.1992,-7.1992,-7.1992,-7.1992,-7.1992,-7.1992,-7.1992,-7.1992,-7.1992,-7.1992,-7.1992,-7.1992,-7.1992,-7.1992,-7.1992,-7.1992,-7.1992,-7.1992,-7.1992,-7.1992,-7.1992,-7.1992,-7.1992,-7.1992,-7.1992,-7.1992,-7.1992,-7.1992,-7.1992,-5.9454,-5.8517,0.0,-5.7348,0.0,-5.9026,-5.8597,-5.9143,-5.9534,0.0,0.0,0.0,0.0,0.0,0.0,0.0,0.0,0.0,0.0,0.0,0.0,0.0,0.0,0.0,0.0,0.0,0.0,0.0,0.0,0.0,0.0,-6.1718,-6.1718,-6.1718,-6.1718,-6.1718,-6.1718,-6.1718,-6.1718,-6.1718,-6.2149,-6.2618,-6.3047,-6.4804,-6.6056,-6.6805,-6.6805,-6.6811,-6.6857,-6.6862,-6.6866,-6.6908,-6.6912,-6.6913,-6.6913,-6.6914,-6.6914,-6.6914,-6.6914,-6.6914,-6.6914,-6.6914,-6.6914,-6.6914,-6.6914,-6.6914,-6.6914,-6.6914,-6.6914,-6.6914,-6.6914,-6.6914,-6.6914,-6.6914,-6.6914,-6.6992,-6.7422,-6.8164,-6.9023,-6.9844,-7.0742,-7.1484,-7.1914,-7.1992,-7.1992,-7.1992,-7.1992,-7.1992,-7.1992,-7.1992,-7.1992,-7.1992,-7.1992,-7.1992,-7.1992,-7.1992,-7.1992,-7.1992,-7.1992,-7.1992,-7.1992,-7.1992,-7.1992,-7.1992,-7.1992,-7.1992,-7.1992,-7.1992,-7.1992,-7.1992,-7.1992,-7.2226,-5.9143,-5.766,-5.6411,-5.6567,-5.7192,0.0,-5.7816,-5.8363,-5.8675,0.0,0.0,0.0,0.0,0.0,0.0,0.0,0.0,0.0,0.0,0.0,0.0,0.0,0.0,0.0,0.0,0.0,0.0,0.0,0.0,0.0,-6.1718,-6.1718,-6.1718,-6.1718,-6.1718,-6.1718,-6.1718,-6.1718,-6.1718,-6.1718,-6.1718,-6.2149,-6.305,-6.4494,-6.567,-6.6579,-6.6579,-6.6703,-6.6905,-6.691,-6.6911,-6.6912,-6.6914,-6.6914,-6.6914,-6.6914,-6.6914,-6.6914,-6.6914,-6.6914,-6.6914,-6.6914,-6.6914,-6.6914,-6.6914,-6.6914,-6.6914,-6.6914,-6.6914,-6.6914,-6.6914,-6.6914,-6.6914,-6.6914,-6.6992,-6.7305,-6.8047,-6.8828,-6.9648,-7.0547,-7.1406,-7.1992,-7.1992,-7.1992,-7.1992,-7.1992,-7.1992,-7.1992,-7.1992,-7.1992,-7.1992,-7.1992,-7.1992,-7.1992,-7.1992,-7.1992,-7.1992,-7.1992,-7.1992,-7.1992,-7.1992,-7.1992,-7.1992,-7.1992,-7.1992,-7.1992,-7.1992,-7.1992,-7.1992,-7.1992,-7.2148,-7.2617,-5.8402,0.0,-5.563,0.0,-5.7192,-5.7816,0.0,0.0,0.0,0.0,0.0,0.0,0.0,0.0,0.0,0.0,0.0,0.0,0.0,0.0,0.0,0.0,0.0,0.0,0.0,0.0,0.0,0.0,0.0,0.0,-6.1718,-6.1718,-6.1718,-6.1718,-6.1718,-6.1718,-6.1718,-6.1718,-6.1718,-6.1718,-6.1718,-6.2154,-6.3021,-6.3256,-6.4234,-6.5759,-6.5765,-6.6202,-6.6911,-6.6911,-6.6913,-6.6914,-6.6914,-6.6914,-6.6914,-6.6914,-6.6914,-6.6914,-6.6914,-6.6914,-6.6914,-6.6914,-6.6914,-6.6914,-6.6914,-6.6914,-6.6914,-6.6914,-6.6914,-6.6914,-6.6914,-6.6914,-6.6914,-6.6914,-6.7461,-6.8047,-6.8164,-6.8828,-6.9648,-7.0547,-7.1406,-7.1992,-7.1992,-7.1992,-7.1992,-7.1992,-7.1992,-7.1992,-7.1992,-7.1992,-7.1992,-7.1992,-7.1992,-7.1992,-7.1992,-7.1992,-7.1992,-7.1992,-7.1992,-7.1992,-7.1992,-7.1992,-7.1992,-7.1992,-7.1992,-7.1992,-7.1992,-7.1992,-7.1992,-7.2031,-7.2773,-7.3203,-5.6411,-5.5474,-5.5396,0.0,-5.684,-5.7933,-5.8402,0.0,0.0,0.0,0.0,0.0,0.0,0.0,0.0,0.0,0.0,0.0,0.0,0.0,0.0,0.0,0.0,0.0,0.0,0.0,0.0,0.0,0.0,-6.1718,-6.1718,-6.1718,-6.1718,-6.1718,-6.1718,-6.1718,-6.1718,-6.1718,-6.1683,-6.169,-6.169,-6.1891,-6.2251,-6.2255,-6.3234,-6.4874,-6.4876,-6.5387,-6.6171,-6.6171,-6.6445,-6.6914,-6.6914,-6.6914,-6.6914,-6.6914,-6.6914,-6.6914,-6.6914,-6.6914,-6.6914,-6.6914,-6.6914,-6.6914,-6.6914,-6.6914,-6.6914,-6.6914,-6.6914,-6.6914,-6.6914,-6.6914,-6.7031,-6.75,-6.793,-6.8476,-6.9414,-6.9883,-7.039,-7.125,-7.1758,-7.1992,-7.1992,-7.1992,-7.1992,-7.1992,-7.1992,-7.1992,-7.1992,-7.1992,-7.1992,-7.1992,-7.1992,-7.1992,-7.1992,-7.1992,-7.1992,-7.1992,-7.1992,-7.1992,-7.1992,-7.1992,-7.1992,-7.1992,-7.1992,-7.1992,-7.1992,-7.25,-7.2734,-7.2734,-7.3633,-7.4297,0.0,0.0,-5.563,-5.563,-5.6879,-5.8285,0.0,0.0,0.0,0.0,0.0,0.0,0.0,0.0,0.0,0.0,0.0,0.0,0.0,0.0,0.0,0.0,0.0,0.0,0.0,0.0,0.0,0.0,0.0,-6.1718,-6.1718,-6.1718,-6.1718,-6.1718,-6.1718,-6.1718,-6.1718,-6.1683,-6.169,-6.1701,-6.1701,-6.1705,-6.1711,-6.1716,-6.242,-6.3631,-6.3866,-6.4609,-6.5586,-6.5586,-6.6094,-6.6914,-6.6914,-6.6914,-6.6914,-6.6914,-6.6914,-6.6914,-6.6914,-6.6914,-6.6914,-6.6914,-6.6914,-6.6914,-6.6914,-6.6914,-6.6914,-6.6914,-6.6914,-6.6914,-6.6914,-6.707,-6.7383,-6.8047,-6.8515,-6.918,-7.043,-7.0859,-7.1211,-7.1875,-7.2187,-7.2344,-7.2344,-7.2344,-7.2344,-7.2344,-7.2148,-7.1992,-7.1992,-7.1992,-7.1992,-7.1992,-7.1992,-7.1992,-7.1992,-7.1992,-7.1992,-7.1992,-7.1992,-7.1992,-7.1992,-7.1992,-7.1992,-7.1992,-7.1992,-7.1992,-7.1992,-7.3086,-7.3515,-7.332,-7.4414,-7.5273,0.0,-5.5864,0.0,-5.6528,-5.7777,0.0,0.0,0.0,0.0,0.0,0.0,0.0,0.0,0.0,0.0,0.0,0.0,0.0,0.0,0.0,0.0,0.0,0.0,0.0,0.0,0.0,0.0,0.0,0.0,-6.1718,-6.1718,-6.1718,-6.1718,-6.1718,-6.1718,-6.1718,-6.1718,-6.1692,-6.1701,-6.1708,-6.1708,-6.1711,-6.1716,-6.1716,-6.1757,-6.1875,-6.2695,-6.4023,-6.5586,-6.5586,-6.6094,-6.6914,-6.6914,-6.6914,-6.6914,-6.6914,-6.6914,-6.6914,-6.6914,-6.6914,-6.6914,-6.6914,-6.6914,-6.6914,-6.6914,-6.6914,-6.6914,-6.6914,-6.6914,-6.6914,-6.6914,-6.75,-6.8125,-6.8203,-6.9414,-7.0586,-7.0664,-7.1367,-7.1953,-7.1992,-7.2656,-7.3242,-7.3242,-7.3242,-7.3242,-7.3242,-7.2539,-7.1992,-7.1992,-7.1992,-7.1992,-7.1992,-7.1992,-7.1992,-7.1992,-7.1992,-7.1992,-7.1992,-7.1992,-7.1992,-7.1992,-7.1992,-7.1992,-7.1992,-7.1992,-7.1992,-7.1992,-7.3711,-7.4101,-7.3359,-7.5039,-7.5859,0.0,0.0,0.0,-5.805,-5.9065,0.0,0.0,0.0,0.0,0.0,0.0,0.0,0.0,0.0,0.0,0.0,0.0,0.0,0.0,0.0,0.0,0.0,0.0,0.0,0.0,0.0,0.0,0.0,0.0,0.0,-6.0861,-6.0861,-6.0861,-6.0861,-6.1408,-6.1683,-6.1692,-6.1701,-6.1709,-6.1714,-6.1714,-6.1716,-6.1718,-6.1718,-6.1718,-6.1758,-6.2617,-6.3672,-6.4765,-6.4765,-6.5625,-6.6914,-6.6914,-6.6914,-6.6914,-6.6914,-6.6914,-6.6914,-6.6914,-6.6914,-6.6914,-6.6914,-6.6914,-6.6914,-6.6914,-6.6914,-6.6914,-6.6914,-6.6914,-6.7031,-6.7578,-6.7969,-6.8476,-6.9531,-7.0703,-7.1523,-7.1523,-7.1797,-7.1992,-7.1992,-7.2695,-7.3281,-7.3281,-7.375,-7.414,-7.414,-7.3867,-7.3476,-7.289,-7.2812,-7.2617,-7.207,-7.1992,-7.2226,-7.2773,-7.2812,-7.3086,-7.3633,-7.3672,-7.3672,-7.3672,-7.3672,-7.3672,-7.3672,-7.4219,-7.3945,-7.2851,-7.4023,-7.4726,-7.5,-7.6172,-7.6719,-5.848,0.0,0.0,0.0,0.0,0.0,0.0,0.0,0.0,0.0,0.0,0.0,0.0,0.0,0.0,0.0,0.0,0.0,0.0,0.0,0.0,0.0,0.0,0.0,0.0,0.0,0.0,0.0,0.0,0.0,-5.9963,-5.9963,-6.0083,-6.0399,-6.0944,-6.1381,-6.1707,-6.171,-6.1714,-6.1718,-6.1718,-6.1718,-6.1719,-6.1719,-6.1719,-6.1758,-6.2617,-6.3476,-6.4336,-6.4609,-6.5586,-6.6914,-6.6914,-6.6914,-6.6914,-6.6914,-6.6914,-6.6914,-6.6914,-6.6914,-6.6914,-6.6914,-6.6914,-6.6914,-6.6914,-6.6914,-6.6914,-6.6914,-6.7109,-6.7461,-6.8047,-6.8633,-6.9375,-7.0781,-7.1562,-7.1992,-7.1992,-7.1992,-7.2109,-7.2383,-7.3125,-7.3828,-7.4101,-7.4648,-7.5039,-7.5039,-7.4805,-7.4375,-7.3828,-7.375,-7.3515,-7.293,-7.2851,-7.3125,-7.3672,-7.375,-7.3984,-7.457,-7.4609,-7.4609,-7.4609,-7.4609,-7.4609,-7.4609,-7.5156,-7.5039,-7.418,-7.5039,-7.5625,-7.5937,-7.6797,-7.7187,0.0,0.0,0.0,0.0,0.0,0.0,0.0,0.0,0.0,0.0,0.0,0.0,0.0,0.0,0.0,0.0,0.0,0.0,0.0,0.0,0.0,0.0,0.0,0.0,0.0,0.0,0.0,0.0,0.0,-5.9063,-5.9063,-5.9065,-5.946,-6.037,-6.0409,-6.0808,-6.1677,-6.1717,-6.1718,-6.1719,-6.1719,-6.1719,-6.1719,-6.1719,-6.1719,-6.1758,-6.2656,-6.3515,-6.4375,-6.5234,-6.6094,-6.6914,-6.6914,-6.6914,-6.6914,-6.6914,-6.6914,-6.6914,-6.6914,-6.6914,-6.6914,-6.6914,-6.6914,-6.6914,-6.6914,-6.6914,-6.6914,-6.6914,-6.7539,-6.8203,-6.8242,-6.9492,-7.0937,-7.1797,-7.1992,-7.1992,-7.1992,-7.2031,-7.2305,-7.3125,-7.3984,-7.4883,-7.5742,-7.5937,-7.5937,-7.5937,-7.5234,-7.4687,-7.4648,-7.4648,-7.4648,-7.4609,-7.4609,-7.4609,-7.4648,-7.4648,-7.4648,-7.4687,-7.4687,-7.4687,-7.4687,-7.4687,-7.4687,-7.4687,-7.4687,-7.5078,-7.5937,-7.6758,-7.6758,-7.5976,-7.6797,-7.7187,-6.1054,0.0,0.0,0.0,0.0,0.0,0.0,0.0,0.0,0.0,0.0,0.0,0.0,0.0,0.0,0.0,0.0,0.0,0.0,0.0,0.0,0.0,0.0,0.0,0.0,0.0,0.0,0.0,-5.8519,-5.8168,-5.8168,-5.8176,-5.8847,-6.0338,-6.0382,-6.0816,-6.1678,-6.1718,-6.1719,-6.1719,-6.1719,-6.1719,-6.1719,-6.1719,-6.1719,-6.1797,-6.3281,-6.4062,-6.4375,-6.5234,-6.6094,-6.6914,-6.6914,-6.6914,-6.6914,-6.6914,-6.6914,-6.6914,-6.6914,-6.6914,-6.6914,-6.6914,-6.6914,-6.6914,-6.6914,-6.6914,-6.7031,-6.7656,-6.8008,-6.8476,-6.9687,-7.082,-7.1719,-7.1953,-7.1992,-7.1992,-7.1992,-7.25,-7.3008,-7.3242,-7.3984,-7.4883,-7.5742,-7.6406,-7.6836,-7.6836,-7.664,-7.625,-7.5625,-7.5547,-7.5312,-7.4687,-7.4609,-7.4844,-7.5508,-7.5547,-7.582,-7.6445,-7.6484,-7.6484,-7.6484,-7.6484,-7.6484,-7.6484,-7.6484,-7.6601,-7.6836,-7.6445,-7.6445,-7.6836,-7.7109,-7.7187,-6.2774,-6.2774,-6.2696,0.0,0.0,0.0,-6.0666,-6.0393,0.0,0.0,0.0,0.0,0.0,0.0,0.0,0.0,0.0,0.0,0.0,0.0,0.0,0.0,0.0,0.0,0.0,0.0,0.0,-5.8011,-5.7582,-5.7311,-5.7315,-5.7285,-5.7918,-5.9291,-5.9723,-6.0311,-6.1132,-6.1523,-6.1719,-6.1719,-6.1719,-6.1719,-6.1719,-6.1719,-6.1719,-6.1797,-6.3555,-6.4297,-6.4414,-6.5625,-6.6445,-6.6914,-6.6914,-6.6914,-6.6914,-6.6914,-6.6914,-6.6914,-6.6914,-6.6914,-6.6914,-6.6914,-6.6914,-6.6914,-6.6914,-6.6914,-6.707,-6.7969,-6.8711,-6.9531,-7.0898,-7.1601,-7.1992,-7.1992,-7.1992,-7.1992,-7.1992,-7.2695,-7.3398,-7.3789,-7.4531,-7.543,-7.6289,-7.6875,-7.7187,-7.7187,-7.7187,-7.7031,-7.6523,-7.6445,-7.625,-7.5742,-7.5664,-7.5898,-7.6406,-7.6445,-7.664,-7.7187,-7.7539,-7.7734,-7.7734,-7.8047,-7.8242,-7.8242,-7.8242,-7.8086,-7.7734,-7.6875,-7.6719,-7.7187,-7.7187,-7.7187,-6.4299,-6.4299,-6.4104,0.0,0.0,0.0,-6.0939,-6.0471,-6.0159,0.0,0.0,0.0,0.0,0.0,0.0,0.0,0.0,0.0,0.0,0.0,0.0,0.0,0.0,0.0,0.0,-5.6606,-5.6606,-5.6606,-5.6608,-5.6614,-5.6584,-5.6591,-5.6986,-5.7889,-5.8748,-5.9608,-6.039,-6.125,-6.1719,-6.1719,-6.1719,-6.1719,-6.1719,-6.1719,-6.1719,-6.1797,-6.3555,-6.4297,-6.4453,-6.6172,-6.6914,-6.6914,-6.6914,-6.6914,-6.6914,-6.6914,-6.6914,-6.6914,-6.6914,-6.6914,-6.6914,-6.6914,-6.6914,-6.6914,-6.6914,-6.6914,-6.7109,-6.8086,-6.9531,-7.1015,-7.1797,-7.1992,-7.1992,-7.1992,-7.1992,-7.1992,-7.1992,-7.2773,-7.3672,-7.4453,-7.5312,-7.6172,-7.7031,-7.7187,-7.7187,-7.7187,-7.7187,-7.7187,-7.7187,-7.7187,-7.7187,-7.7187,-7.7187,-7.7187,-7.7187,-7.7187,-7.7187,-7.7187,-7.8008,-7.8515,-7.8515,-7.9258,-7.9687,-7.9687,-7.9687,-7.9336,-7.8633,-7.7773,-7.7305,-7.7187,-7.7187,-7.7187,0.0,0.0,0.0,0.0,0.0,0.0,-6.1681,-6.09,-6.0159,0.0,0.0,0.0,0.0,0.0,0.0,0.0,0.0,0.0,0.0,0.0,0.0,0.0,0.0,0.0,0.0,-5.6606,-5.6608,-5.6618,-5.6585,-5.6592,-5.6597,-5.6598,-5.699,-5.7851,-5.875,-5.9609,-6.039,-6.125,-6.1719,-6.1719,-6.1719,-6.1719,-6.1719,-6.1719,-6.1719,-6.1797,-6.3555,-6.4297,-6.4453,-6.6172,-6.6914,-6.6914,-6.6914,-6.6914,-6.6914,-6.6914,-6.6914,-6.6914,-6.6914,-6.6914,-6.6914,-6.6914,-6.6914,-6.6914,-6.6914,-6.6914,-6.7226,-6.8789,-7.0469,-7.1797,-7.1953,-7.1992,-7.1992,-7.1992,-7.1992,-7.1992,-7.1992,-7.3242,-7.4414,-7.457,-7.5312,-7.6172,-7.7031,-7.7187,-7.7187,-7.7187,-7.7187,-7.7187,-7.7187,-7.7187,-7.7187,-7.7187,-7.7187,-7.7187,-7.7187,-7.7187,-7.7187,-7.7187,-7.8008,-7.8515,-7.8515,-7.9258,-7.9687,-7.9687,-7.9687,-7.9609,-7.9453,-7.8633,-7.789,-7.7187,-7.7187,-7.7187,0.0,0.0,0.0,-6.5038,0.0,0.0,0.0,-6.1993,-6.1447,0.0,0.0,0.0,0.0,0.0,0.0,0.0,0.0,0.0,0.0,0.0,0.0,0.0,0.0,0.0,0.0,-5.6962,-5.7399,-5.7799,-5.7492,-5.7261,-5.7263,-5.6835,-5.6796,-5.7226,-5.8515,-5.9375,-5.9805,-6.1055,-6.1719,-6.1719,-6.1719,-6.1719,-6.1719,-6.1719,-6.1719,-6.1797,-6.3555,-6.4297,-6.4453,-6.6172,-6.6914,-6.6914,-6.6914,-6.6914,-6.6914,-6.6914,-6.6914,-6.6914,-6.6914,-6.6914,-6.6914,-6.6914,-6.6914,-6.6914,-6.6914,-6.7461,-6.8359,-6.9258,-7.0703,-7.1992,-7.1992,-7.1992,-7.1992,-7.1992,-7.1992,-7.1992,-7.1992,-7.3359,-7.4609,-7.4609,-7.5664,-7.668,-7.7109,-7.7187,-7.7187,-7.7187,-7.7187,-7.7187,-7.7187,-7.7187,-7.7187,-7.7187,-7.7187,-7.7187,-7.7187,-7.7187,-7.7383,-7.7812,-7.8633,-7.9297,-7.9726,-8.0547,-8.1015,-8.1015,-8.1015,-8.0781,-8.0351,-7.9922,-7.9101,-7.7851,-7.7383,-7.7187,0.0,0.0,0.0,0.0,0.0,-6.5234,0.0,0.0,0.0,0.0,0.0,0.0,0.0,0.0,0.0,0.0,0.0,0.0,0.0,0.0,0.0,0.0,0.0,0.0,0.0,-5.7553,-5.8342,-5.9051,-5.8511,-5.8084,-5.7927,-5.7226,-5.6758,-5.6601,-5.8281,-5.9219,-5.9219,-6.0859,-6.1719,-6.1719,-6.1719,-6.1719,-6.1719,-6.1719,-6.1719,-6.1797,-6.3555,-6.4297,-6.4453,-6.6172,-6.6914,-6.6914,-6.6914,-6.6914,-6.6914,-6.6914,-6.6914,-6.6914,-6.6914,-6.6914,-6.6914,-6.6914,-6.6914,-6.6914,-6.6914,-6.8086,-6.9414,-6.9492,-7.0703,-7.1992,-7.1992,-7.1992,-7.1992,-7.1992,-7.1992,-7.2031,-7.2226,-7.3476,-7.4648,-7.4805,-7.6133,-7.7187,-7.7187,-7.7187,-7.7187,-7.7187,-7.7187,-7.7187,-7.7187,-7.7187,-7.7187,-7.7187,-7.7187,-7.7187,-7.7187,-7.7187,-7.7578,-7.8437,-7.9258,-8.0078,-8.0976,-8.1836,-8.2304,-8.2304,-8.2304,-8.1953,-8.125,-8.1094,-8.0234,-7.8711,-7.8008,-7.7617,0.0,0.0,0.0,0.0,-6.6717,0.0,0.0,0.0,0.0,0.0,0.0,0.0,0.0,0.0,0.0,0.0,0.0,0.0,0.0,0.0,0.0,0.0,0.0,0.0,0.0,0.0,-5.9003,-5.9081,-5.9055,-5.8709,-5.7927,-5.7812,-5.7383,-5.6601,-5.8281,-5.9219,-5.9219,-6.0859,-6.1719,-6.1719,-6.1719,-6.1719,-6.1719,-6.1719,-6.1719,-6.1797,-6.3555,-6.4297,-6.4453,-6.6172,-6.6914,-6.6914,-6.6914,-6.6914,-6.6914,-6.6914,-6.6914,-6.6914,-6.6914,-6.6914,-6.6914,-6.6914,-6.6914,-6.6914,-6.6914,-6.8086,-6.9414,-6.9492,-7.0703,-7.1992,-7.1992,-7.1992,-7.1992,-7.1992,-7.1992,-7.2226,-7.3008,-7.3906,-7.4844,-7.5586,-7.6523,-7.7187,-7.7187,-7.7187,-7.7187,-7.7187,-7.7187,-7.7187,-7.7187,-7.7187,-7.7187,-7.7187,-7.7187,-7.7187,-7.7187,-7.7187,-7.7578,-7.8437,-7.9258,-8.0078,-8.0976,-8.1836,-8.2304,-8.2304,-8.2304,-8.2265,-8.2148,-8.1367,-8.0508,-7.957,-7.9453,-7.9023,0.0,0.0,0.0,0.0,0.0,0.0,-6.6288,0.0,-6.5743,0.0,0.0,0.0,0.0,0.0,0.0,0.0,0.0,0.0,0.0,0.0,0.0,0.0,0.0,0.0,0.0,0.0,0.0,0.0,0.0,-6.0074,-5.8748,-5.8631,-5.8007,-5.664,-5.875,-5.9687,-5.9219,-6.0859,-6.1719,-6.1719,-6.1719,-6.1719,-6.1719,-6.1719,-6.1719,-6.1797,-6.3555,-6.4297,-6.4453,-6.6172,-6.6914,-6.6914,-6.6914,-6.6914,-6.6914,-6.6914,-6.6914,-6.6914,-6.6914,-6.6914,-6.6914,-6.6914,-6.6914,-6.6992,-6.75,-6.8476,-6.9492,-7.0039,-7.1055,-7.1992,-7.1992,-7.1992,-7.1992,-7.1992,-7.1992,-7.2226,-7.3125,-7.3984,-7.4844,-7.5742,-7.6601,-7.7187,-7.7187,-7.7187,-7.7187,-7.7187,-7.7187,-7.7187,-7.7187,-7.7187,-7.7187,-7.7187,-7.7187,-7.7187,-7.7187,-7.7656,-7.832,-7.914,-8.0469,-8.1367,-8.1758,-8.2109,-8.2304,-8.2304,-8.2304,-8.2304,-8.2304,-8.1445,-8.082,-8.0429,-7.9453,-7.9062,-6.6561,0.0,0.0,0.0,0.0,0.0,0.0,0.0,0.0,0.0,0.0,0.0,0.0,0.0,0.0,0.0,0.0,0.0,0.0,0.0,0.0,0.0,0.0,0.0,0.0,0.0,0.0,0.0,-6.2408,-6.1201,-5.9292,-5.9177,-5.8397,-5.664,-5.8867,-5.9805,-5.9219,-6.0859,-6.1719,-6.1719,-6.1719,-6.1719,-6.1719,-6.1719,-6.1836,-6.2148,-6.3633,-6.4453,-6.4765,-6.6289,-6.6914,-6.6914,-6.6914,-6.6914,-6.6914,-6.6914,-6.6914,-6.6914,-6.6914,-6.6914,-6.6914,-6.6914,-6.6914,-6.707,-6.793,-6.875,-6.957,-7.0469,-7.1328,-7.1992,-7.1992,-7.1992,-7.1992,-7.1992,-7.1992,-7.2305,-7.3437,-7.414,-7.4922,-7.6055,-7.6758,-7.7187,-7.7187,-7.7187,-7.7187,-7.7187,-7.7187,-7.7187,-7.7187,-7.7187,-7.7187,-7.7187,-7.7187,-7.7305,-7.7539,-7.8125,-7.8945,-8.0,-8.1484,-8.2304,-8.2304,-8.2304,-8.2304,-8.2304,-8.2304,-8.2304,-8.2304,-8.164,-8.1367,-8.1328,-7.9609,-7.914,0.0,0.0,0.0,-6.892,0.0,0.0,0.0,0.0,-6.6902,0.0,0.0,0.0,0.0,0.0,-6.8036,-6.8036,0.0,0.0,0.0,0.0,0.0,0.0,0.0,0.0,0.0,0.0,0.0,-6.3125,-6.298,-6.1818,-5.9247,-5.9175,-5.8397,-5.664,-5.832,-5.9219,-5.9219,-6.0859,-6.1719,-6.1719,-6.1719,-6.1719,-6.1719,-6.1719,-6.2148,-6.3008,-6.3906,-6.4765,-6.5625,-6.6523,-6.6914,-6.6914,-6.6914,-6.6914,-6.6914,-6.6914,-6.6914,-6.6914,-6.6914,-6.6914,-6.6914,-6.6914,-6.6914,-6.707,-6.793,-6.875,-6.957,-7.0469,-7.1328,-7.1992,-7.1992,-7.1992,-7.1992,-7.1992,-7.1992,-7.2461,-7.418,-7.457,-7.5117,-7.6836,-7.7187,-7.7187,-7.7187,-7.7187,-7.7187,-7.7187,-7.7187,-7.7187,-7.7187,-7.7187,-7.7187,-7.7187,-7.7187,-7.7539,-7.8398,-7.8476,-7.9219,-8.0859,-8.1797,-8.2304,-8.2304,-8.2304,-8.2304,-8.2304,-8.2304,-8.2304,-8.2304,-8.2265,-8.2265,-8.2226,-8.0469,-7.9687,0.0,0.0,-6.4692,-6.646,0.0,0.0,0.0,0.0,0.0,0.0,0.0,0.0,0.0,0.0,-6.8358,-6.8866,-6.828,-6.7772,0.0,0.0,0.0,0.0,0.0,0.0,0.0,0.0,0.0,-6.4843,-6.4184,-6.2707,-6.01,-6.0532,-6.007,-5.8358,-5.996,-6.0585,-6.0,-6.1133,-6.1719,-6.1719,-6.1719,-6.1719,-6.1719,-6.1719,-6.2187,-6.3047,-6.3906,-6.4805,-6.5664,-6.6523,-6.6914,-6.6914,-6.6914,-6.6914,-6.6914,-6.6914,-6.6914,-6.6914,-6.6914,-6.6914,-6.6914,-6.6914,-6.7305,-6.789,-6.875,-6.9609,-7.043,-7.1328,-7.1758,-7.1992,-7.1992,-7.1992,-7.1992,-7.1992,-7.2422,-7.3164,-7.4336,-7.5039,-7.582,-7.6953,-7.7187,-7.7187,-7.7187,-7.7187,-7.7187,-7.7187,-7.7187,-7.7187,-7.7187,-7.7187,-7.7422,-7.8008,-7.8047,-7.8398,-7.9219,-7.9805,-8.0625,-8.1797,-8.2148,-8.2304,-8.2304,-8.2304,-8.2304,-8.2304,-8.2304,-8.2304,-8.2304,-8.1719,-8.1445,-8.1406,-8.0234,-8.0312,-6.2618,-6.3008,0.0,-6.5171,-6.4939,0.0,-6.5382,0.0,0.0,0.0,0.0,0.0,0.0,0.0,0.0,-6.9687,-6.918,-6.832,0.0,-6.707,0.0,0.0,0.0,0.0,0.0,0.0,-6.7277,-6.5275,-6.4336,-6.2818,0.0,0.0,-6.0732,-5.9646,-6.0663,-6.1132,-6.0859,-6.1406,-6.1719,-6.1719,-6.1719,-6.1719,-6.1719,-6.2031,-6.2656,-6.3515,-6.4375,-6.5273,-6.6094,-6.668,-6.6914,-6.6914,-6.6914,-6.6914,-6.6914,-6.6914,-6.6914,-6.6914,-6.6914,-6.6914,-6.6914,-6.6914,-6.75,-6.8359,-6.918,-7.0039,-7.0898,-7.1758,-7.1992,-7.1992,-7.1992,-7.1992,-7.207,-7.2383,-7.289,-7.3633,-7.4805,-7.5508,-7.6172,-7.7031,-7.7187,-7.7187,-7.7187,-7.7187,-7.7187,-7.7187,-7.7187,-7.7305,-7.7617,-7.7656,-7.8008,-7.8828,-7.8945,-7.9258,-8.0078,-8.0976,-8.1719,-8.2265,-8.2304,-8.2304,-8.2304,-8.2304,-8.2304,-8.2304,-8.2304,-8.2304,-8.2304,-8.1758,-8.1445,-8.1445,-8.0898,-8.1211]},{"header":{"parameterUnit":"m.s-1","parameterCategory":1,"la1":30.6,"la2":29.2853,"lo1":-89.7004,"lo2":-87.6739,"dy":0.0162,"dx":0.0183,"nx":112,"ny":82,"refTime":"2024-03-30T00:00:00:Z","depth":0,"parameterNumber":3,"parameterNumberName":"V-component_of_WINDS"},"data":[0.0,0.0,0.0,0.0,0.0,0.0,0.0,0.0,0.0,0.0,0.0,0.0,0.0,0.0,0.0,0.0,0.0,0.0,0.0,0.0,0.0,0.0,0.0,0.0,0.0,0.0,0.0,0.0,0.0,0.0,0.0,0.0,0.0,0.0,0.0,0.0,0.0,0.0,0.0,0.0,0.0,0.0,0.0,0.0,0.0,0.0,0.0,0.0,0.0,0.0,0.0,0.0,0.0,0.0,0.0,0.0,0.0,0.0,0.0,0.0,0.0,0.0,0.0,0.0,0.0,0.0,0.0,0.0,0.0,0.0,0.0,0.0,0.0,0.0,0.0,0.0,0.0,0.0,0.0,0.0,0.0,0.0,0.0,0.0,0.0,0.0,0.0,0.0,0.0,0.0,0.0,-1.2906,-1.3236,-1.3401,-1.3376,-1.3068,-1.271,-1.2328,0.0,0.0,0.0,0.0,0.0,0.0,0.0,0.0,0.0,0.0,0.0,0.0,0.0,0.0,0.0,0.0,0.0,0.0,0.0,0.0,0.0,0.0,0.0,0.0,0.0,0.0,0.0,0.0,0.0,0.0,0.0,0.0,0.0,0.0,0.0,0.0,0.0,0.0,0.0,0.0,0.0,0.0,0.0,0.0,0.0,0.0,0.0,0.0,0.0,0.0,0.0,0.0,0.0,0.0,0.0,0.0,0.0,0.0,0.0,0.0,0.0,0.0,0.0,0.0,0.0,0.0,0.0,0.0,0.0,0.0,0.0,0.0,0.0,0.0,0.0,0.0,0.0,0.0,0.0,0.0,0.0,0.0,0.0,0.0,0.0,0.0,0.0,0.0,0.0,0.0,0.0,0.0,0.0,0.0,0.0,0.0,0.0,0.0,0.0,0.0,0.0,0.0,0.0,0.0,-1.2741,-1.3267,-1.3449,-1.3539,-1.3384,-1.3173,-1.284,-1.2337,0.0,0.0,0.0,0.0,0.0,0.0,0.0,0.0,0.0,0.0,0.0,0.0,0.0,0.0,0.0,0.0,0.0,0.0,0.0,0.0,0.0,0.0,0.0,0.0,0.0,0.0,0.0,0.0,0.0,0.0,0.0,0.0,0.0,0.0,0.0,0.0,0.0,0.0,0.0,0.0,0.0,0.0,0.0,0.0,0.0,0.0,0.0,0.0,0.0,0.0,0.0,0.0,0.0,0.0,0.0,0.0,0.0,0.0,0.0,0.0,0.0,0.0,0.0,0.0,0.0,0.0,0.0,0.0,0.0,0.0,0.0,0.0,0.0,0.0,0.0,0.0,0.0,0.0,0.0,0.0,0.0,0.0,0.0,0.0,0.0,0.0,0.0,0.0,0.0,0.0,0.0,0.0,0.0,0.0,0.0,0.0,0.0,0.0,0.0,0.0,0.0,0.0,0.0,-1.2205,-1.2675,-1.3355,-1.3352,-1.3352,-1.3368,-1.3027,-1.2661,-1.2328,-1.1971,0.0,0.0,0.0,0.0,0.0,0.0,0.0,0.0,0.0,0.0,0.0,0.0,0.0,0.0,0.0,0.0,0.0,0.0,0.0,0.0,0.0,0.0,0.0,0.0,0.0,0.0,0.0,0.0,0.0,0.0,0.0,0.0,0.0,0.0,0.0,0.0,0.0,0.0,0.0,0.0,0.0,0.0,0.0,0.0,0.0,0.0,0.0,0.0,0.0,0.0,0.0,0.0,0.0,0.0,0.0,0.0,0.0,0.0,0.0,0.0,0.0,0.0,0.0,0.0,0.0,0.0,0.0,0.0,0.0,0.0,0.0,0.0,0.0,0.0,0.0,0.0,0.0,0.0,0.0,0.0,0.0,0.0,0.0,0.0,0.0,0.0,0.0,0.0,0.0,0.0,0.0,0.0,0.0,0.0,0.0,0.0,0.0,0.0,0.0,0.0,0.0,0.0,-1.2104,-1.2435,-1.3162,-1.2978,-1.2879,-1.309,-1.265,-1.2299,-1.2067,-1.1725,0.0,0.0,0.0,0.0,0.0,0.0,0.0,0.0,0.0,0.0,0.0,0.0,0.0,0.0,0.0,0.0,0.0,0.0,0.0,0.0,0.0,0.0,0.0,0.0,0.0,0.0,0.0,0.0,0.0,0.0,0.0,0.0,0.0,0.0,0.0,0.0,0.0,0.0,0.0,0.0,0.0,0.0,0.0,0.0,0.0,0.0,0.0,0.0,0.0,0.0,0.0,0.0,0.0,0.0,0.0,0.0,0.0,0.0,0.0,0.0,0.0,0.0,0.0,0.0,0.0,0.0,0.0,0.0,0.0,0.0,0.0,0.0,0.0,0.0,0.0,0.0,0.0,0.0,0.0,0.0,0.0,0.0,0.0,0.0,0.0,0.0,0.0,0.0,0.0,0.0,0.0,0.0,0.0,0.0,0.0,0.0,0.0,0.0,0.0,0.0,0.0,0.0,-1.1845,-1.2065,-1.2582,-1.2292,-1.2082,-1.2097,-1.1856,-1.1592,-1.137,-1.1041,0.0,0.0,0.0,0.0,0.0,0.0,0.0,0.0,0.0,0.0,0.0,0.0,0.0,0.0,0.0,0.0,0.0,0.0,0.0,0.0,0.0,0.0,0.0,0.0,0.0,0.0,0.0,0.0,0.0,0.0,0.0,0.0,0.0,0.0,0.0,0.0,0.0,0.0,0.0,0.0,0.0,0.0,0.0,0.0,0.0,0.0,0.0,0.0,0.0,0.0,0.0,0.0,0.0,0.0,0.0,0.0,0.0,0.0,0.0,0.0,0.0,0.0,0.0,0.0,0.0,0.0,0.0,0.0,0.0,0.0,0.0,0.0,0.0,0.0,0.0,0.0,0.0,0.0,0.0,0.0,0.0,0.0,0.0,0.0,0.0,0.0,0.0,0.0,0.0,0.0,0.0,0.0,0.0,0.0,0.0,0.0,0.0,0.0,0.0,0.0,0.0,0.0,-1.165,-1.1929,0.0,-1.1992,-1.1903,-1.2008,-1.1627,-1.1359,-1.1299,0.0,0.0,0.0,0.0,0.0,0.0,0.0,0.0,0.0,0.0,0.0,0.0,0.0,0.0,0.0,0.0,0.0,0.0,0.0,0.0,0.0,0.0,0.0,0.0,0.0,0.0,0.0,0.0,0.0,0.0,0.0,0.0,0.0,0.0,0.0,0.0,0.0,0.0,0.0,0.0,0.0,0.0,0.0,0.0,0.0,0.0,0.0,0.0,0.0,0.0,0.0,0.0,0.0,0.0,0.0,0.0,0.0,0.0,0.0,0.0,0.0,0.0,0.0,0.0,0.0,0.0,0.0,0.0,0.0,0.0,0.0,0.0,0.0,0.0,0.0,0.0,0.0,0.0,0.0,0.0,0.0,0.0,0.0,0.0,0.0,0.0,0.0,0.0,0.0,0.0,0.0,0.0,0.0,0.0,0.0,0.0,0.0,0.0,0.0,0.0,0.0,0.0,-1.1057,-1.1215,-1.1327,0.0,-1.1245,-1.1143,-1.1059,-1.0732,-1.051,-1.0454,0.0,0.0,0.0,0.0,0.0,0.0,0.0,0.0,0.0,0.0,0.0,0.0,0.0,0.0,0.0,0.0,0.0,0.0,0.0,0.0,0.0,0.0,0.0,0.0,0.0,0.0,0.0,0.0,0.0,0.0,0.0,0.0,0.0,0.0,0.0,0.0,0.0,0.0,0.0,0.0,0.0,0.0,0.0,0.0,0.0,0.0,0.0,0.0,0.0,0.0,0.0,0.0,0.0,0.0,0.0,0.0,0.0,0.0,0.0,0.0,0.0,0.0,0.0,0.0,0.0,0.0,0.0,0.0,0.0,0.0,0.0,0.0,0.0,0.0,0.0,0.0,0.0,0.0,0.0,0.0,0.0,0.0,0.0,0.0,0.0,0.0,0.0,0.0,0.0,0.0,0.0,0.0,0.0,0.0,0.0,0.0,0.0,0.0,0.0,0.0,0.0,0.0,-1.068,-1.0398,-1.0199,-1.0161,-0.9861,-0.9474,-0.9015,-0.8887,-0.8753,0.0,0.0,0.0,0.0,0.0,0.0,0.0,0.0,0.0,0.0,0.0,0.0,0.0,0.0,0.0,0.0,0.0,0.0,0.0,0.0,0.0,0.0,0.0,0.0,0.0,0.0,0.0,0.0,0.0,0.0,0.0,0.0,0.0,0.0,0.0,0.0,0.0,0.0,0.0,0.0,0.0,0.0,0.0,0.0,0.0,0.0,0.0,0.0,0.0,0.0,0.0,0.0,0.0,0.0,0.0,0.0,0.0,0.0,0.0,0.0,0.0,0.0,0.0,0.0,0.0,0.0,0.0,0.0,0.0,0.0,0.0,0.0,0.0,0.0,0.0,0.0,0.0,0.0,0.0,0.0,0.0,0.0,0.0,0.0,0.0,0.0,0.0,0.0,0.0,0.0,0.0,0.0,0.0,0.0,0.0,0.0,0.0,0.0,0.0,0.0,0.0,0.0,0.0,-1.0158,-0.9705,-0.9255,-0.8639,-0.8336,-0.8102,-0.7939,-0.7757,-0.763,-0.76,0.0,0.0,0.0,0.0,0.0,0.0,0.0,0.0,0.0,0.0,0.0,0.0,0.0,0.0,0.0,0.0,0.0,0.0,0.0,0.0,0.0,0.0,0.0,0.0,0.0,0.0,0.0,0.0,0.0,0.0,0.0,0.0,0.0,0.0,0.0,0.0,0.0,0.0,0.0,0.0,0.0,0.0,0.0,0.0,0.0,0.0,0.0,0.0,0.0,0.0,0.0,0.0,0.0,0.0,0.0,0.0,0.0,0.0,0.0,0.0,0.0,0.0,0.0,0.0,0.0,0.0,0.0,0.0,0.0,0.0,0.0,0.0,0.0,0.0,0.0,0.0,0.0,0.0,0.0,0.0,0.0,0.0,0.0,0.0,0.0,0.0,0.0,0.0,0.0,0.0,0.0,0.0,0.0,0.0,0.0,0.0,0.0,0.0,0.0,0.0,0.0,0.0,-0.931,-0.8699,-0.8012,-0.7154,-0.6788,-0.6614,-0.6407,-0.63,-0.6205,-0.6261,0.0,0.0,0.0,0.0,0.0,0.0,0.0,0.0,0.0,0.0,0.0,0.0,0.0,0.0,0.0,0.0,0.0,0.0,0.0,0.0,0.0,0.0,0.0,0.0,0.0,0.0,0.0,0.0,0.0,0.0,0.0,0.0,0.0,0.0,0.0,0.0,0.0,0.0,0.0,0.0,0.0,0.0,0.0,0.0,0.0,0.0,0.0,0.0,0.0,0.0,0.0,0.0,0.0,0.0,0.0,0.0,0.0,0.0,0.0,0.0,0.0,0.0,0.0,0.0,0.0,0.0,0.0,0.0,0.0,0.0,0.0,0.0,0.0,0.0,0.0,0.0,0.0,0.0,0.0,0.0,0.0,0.0,0.0,0.0,0.0,0.0,0.0,0.0,0.0,0.0,0.0,0.0,0.0,0.0,0.0,0.0,0.0,0.0,0.0,0.0,0.0,0.0,-0.8398,-0.7504,-0.6653,-0.5766,-0.5384,-0.5043,-0.4591,-0.457,-0.4576,-0.4697,0.0,0.0,0.0,0.0,0.0,0.0,0.0,0.0,0.0,0.0,0.0,0.0,0.0,0.0,0.0,0.0,0.0,0.0,0.0,0.0,0.0,0.0,0.0,0.0,0.0,0.0,0.0,0.0,0.0,0.0,0.0,0.0,0.0,0.0,0.0,0.0,0.0,0.0,0.0,0.0,0.0,0.0,0.0,0.0,0.0,0.0,0.0,0.0,0.0,0.0,0.0,0.0,0.0,0.0,0.0,0.0,0.0,0.0,0.0,0.0,-0.8495,0.0,0.0,0.0,0.0,0.0,0.0,0.0,0.0,0.0,0.0,0.0,0.0,0.0,0.0,0.0,0.0,0.0,0.0,0.0,0.0,0.0,0.0,0.0,0.0,0.0,0.0,0.0,0.0,0.0,0.0,0.0,0.0,0.0,0.0,0.0,0.0,0.0,0.0,0.0,0.0,0.0,-0.8172,-0.6755,-0.554,-0.4594,-0.4002,-0.3633,-0.3544,-0.3468,-0.3476,-0.3455,-0.3663,0.0,0.0,0.0,0.0,0.0,0.0,0.0,0.0,0.0,0.0,0.0,0.0,0.0,0.0,0.0,0.0,0.0,0.0,0.0,0.0,0.0,0.0,0.0,0.0,0.0,0.0,0.0,0.0,0.0,0.0,0.0,0.0,0.0,0.0,0.0,0.0,0.0,0.0,0.0,0.0,0.0,0.0,0.0,0.0,0.0,0.0,0.0,0.0,0.0,0.0,0.0,0.0,0.0,0.0,0.0,0.0,0.0,0.0,0.0,0.0,-0.7973,0.0,0.0,0.0,0.0,0.0,0.0,0.0,0.0,0.0,0.0,0.0,0.0,0.0,0.0,0.0,0.0,0.0,0.0,0.0,0.0,0.0,0.0,0.0,0.0,0.0,0.0,0.0,0.0,0.0,0.0,0.0,0.0,0.0,0.0,0.0,0.0,0.0,0.0,0.0,0.0,-0.7133,-0.5714,-0.4461,-0.3445,-0.291,-0.2669,-0.2649,-0.2609,-0.2642,-0.281,-0.2913,0.0,0.0,0.0,0.0,0.0,0.0,0.0,0.0,0.0,0.0,0.0,0.0,0.0,0.0,0.0,0.0,0.0,0.0,0.0,0.0,0.0,0.0,0.0,0.0,0.0,0.0,0.0,0.0,0.0,0.0,0.0,0.0,0.0,0.0,0.0,0.0,0.0,0.0,0.0,0.0,0.0,0.0,0.0,0.0,0.0,0.0,0.0,0.0,0.0,0.0,0.0,0.0,0.0,-0.5579,-0.55,-0.5311,-0.5311,-0.5233,-0.506,-0.5964,-0.6647,-0.7138,0.0,0.0,0.0,0.0,0.0,0.0,0.0,0.0,0.0,0.0,0.0,0.0,0.0,0.0,0.0,0.0,0.0,0.0,0.0,0.0,0.0,0.0,0.0,0.0,0.0,-1.0808,-1.1126,0.0,0.0,0.0,0.0,0.0,0.0,0.0,0.0,0.0,0.0,0.0,0.0,-0.6031,-0.468,-0.3532,-0.2586,-0.2232,-0.2046,-0.202,-0.2014,-0.2125,-0.2407,-0.2406,-0.2529,0.0,0.0,0.0,0.0,0.0,0.0,0.0,0.0,0.0,0.0,0.0,0.0,0.0,0.0,0.0,0.0,0.0,0.0,0.0,0.0,0.0,0.0,0.0,0.0,0.0,0.0,0.0,0.0,0.0,0.0,0.0,0.0,-0.9615,-0.9748,0.0,0.0,0.0,0.0,0.0,0.0,0.0,0.0,0.0,0.0,0.0,0.0,0.0,0.0,-0.6103,-0.5794,-0.5491,-0.523,-0.5242,-0.5207,-0.5043,-0.5043,-0.4863,-0.4558,-0.4674,0.0,-0.5977,-0.6565,0.0,0.0,0.0,0.0,0.0,0.0,0.0,0.0,0.0,0.0,0.0,0.0,0.0,0.0,0.0,0.0,0.0,0.0,0.0,0.0,0.0,0.0,-0.9048,-0.9425,-0.9671,-0.9971,0.0,-1.1179,-1.1801,-1.1784,0.0,0.0,0.0,0.0,0.0,0.0,0.0,0.0,-0.5667,-0.4368,-0.3278,-0.2586,-0.2211,-0.2023,-0.2019,-0.1996,-0.2043,-0.2038,-0.2038,-0.21,-0.21,-0.2162,0.0,0.0,0.0,0.0,0.0,0.0,0.0,0.0,0.0,0.0,0.0,0.0,0.0,0.0,0.0,0.0,0.0,0.0,0.0,0.0,0.0,0.0,0.0,0.0,0.0,0.0,0.0,0.0,0.0,-0.9613,-0.933,-0.9259,-0.9564,-0.9985,0.0,0.0,0.0,0.0,0.0,0.0,0.0,0.0,0.0,-0.6773,-0.6058,-0.5475,-0.506,-0.4808,-0.4631,-0.4512,-0.4512,-0.4499,-0.4467,-0.4467,-0.4403,-0.4276,-0.425,-0.4413,-0.4771,-0.5558,-0.651,-0.7513,0.0,0.0,0.0,0.0,-0.8528,-0.7943,-0.7289,-0.6589,0.0,0.0,0.0,0.0,0.0,0.0,0.0,0.0,0.0,0.0,0.0,0.0,0.0,-0.79,-0.8278,-0.867,-0.8915,-0.9572,-1.0368,0.0,-1.1103,-1.0974,-1.0974,0.0,0.0,0.0,0.0,0.0,-0.4742,-0.3596,-0.274,-0.2244,-0.2058,-0.1994,-0.1994,-0.1984,-0.1977,-0.1977,-0.1977,-0.1977,-0.1977,-0.1977,-0.216,0.0,0.0,0.0,0.0,0.0,0.0,0.0,0.0,0.0,0.0,0.0,0.0,0.0,0.0,0.0,0.0,0.0,0.0,0.0,0.0,0.0,0.0,0.0,0.0,0.0,0.0,0.0,0.0,-0.9428,-0.925,-0.9041,-0.9287,-0.9684,0.0,0.0,0.0,0.0,0.0,0.0,-0.7569,-0.6777,-0.6089,-0.5561,-0.5094,-0.4634,-0.423,-0.4183,-0.4107,-0.3994,-0.3994,-0.409,-0.415,-0.415,-0.4158,-0.4172,-0.4155,-0.4098,-0.4011,-0.477,-0.5553,-0.6381,-0.7059,-0.7657,-0.8044,-0.7622,-0.7135,-0.6558,-0.597,-0.5273,-0.4673,-0.4557,0.0,-0.4931,-0.5596,0.0,0.0,0.0,0.0,-0.6891,-0.6465,-0.6313,-0.6279,-0.6377,-0.6766,-0.7194,-0.7378,-0.7739,-0.8471,0.0,-1.0119,-0.9937,-0.9937,0.0,0.0,0.0,0.0,-0.5172,-0.3946,-0.3022,-0.2344,-0.2038,-0.1977,-0.1977,-0.1977,-0.1977,-0.1977,-0.1977,-0.1977,-0.1977,-0.1977,-0.1977,-0.2099,-0.2344,0.0,0.0,0.0,0.0,0.0,0.0,0.0,0.0,0.0,0.0,0.0,0.0,0.0,0.0,0.0,0.0,0.0,0.0,0.0,0.0,0.0,0.0,0.0,0.0,0.0,0.0,0.0,0.0,0.0,-0.9564,-0.9341,0.0,0.0,0.0,0.0,-0.8608,-0.7319,-0.6531,-0.6484,-0.5652,-0.5071,-0.4862,-0.4551,-0.43,-0.4112,-0.4109,-0.4112,-0.412,-0.412,-0.4153,-0.4213,-0.4213,-0.4243,-0.4294,-0.4237,-0.421,-0.4188,-0.4389,-0.4639,-0.4941,-0.5658,-0.5952,-0.6092,-0.6342,-0.6033,-0.535,-0.4994,-0.4542,-0.4077,-0.3842,-0.4085,-0.4648,-0.5318,-0.5552,0.0,0.0,-0.5701,-0.5255,-0.5275,-0.5118,-0.4898,-0.4971,-0.5049,-0.5233,-0.5847,-0.6027,-0.6639,0.0,-0.8897,-0.8897,-0.8897,0.0,-0.7744,-0.7072,-0.5786,-0.4619,-0.364,-0.2899,-0.2344,-0.2038,-0.1977,-0.1977,-0.1977,-0.1977,-0.1977,-0.1977,-0.1977,-0.1977,-0.1977,-0.1977,-0.2038,-0.2038,-0.2344,0.0,0.0,0.0,0.0,0.0,0.0,0.0,0.0,0.0,0.0,0.0,0.0,0.0,0.0,0.0,0.0,0.0,0.0,0.0,0.0,0.0,0.0,0.0,0.0,0.0,0.0,0.0,0.0,-0.9446,-0.9265,0.0,-0.9141,-0.8698,-0.8184,-0.7497,-0.6671,-0.5936,-0.5402,-0.4898,-0.4551,-0.4374,-0.4253,-0.4165,-0.4183,-0.4185,-0.4204,-0.4243,-0.4243,-0.4253,-0.4275,-0.4275,-0.4286,-0.4305,-0.4283,-0.4253,-0.4213,-0.4277,-0.4403,-0.4724,-0.491,-0.5175,-0.5382,-0.5209,-0.4954,-0.4699,-0.4355,-0.4103,-0.3913,-0.3797,-0.4009,-0.4335,-0.4566,-0.4817,-0.4962,-0.487,-0.4705,-0.4428,-0.4139,-0.3976,-0.3872,-0.3687,-0.3822,-0.4069,-0.4315,-0.4496,-0.4803,-0.5536,-0.6333,-0.6945,-0.6945,-0.6215,-0.5479,-0.5049,-0.425,-0.3453,-0.2899,-0.2469,-0.216,-0.2038,-0.1977,-0.1977,-0.1977,-0.1977,-0.1977,-0.1977,-0.1977,-0.1977,-0.1977,-0.1977,-0.1977,-0.1977,-0.2099,-0.216,0.0,0.0,0.0,0.0,0.0,0.0,0.0,0.0,0.0,0.0,0.0,0.0,0.0,0.0,0.0,0.0,0.0,0.0,0.0,0.0,0.0,0.0,0.0,0.0,0.0,0.0,-0.9509,-0.9286,-0.8911,-0.8571,-0.8375,-0.7897,-0.7274,-0.6509,-0.586,-0.5286,-0.4716,-0.4558,-0.4434,-0.4347,-0.4415,-0.4446,-0.4378,-0.4378,-0.44,-0.4308,-0.4308,-0.4308,-0.4308,-0.4308,-0.4308,-0.4308,-0.4308,-0.4283,-0.4248,-0.4248,-0.4355,-0.4512,-0.4468,-0.4576,-0.4698,-0.4464,-0.4356,-0.425,-0.4024,-0.391,-0.3856,-0.3837,-0.3934,-0.4089,-0.4065,-0.4254,-0.4391,-0.4151,-0.405,-0.3896,-0.3514,-0.3342,-0.3167,-0.2893,-0.3022,-0.3147,-0.3147,-0.333,-0.3451,-0.3576,-0.4478,-0.5251,-0.5251,-0.4584,-0.3977,-0.3793,-0.3196,-0.2775,-0.2529,-0.2222,-0.1977,-0.1977,-0.1977,-0.1977,-0.1977,-0.1967,-0.1962,-0.1962,-0.1952,-0.1945,-0.1945,-0.1945,-0.1945,-0.1945,-0.1945,-0.1945,-0.1945,0.0,0.0,0.0,0.0,0.0,0.0,0.0,0.0,0.0,0.0,0.0,0.0,0.0,0.0,0.0,0.0,0.0,0.0,0.0,0.0,0.0,0.0,0.0,-0.9524,-0.93,-0.9101,-0.9051,-0.8372,-0.7758,-0.7418,-0.657,-0.5966,-0.561,-0.4902,-0.4482,-0.4485,-0.4609,-0.4742,-0.4813,-0.5139,-0.5106,-0.4772,-0.4772,-0.4641,-0.4308,-0.4308,-0.4308,-0.4308,-0.4308,-0.4308,-0.4308,-0.4308,-0.4308,-0.4308,-0.4308,-0.4308,-0.4294,-0.4177,-0.4131,-0.4131,-0.4128,-0.4128,-0.4125,-0.4125,-0.4087,-0.3965,-0.3911,-0.3916,-0.3916,-0.3855,-0.3877,-0.3924,-0.3864,-0.3722,-0.3517,-0.3455,-0.3209,-0.2899,-0.259,-0.2467,-0.2467,-0.2467,-0.2467,-0.259,-0.2899,-0.341,-0.3853,-0.3853,-0.3555,-0.3374,-0.3374,-0.2869,0.0,-0.2466,-0.2159,-0.1977,-0.1977,-0.1977,-0.1977,-0.1975,-0.1887,-0.187,-0.1869,-0.1842,-0.1885,-0.1885,-0.1885,-0.1885,-0.1885,-0.1885,-0.1885,-0.1885,0.0,0.0,0.0,0.0,0.0,0.0,0.0,0.0,0.0,0.0,0.0,0.0,0.0,0.0,0.0,0.0,0.0,0.0,0.0,0.0,0.0,0.0,-0.8189,-0.8847,-0.8652,-0.8431,-0.8395,-0.7638,-0.7013,-0.6789,-0.6143,-0.5504,-0.494,-0.4658,-0.4637,-0.4686,-0.4773,-0.4813,-0.4812,-0.4878,-0.4757,-0.444,-0.444,-0.4372,-0.4308,-0.4308,-0.4308,-0.4308,-0.4308,-0.4308,-0.4308,-0.4308,-0.4308,-0.4308,-0.4308,-0.4308,-0.4305,-0.427,-0.4259,-0.4253,-0.4207,-0.4164,-0.4125,-0.4125,-0.4115,-0.4098,-0.4082,-0.4036,-0.3984,-0.3967,-0.3946,-0.3865,-0.3679,-0.3569,-0.3394,-0.2899,-0.2714,-0.2529,-0.2222,-0.216,-0.216,-0.216,-0.216,-0.216,-0.2284,-0.2377,-0.2531,-0.277,-0.2531,-0.2284,-0.2318,-0.1984,0.0,-0.17,-0.1471,-0.1296,-0.1296,-0.1296,-0.1291,-0.1277,-0.1271,-0.1261,-0.1246,-0.124,-0.1237,-0.1237,-0.1237,-0.1237,-0.1237,-0.1237,-0.1237,0.0,0.0,0.0,0.0,0.0,0.0,0.0,0.0,0.0,0.0,0.0,0.0,0.0,0.0,0.0,0.0,0.0,0.0,0.0,0.0,0.0,0.0,-0.7304,-0.7062,-0.7395,-0.7544,-0.7557,-0.7566,-0.6771,-0.6189,-0.5906,-0.5479,-0.5011,-0.4491,-0.4449,-0.4481,-0.4585,-0.4721,-0.4803,-0.4772,-0.4977,-0.491,-0.4507,-0.4507,-0.444,-0.4308,-0.4308,-0.4308,-0.4308,-0.4308,-0.4308,0.0,-0.4308,-0.4308,-0.4308,-0.4308,-0.4308,0.0,0.0,0.0,0.0,0.0,-0.4232,-0.4202,-0.4202,-0.4185,-0.4164,-0.4164,-0.4123,-0.4007,-0.388,-0.3781,-0.3675,-0.3364,-0.3162,-0.296,-0.259,-0.2406,-0.2222,-0.2038,-0.1977,-0.1977,-0.1977,-0.1977,-0.1977,-0.1977,-0.1962,0.0,-0.2173,-0.2039,-0.1846,-0.1711,-0.1544,-0.1374,-0.1254,-0.1084,-0.1029,-0.1029,-0.1029,-0.1026,-0.1016,-0.095,0.0,0.0,0.0,-0.0968,-0.0962,-0.0962,0.0,0.0,0.0,-0.0965,-0.0971,0.0,0.0,0.0,-0.1501,-0.1501,0.0,0.0,0.0,0.0,0.0,0.0,0.0,0.0,0.0,0.0,0.0,0.0,0.0,0.0,0.0,0.0,-0.6463,-0.5891,-0.5638,-0.6103,-0.6505,-0.6648,-0.589,-0.5284,-0.5094,-0.4779,-0.4559,-0.4226,-0.4278,-0.4308,-0.4375,0.0,0.0,0.0,0.0,-0.5111,-0.4772,-0.4772,-0.4574,-0.4308,-0.4308,-0.4308,-0.4308,-0.4308,-0.4308,-0.4308,-0.4308,-0.4308,-0.4308,-0.4241,-0.4241,-0.4174,-0.4241,-0.4308,-0.4308,-0.4308,-0.4308,-0.4308,-0.4308,0.0,0.0,-0.416,-0.4055,-0.3943,-0.3618,-0.352,-0.3354,-0.3038,-0.2753,-0.2474,-0.2474,-0.2225,-0.1977,-0.1977,-0.1977,-0.1977,-0.1977,-0.1977,-0.1977,-0.1977,-0.1977,-0.1967,-0.1941,-0.1911,-0.1771,-0.1473,-0.1355,-0.1237,-0.0943,-0.0884,-0.0884,-0.0884,0.0,0.0,-0.0881,-0.0812,-0.0799,-0.0786,-0.0774,-0.0817,-0.0805,-0.0805,-0.0805,-0.0805,-0.0805,-0.081,-0.0823,-0.0823,-0.0774,-0.0785,-0.0841,-0.0841,0.0,0.0,0.0,0.0,0.0,0.0,0.0,0.0,0.0,0.0,0.0,0.0,0.0,0.0,0.0,-0.6232,-0.5726,-0.5307,-0.5072,-0.4964,-0.5129,-0.5706,-0.5205,-0.4841,-0.4788,-0.4522,-0.4359,-0.4289,-0.43,-0.444,-0.4705,-0.4772,0.0,-0.4772,-0.4906,-0.4775,-0.4372,-0.4372,-0.4375,-0.4308,0.0,0.0,-0.4308,-0.4308,-0.4308,-0.4308,-0.4308,-0.4308,-0.4308,-0.4037,-0.3701,-0.3497,-0.4037,-0.4308,-0.4308,-0.4308,-0.4308,-0.4308,-0.4308,-0.4099,-0.3887,-0.3887,-0.3585,-0.3284,-0.3218,-0.3185,0.0,-0.2762,-0.2606,-0.245,-0.2198,-0.2055,-0.1977,-0.1977,-0.1977,-0.1977,-0.1977,-0.1977,-0.1977,-0.1977,-0.1977,-0.1975,-0.1969,-0.1943,-0.1794,-0.1476,-0.1179,-0.0884,-0.053,-0.0353,-0.0177,-0.0177,-0.0177,-0.0176,-0.0173,-0.0173,-0.0171,-0.0168,-0.0168,-0.0167,-0.0167,-0.0167,-0.0167,-0.0167,-0.0167,-0.0167,-0.0167,-0.0167,-0.0168,-0.0168,-0.0393,-0.0505,0.0,0.0,0.0,0.0,0.0,0.0,0.0,0.0,0.0,0.0,0.0,-0.6423,-0.6311,0.0,-0.5921,-0.5388,-0.5038,-0.4734,-0.4475,-0.4388,-0.4514,-0.5029,-0.4701,-0.4493,-0.4528,-0.4356,-0.4308,-0.4308,-0.4308,-0.4375,-0.4574,-0.4574,-0.4574,-0.4574,-0.4574,-0.444,-0.4308,-0.4308,-0.4308,-0.4308,-0.4308,-0.4308,-0.4308,-0.4308,-0.4324,-0.4352,-0.4117,-0.4054,-0.4077,-0.3643,-0.3362,-0.3228,-0.3633,-0.3768,-0.3768,-0.3768,-0.3768,-0.3768,-0.3768,-0.3633,-0.3499,-0.3499,-0.3348,-0.3131,-0.2931,-0.2903,-0.2804,-0.2413,-0.2323,-0.2232,-0.2105,-0.2031,-0.2016,-0.2001,-0.1997,-0.1993,-0.1979,-0.1977,-0.1977,-0.1977,-0.1977,-0.1977,-0.1977,-0.1964,-0.1761,-0.1255,-0.1007,-0.0707,-0.0236,-0.0059,0.0,0.0,0.0,0.0,0.0,0.0,0.0,0.0,0.0,0.0,0.0,0.0,0.0,0.0,0.0,0.0,0.0,0.0,0.0,0.0,-0.0114,-0.0227,0.0,0.0,0.0,0.0,0.0,0.0,0.0,0.0,-0.4971,-0.4753,-0.5103,-0.5422,-0.5274,-0.5244,-0.5107,-0.4736,-0.4428,-0.4221,-0.4044,-0.4136,-0.4265,-0.4529,-0.4352,-0.4253,-0.4303,-0.4308,-0.4308,-0.4308,-0.4308,-0.4308,-0.4308,-0.4308,-0.4308,-0.4308,-0.4308,-0.4308,-0.4308,-0.4319,-0.4324,-0.4324,-0.4335,-0.4341,-0.4341,-0.4341,-0.4368,-0.4412,-0.4022,-0.375,-0.3638,-0.3257,-0.3034,-0.3026,-0.3026,-0.3026,-0.3026,-0.3161,-0.3228,-0.3228,-0.3228,-0.3161,-0.3094,-0.3094,-0.3026,-0.2961,-0.2694,-0.2538,-0.2449,-0.2185,-0.2095,-0.2072,-0.2072,-0.2068,-0.2057,-0.2033,-0.2027,-0.2019,-0.199,-0.1985,-0.1984,-0.1978,-0.1977,-0.1977,-0.1977,-0.1981,-0.1789,-0.1094,-0.0956,-0.071,-0.0059,0.0,0.0,0.0,0.0,0.0,0.0,0.0,0.0,0.0,0.0,0.0,0.0,0.0,0.0,0.0,0.0,0.0,0.0,0.0,0.0,0.0,0.0,0.0,-0.3038,-0.27,-0.247,-0.2859,-0.304,-0.3278,0.0,0.0,-0.4208,-0.4429,-0.4589,-0.4743,-0.4693,-0.4525,-0.4384,-0.4395,-0.4186,-0.3989,-0.4101,-0.4128,-0.4136,-0.4136,-0.4232,-0.43,-0.4308,-0.4308,-0.4308,-0.4308,-0.4308,-0.4308,-0.4308,-0.4308,-0.4308,-0.4308,-0.4308,-0.4308,-0.4308,-0.4362,-0.4387,-0.439,-0.4439,-0.4463,-0.4463,-0.4463,-0.4466,-0.4471,-0.405,-0.3471,-0.2819,-0.2745,-0.2588,-0.2289,-0.2289,-0.2289,-0.2356,-0.2959,-0.3228,-0.3228,-0.3228,-0.3028,-0.2761,-0.2761,-0.2559,-0.2289,-0.229,-0.222,-0.2217,-0.2217,-0.2128,-0.2104,-0.2104,-0.2084,-0.2127,-0.206,-0.2059,-0.205,-0.202,-0.2014,-0.2007,-0.1981,-0.1977,-0.1977,-0.1977,-0.1997,-0.1754,-0.1111,-0.0972,-0.0722,-0.006,0.0,0.0,0.0,0.0,0.0,0.0,0.0,0.0,0.0,0.0,0.0,0.0,0.0,0.0,0.0,0.0,0.0,0.0,0.0,0.0,0.0,0.0,0.0,-0.2463,-0.2168,-0.2077,-0.228,-0.2582,-0.2946,-0.3234,-0.351,-0.3682,-0.3868,-0.3813,-0.3757,-0.3833,-0.3779,-0.3787,0.0,-0.3914,-0.3967,-0.4115,-0.4125,-0.4125,-0.4125,-0.4169,-0.4215,-0.4251,-0.4253,-0.427,-0.4305,-0.4308,-0.4308,-0.4308,-0.4308,-0.4308,-0.4308,-0.4308,-0.4324,-0.436,-0.4387,-0.4414,-0.4447,-0.4471,-0.4482,-0.4482,-0.4482,-0.4273,-0.3855,-0.3462,-0.2957,-0.2435,-0.2435,-0.2346,-0.2181,-0.2181,-0.217,-0.2223,-0.249,-0.2625,-0.2625,-0.2625,-0.2558,-0.2425,-0.2425,-0.229,-0.2223,-0.2223,-0.2223,-0.2223,-0.2223,-0.2213,-0.2136,-0.2136,-0.2127,-0.2179,-0.2094,-0.209,-0.2082,-0.2052,-0.2045,-0.2042,-0.203,-0.2027,-0.2027,-0.2027,-0.2037,-0.1913,-0.1395,-0.1126,-0.0805,-0.0372,-0.0121,0.0,0.0,0.0,0.0,0.0,0.0,0.0,0.0,0.0,0.0,0.0,0.0,0.0,0.0,0.0,0.0,0.0,0.0,0.0,0.0,0.0,0.0,-0.2106,-0.1856,-0.175,-0.1784,-0.2136,-0.2555,-0.2758,-0.3019,-0.3245,-0.3564,-0.3444,-0.3324,-0.3421,-0.3482,-0.3537,-0.3653,-0.3821,-0.3986,-0.4093,-0.4101,-0.4095,-0.4015,-0.4013,-0.4101,-0.4161,-0.4196,-0.4234,-0.4278,-0.4297,-0.4308,-0.4308,-0.4308,-0.4241,-0.4174,-0.4187,-0.4148,-0.4121,-0.4085,-0.412,-0.4226,-0.4244,-0.4249,-0.4249,-0.4249,-0.3897,-0.3262,-0.3007,-0.2642,-0.2258,-0.2258,-0.224,-0.2211,-0.2203,-0.2187,-0.2234,-0.2225,-0.2223,-0.2223,-0.2223,-0.2223,-0.2223,-0.2223,-0.2223,-0.2223,-0.2223,-0.2223,-0.2223,-0.2223,-0.2223,-0.2223,-0.2223,-0.2223,-0.2216,-0.2127,-0.2121,-0.2113,-0.2083,-0.2076,-0.2074,-0.213,-0.2128,-0.2128,-0.2128,-0.2071,-0.2011,-0.1752,-0.1351,-0.0894,-0.0572,-0.0186,0.0,0.0,0.0,0.0,0.0,0.0,0.0,0.0,0.0,0.0,0.0,0.0,0.0,0.0,0.0,0.0,0.0,0.0,0.0,0.0,0.0,0.0,-0.2132,-0.1814,-0.1625,-0.1606,-0.1688,-0.1877,-0.2492,-0.259,-0.28,-0.3463,-0.3681,-0.3782,-0.3845,-0.3907,-0.3903,-0.3959,-0.397,-0.3973,-0.3975,-0.3975,-0.3954,-0.39,-0.3895,-0.3916,0.0,-0.4147,-0.4218,-0.4218,-0.4273,-0.4308,-0.4308,-0.4308,-0.4174,-0.3835,-0.3818,-0.3638,-0.3366,-0.3385,-0.3428,-0.343,-0.3475,-0.3496,-0.3496,-0.3496,-0.3278,-0.2914,-0.2914,-0.2678,-0.2289,-0.2289,-0.2271,-0.2171,-0.2211,-0.2199,-0.2195,-0.2232,-0.2223,-0.2223,-0.2223,-0.2223,-0.2223,-0.2223,-0.2223,-0.2223,-0.2223,-0.2223,-0.2223,-0.2223,-0.2223,-0.2223,-0.2223,-0.2223,-0.2221,-0.2221,-0.222,-0.2211,-0.2114,-0.2108,-0.2099,-0.2069,-0.2128,-0.2128,-0.2128,-0.2089,-0.2108,-0.2108,-0.1514,-0.0982,-0.0582,-0.0191,0.0,0.0,0.0,0.0,0.0,0.0,0.0,0.0,0.0,0.0,0.0,0.0,0.0,0.0,0.0,0.0,0.0,0.0,0.0,0.0,0.0,0.0,-0.2109,-0.1802,-0.1609,-0.1639,-0.1858,-0.2191,-0.2588,-0.285,-0.3124,-0.3637,-0.3535,-0.3447,-0.354,-0.3572,-0.3615,-0.3645,-0.3818,-0.393,-0.3967,-0.394,-0.3911,-0.3892,-0.3889,0.0,0.0,0.0,0.0,-0.4213,-0.4273,-0.4308,-0.4308,-0.4104,-0.3902,-0.3835,-0.3614,-0.345,-0.3343,-0.3402,-0.3449,-0.3477,-0.3494,-0.35,-0.35,-0.3209,-0.3063,-0.2917,-0.2624,-0.24,-0.2319,-0.2319,-0.2301,-0.2274,-0.2264,-0.2248,-0.2226,-0.2196,-0.2185,-0.2181,-0.223,-0.2223,-0.2223,-0.2223,-0.2223,-0.2223,-0.2223,-0.2223,-0.2223,-0.2223,-0.2223,-0.2223,-0.2223,-0.2223,-0.2223,-0.2223,-0.2223,-0.2218,-0.2142,-0.2139,-0.2136,-0.2193,-0.219,-0.219,-0.219,-0.2199,-0.2005,-0.1538,-0.126,-0.085,-0.0255,-0.0063,0.0,0.0,0.0,0.0,0.0,0.0,0.0,0.0,0.0,0.0,0.0,0.0,0.0,0.0,0.0,0.0,0.0,0.0,0.0,0.0,0.0,0.0,-0.2145,-0.1967,-0.1843,-0.1919,-0.2212,-0.2565,-0.2834,-0.3022,-0.3284,-0.3669,-0.3532,-0.3424,-0.3654,-0.3735,-0.3767,-0.3802,-0.3992,-0.4049,-0.4003,-0.3867,-0.3727,-0.3769,-0.3766,-0.3774,0.0,0.0,0.0,-0.418,-0.4126,-0.4104,-0.4104,-0.3768,-0.3506,-0.339,-0.3229,-0.3064,-0.3037,-0.3006,-0.3038,-0.3063,-0.3063,-0.3063,-0.3063,-0.2771,-0.2697,-0.2697,-0.2405,-0.2333,-0.2333,-0.2333,-0.2322,-0.2305,-0.2294,-0.2279,-0.2258,-0.2228,-0.221,-0.2196,-0.2232,-0.2223,-0.2223,-0.2223,-0.2223,-0.2223,-0.2223,-0.2223,-0.2223,-0.2223,-0.2223,-0.2223,-0.2223,-0.2223,-0.2223,-0.2223,-0.2223,-0.2223,-0.2223,-0.2223,-0.2223,-0.2223,-0.2223,-0.2223,-0.2223,-0.2223,-0.1952,-0.1212,-0.1068,-0.0855,-0.0064,0.0,0.0,0.0,0.0,0.0,0.0,0.0,0.0,0.0,0.0,0.0,0.0,0.0,0.0,0.0,0.0,0.0,0.0,0.0,0.0,0.0,0.0,0.0,-0.2197,-0.2216,-0.2302,-0.2305,-0.2591,-0.2989,-0.3176,-0.3219,-0.3332,-0.3621,-0.3676,-0.3827,0.0,0.0,-0.4295,-0.437,-0.4437,-0.433,-0.3962,-0.3693,-0.352,0.0,0.0,0.0,0.0,0.0,0.0,-0.4066,0.0,-0.3768,-0.3768,-0.3367,-0.3049,-0.2681,-0.2718,-0.2613,-0.229,-0.2319,-0.2333,-0.2333,-0.2333,-0.2333,-0.2333,-0.2333,-0.2333,-0.2333,-0.2333,-0.2333,-0.2333,-0.2333,-0.2333,-0.233,-0.2304,-0.2293,-0.2289,-0.2259,-0.2229,-0.22,-0.217,-0.2224,-0.2223,-0.2223,-0.2223,-0.2223,-0.2223,-0.2223,-0.2223,-0.2223,-0.2223,-0.2223,-0.2223,-0.2223,-0.2223,-0.2223,-0.2223,-0.2223,-0.2223,-0.2223,-0.2223,-0.2223,-0.2223,-0.2223,-0.2223,-0.2223,-0.1952,-0.1212,-0.1076,-0.0866,-0.0065,0.0,0.0,0.0,0.0,0.0,0.0,0.0,0.0,0.0,0.0,0.0,0.0,0.0,0.0,0.0,0.0,0.0,0.0,0.0,0.0,0.0,0.0,0.0,-0.2188,-0.2222,-0.2314,-0.2372,-0.2811,-0.3235,-0.3279,-0.3419,-0.3621,-0.3679,-0.3643,-0.376,0.0,0.0,0.0,-0.4425,-0.4279,0.0,-0.3643,-0.3558,0.0,-0.3143,0.0,-0.3194,-0.3207,-0.3317,0.0,0.0,-0.3599,-0.3701,-0.3362,-0.2991,-0.2808,-0.2681,-0.2532,-0.2353,-0.229,-0.2319,-0.2333,-0.2333,-0.2333,-0.2333,-0.2333,-0.2333,-0.2333,-0.2333,-0.2333,-0.2333,-0.2333,-0.2333,-0.2333,-0.2333,-0.2324,-0.2322,-0.2319,-0.229,-0.2274,-0.2263,-0.2233,-0.2192,-0.2223,-0.2223,-0.2223,-0.2223,-0.2223,-0.2223,-0.2223,-0.2223,-0.2223,-0.2223,-0.2223,-0.2223,-0.2223,-0.2223,-0.2223,-0.2223,-0.2223,-0.2223,-0.2223,-0.2223,-0.2223,-0.2223,-0.2223,-0.2223,-0.1952,-0.1212,-0.1068,-0.0856,-0.0065,0.0,0.0,0.0,0.0,0.0,0.0,0.0,0.0,0.0,0.0,0.0,0.0,0.0,0.0,0.0,0.0,0.0,0.0,0.0,0.0,0.0,0.0,0.0,-0.2065,-0.228,-0.2556,-0.2584,-0.3078,-0.3556,-0.3508,-0.3588,-0.367,-0.3643,-0.3746,0.0,-0.4451,-0.4407,0.0,0.0,0.0,0.0,-0.3827,-0.3675,-0.3495,0.0,-0.3081,0.0,-0.2864,-0.3019,-0.3041,0.0,-0.3151,-0.3238,-0.2987,-0.267,-0.2489,-0.252,-0.2344,-0.2297,-0.2309,-0.2324,-0.2333,-0.2333,-0.2333,-0.2333,-0.2333,-0.2333,-0.2333,-0.2333,0.0,-0.2333,-0.2333,-0.2333,-0.2333,-0.2333,-0.2333,-0.2333,-0.2331,-0.2315,-0.2301,-0.2289,-0.2271,-0.2234,-0.2192,-0.2178,-0.2232,-0.2223,-0.2223,-0.2223,-0.2223,-0.2223,-0.2223,-0.2223,-0.2223,-0.2223,-0.2223,-0.2223,-0.2223,-0.2223,-0.2223,-0.2223,-0.2223,-0.2223,-0.2223,-0.2223,-0.2223,-0.2223,-0.1952,-0.1212,-0.107,-0.086,-0.0065,0.0,0.0,0.0,0.0,0.0,0.0,0.0,0.0,0.0,0.0,0.0,0.0,0.0,0.0,0.0,0.0,0.0,0.0,0.0,0.0,0.0,0.0,0.0,-0.1925,-0.2394,-0.2883,-0.2903,-0.3396,-0.3877,-0.3703,-0.3679,-0.3662,-0.361,0.0,-0.429,-0.465,-0.4771,-0.4823,-0.49,0.0,-0.4449,-0.4069,-0.3791,-0.3483,-0.3112,-0.3047,-0.2934,-0.2575,-0.2777,-0.2859,-0.2623,-0.2632,-0.2648,-0.2611,-0.2342,-0.2234,-0.2294,-0.2296,-0.2308,-0.2333,-0.2333,-0.2333,-0.2333,-0.2333,-0.2333,-0.2333,-0.2333,-0.2333,-0.2333,0.0,0.0,-0.2333,-0.2333,-0.2333,-0.2333,-0.2333,-0.2333,-0.2333,-0.2333,-0.2318,-0.2296,-0.2296,-0.2277,-0.2247,-0.2217,-0.2188,-0.2166,-0.2166,-0.2166,-0.2166,-0.2166,-0.2231,-0.2228,-0.2228,-0.2225,-0.2223,-0.2223,-0.2223,-0.2223,-0.2223,-0.2223,-0.2223,-0.2223,-0.2223,-0.2223,-0.2223,-0.2154,-0.1885,-0.1212,-0.1077,-0.0804,-0.0066,0.0,0.0,0.0,0.0,0.0,0.0,0.0,0.0,0.0,0.0,0.0,0.0,0.0,0.0,0.0,0.0,0.0,0.0,0.0,0.0,0.0,0.0,0.0,-0.2255,-0.2575,-0.2951,-0.3245,-0.3574,-0.3824,-0.3695,-0.3679,0.0,0.0,-0.3769,-0.3948,-0.4306,-0.4219,-0.4215,-0.4521,0.0,0.0,0.0,0.0,-0.3135,0.0,0.0,0.0,0.0,0.0,0.0,0.0,0.0,-0.2263,-0.2269,-0.2223,-0.2264,-0.2323,-0.2326,-0.2328,-0.2333,-0.2333,-0.2333,-0.2333,-0.2333,-0.2333,-0.2333,-0.2333,-0.2333,-0.2333,-0.2333,0.0,-0.2333,-0.2333,-0.2333,-0.2333,-0.2333,-0.2333,-0.2333,-0.2333,-0.233,-0.2326,-0.2326,-0.2307,-0.2278,-0.2248,-0.2234,-0.223,-0.223,-0.223,-0.223,-0.223,-0.2211,-0.2192,-0.2192,-0.2173,-0.2223,-0.2223,-0.2223,-0.2223,-0.2223,-0.2223,-0.2223,-0.2223,-0.2223,-0.2223,-0.2223,-0.1952,-0.1548,-0.1144,-0.0808,-0.0471,-0.0067,0.0,0.0,0.0,0.0,0.0,0.0,0.0,0.0,0.0,0.0,0.0,0.0,0.0,0.0,0.0,0.0,0.0,0.0,0.0,0.0,0.0,0.0,0.0,-0.2652,-0.2911,-0.3221,-0.3348,-0.3554,-0.3744,-0.3651,0.0,0.0,0.0,-0.3869,-0.4109,-0.4285,-0.4249,0.0,0.0,0.0,0.0,0.0,0.0,0.0,0.0,0.0,0.0,0.0,0.0,0.0,0.0,0.0,0.0,-0.2222,-0.2266,-0.2232,-0.2331,-0.2333,-0.2333,-0.2333,-0.2333,-0.2333,-0.2333,-0.2333,-0.2333,-0.2333,-0.2333,-0.2333,-0.2333,-0.2333,0.0,-0.2333,-0.2333,-0.2333,-0.2333,-0.2333,-0.2333,-0.2333,-0.2333,-0.2333,-0.2333,-0.2333,-0.2324,-0.2311,-0.2296,-0.2199,-0.2175,-0.2175,-0.2175,-0.2175,-0.2175,-0.2234,-0.2223,-0.2223,-0.2213,-0.2202,-0.2202,-0.2202,-0.2198,-0.2181,-0.2178,-0.2173,-0.2225,-0.2223,-0.2154,-0.1952,-0.175,-0.1414,-0.0875,-0.0606,-0.0404,-0.0067,0.0,0.0,0.0,0.0,0.0,0.0,0.0,0.0,0.0,0.0,0.0,0.0,0.0,0.0,0.0,0.0,0.0,0.0,0.0,0.0,0.0,0.0,0.0,-0.3043,-0.3232,-0.3478,-0.344,-0.3582,-0.3722,-0.361,-0.3646,0.0,-0.364,-0.3911,-0.4102,-0.405,0.0,-0.4065,0.0,-0.3565,0.0,0.0,0.0,0.0,0.0,0.0,0.0,0.0,0.0,0.0,0.0,0.0,0.0,-0.2253,-0.2304,-0.2333,-0.2333,-0.2333,-0.2333,-0.2333,-0.2333,-0.2333,-0.2333,-0.2333,-0.2333,-0.2333,-0.2333,-0.2333,-0.2333,-0.2333,0.0,0.0,-0.2333,-0.2333,-0.2333,-0.2333,-0.2333,-0.2333,-0.2333,-0.2333,-0.2333,-0.2333,-0.2333,-0.2333,-0.2333,-0.2229,-0.2194,-0.2194,-0.2194,-0.2194,-0.2194,-0.219,-0.2255,-0.2255,-0.218,-0.2175,-0.2175,-0.2175,-0.2169,-0.2215,-0.221,-0.2203,-0.2178,-0.2169,-0.1962,-0.169,-0.1484,-0.1144,-0.0606,-0.0471,-0.0269,-0.0067,0.0,0.0,0.0,0.0,0.0,0.0,0.0,0.0,0.0,0.0,0.0,0.0,0.0,0.0,0.0,0.0,0.0,0.0,0.0,0.0,0.0,0.0,0.0,-0.3401,-0.3417,-0.349,-0.3667,-0.3728,-0.367,-0.3602,0.0,-0.3702,-0.3408,-0.3435,-0.3507,-0.3196,-0.3143,-0.3152,-0.3086,-0.2818,-0.2724,0.0,0.0,0.0,0.0,0.0,0.0,0.0,0.0,0.0,0.0,0.0,0.0,0.0,-0.2316,-0.2333,-0.2333,-0.2333,-0.2333,-0.2333,-0.2333,-0.2333,-0.2333,-0.2333,-0.2333,-0.2333,-0.2333,-0.2333,-0.2333,-0.2333,0.0,0.0,-0.2333,-0.2333,-0.2333,-0.2333,-0.2333,-0.2333,-0.2333,-0.2333,-0.2333,-0.2333,-0.2333,-0.2333,-0.2333,-0.233,-0.2324,-0.2324,-0.2324,-0.2324,-0.2324,-0.2307,-0.2286,-0.2286,-0.2266,-0.2175,-0.2175,-0.2175,-0.2175,-0.2171,-0.2171,-0.217,-0.2167,-0.1937,-0.1715,-0.1715,-0.1086,-0.0606,-0.0539,-0.0269,-0.0067,0.0,0.0,0.0,0.0,0.0,0.0,0.0,0.0,0.0,0.0,0.0,0.0,0.0,0.0,0.0,0.0,0.0,0.0,0.0,0.0,0.0,0.0,0.0,0.0,-0.371,-0.3696,-0.3621,-0.3538,-0.3432,-0.3327,-0.3136,0.0,-0.3187,-0.3098,-0.316,-0.3139,-0.2986,-0.2942,-0.2891,-0.268,-0.2546,0.0,-0.2776,0.0,0.0,0.0,0.0,0.0,0.0,0.0,0.0,0.0,0.0,0.0,0.0,-0.2327,-0.2333,-0.2333,-0.2333,-0.2333,-0.2333,-0.2333,-0.2333,-0.2333,-0.2333,-0.2333,-0.2333,-0.2333,-0.2333,-0.2333,-0.2333,0.0,0.0,-0.2333,-0.2333,-0.2333,-0.2333,-0.2333,-0.2333,-0.2333,-0.2333,-0.2333,-0.2333,-0.2333,-0.2333,-0.2333,-0.2333,-0.2333,-0.2333,-0.2333,-0.2333,-0.2333,-0.2324,-0.2316,-0.2316,-0.2307,-0.2225,-0.2225,-0.2225,-0.2293,-0.2277,-0.206,-0.1913,-0.1897,-0.1606,-0.1252,-0.1044,-0.0692,-0.0413,-0.0205,-0.0068,0.0,0.0,0.0,0.0,0.0,0.0,0.0,0.0,0.0,0.0,0.0,0.0,0.0,0.0,0.0,0.0,0.0,0.0,0.0,0.0,0.0,0.0,0.0,0.0,0.0,-0.4077,-0.3875,-0.3618,-0.3379,-0.322,-0.301,0.0,0.0,-0.2795,-0.2766,-0.2808,-0.2829,-0.2676,-0.2695,-0.2583,-0.231,-0.2349,-0.2383,-0.2445,0.0,0.0,0.0,0.0,0.0,0.0,0.0,0.0,0.0,0.0,0.0,0.0,-0.2333,-0.2333,-0.2333,-0.2333,-0.2333,-0.2333,-0.2333,-0.2333,-0.2333,-0.2333,-0.2333,-0.2333,-0.2333,-0.2333,-0.2333,0.0,0.0,0.0,-0.2333,-0.2333,-0.2333,-0.2333,-0.2333,-0.2333,-0.2333,-0.2333,-0.2333,-0.2333,-0.2333,-0.2333,-0.2333,-0.2333,-0.2333,-0.2333,-0.2333,-0.2333,-0.2333,-0.2333,-0.2333,-0.2333,-0.2333,-0.2333,-0.2333,-0.2333,-0.2254,-0.2164,-0.1943,-0.1723,-0.1564,-0.1203,-0.0847,-0.0564,-0.0422,-0.028,-0.0069,0.0,0.0,0.0,0.0,0.0,0.0,0.0,0.0,0.0,0.0,0.0,0.0,0.0,0.0,0.0,0.0,0.0,0.0,0.0,0.0,0.0,0.0,0.0,0.0,0.0,0.0,-0.4394,-0.3902,-0.3377,-0.3377,-0.3096,-0.2823,0.0,0.0,-0.2833,-0.2471,-0.244,-0.2406,-0.2099,-0.2038,-0.2038,-0.1977,-0.1977,-0.1977,-0.1977,0.0,0.0,0.0,0.0,0.0,0.0,0.0,0.0,0.0,0.0,0.0,0.0,-0.2333,-0.2333,-0.2333,-0.2333,-0.2333,-0.2333,-0.2333,-0.2333,-0.2333,-0.2333,-0.2333,-0.2333,-0.2333,-0.2333,0.0,0.0,0.0,0.0,-0.2333,-0.2333,-0.2333,-0.2333,-0.2333,-0.2333,-0.2333,-0.2333,-0.2333,-0.2333,-0.2333,-0.2333,-0.2333,-0.2333,-0.2333,-0.2333,-0.2333,-0.2333,-0.2333,-0.2333,-0.2333,-0.2333,-0.2333,-0.2333,-0.2333,-0.2333,-0.2187,-0.1894,-0.1821,-0.1677,-0.1313,-0.0866,-0.0572,-0.0572,-0.0283,0.0,0.0,0.0,0.0,0.0,0.0,0.0,0.0,0.0,0.0,0.0,0.0,0.0,0.0,0.0,0.0,0.0,0.0,0.0,0.0,0.0,0.0,0.0,0.0,0.0,0.0,0.0,0.0,-0.437,-0.3872,-0.327,-0.3127,-0.2741,-0.2422,-0.221,-0.2224,-0.2178,-0.214,-0.2153,-0.2099,-0.2038,-0.1977,-0.1977,-0.1977,-0.1977,0.0,0.0,0.0,0.0,0.0,0.0,0.0,0.0,0.0,0.0,0.0,0.0,0.0,0.0,-0.2333,-0.2333,-0.2333,-0.2333,-0.2333,-0.2333,-0.2333,-0.2333,-0.2333,-0.2333,-0.2333,-0.2333,-0.2333,0.0,0.0,0.0,0.0,0.0,-0.2333,-0.2333,-0.2333,-0.2333,-0.2333,-0.2333,-0.2333,-0.2333,-0.2333,-0.2333,-0.2333,-0.2333,-0.2333,-0.2333,-0.2333,-0.2333,-0.2333,-0.2333,-0.2333,-0.2333,-0.2333,-0.2333,-0.2333,-0.2333,-0.2333,-0.2114,-0.1895,-0.1822,-0.1385,-0.0948,-0.0803,-0.0436,-0.0218,-0.0218,-0.0072,0.0,0.0,0.0,0.0,0.0,0.0,0.0,0.0,0.0,0.0,0.0,0.0,0.0,0.0,0.0,0.0,0.0,0.0,0.0,0.0,0.0,0.0,0.0,0.0,0.0,0.0,0.0,0.0,-0.4364,-0.383,-0.3125,-0.2972,-0.2537,-0.2165,-0.2005,-0.1948,-0.1951,-0.1958,-0.1959,-0.1956,-0.1944,-0.1952,-0.1959,-0.1959,-0.1969,0.0,0.0,0.0,0.0,0.0,0.0,0.0,0.0,0.0,0.0,0.0,0.0,0.0,0.0,0.0,-0.2333,-0.2333,-0.2333,-0.2333,-0.2333,-0.2333,-0.2333,-0.2333,-0.2333,-0.2333,-0.2333,-0.2333,0.0,0.0,0.0,0.0,0.0,-0.2333,-0.2333,-0.2333,-0.2333,-0.2333,-0.2333,-0.2333,-0.2333,-0.2333,-0.2333,-0.2333,-0.2333,-0.2333,-0.2333,-0.2333,-0.2333,-0.2333,-0.2333,-0.2333,-0.2333,-0.2333,-0.2333,-0.2333,-0.226,-0.2114,-0.1968,-0.175,-0.1385,-0.0948,-0.0584,-0.0438,-0.0146,0.0,0.0,0.0,0.0,0.0,0.0,0.0,0.0,0.0,0.0,0.0,0.0,0.0,0.0,0.0,0.0,0.0,0.0,0.0,0.0,0.0,0.0,0.0,0.0,0.0,0.0,0.0,0.0,0.0,0.0,0.0,0.0,-0.3699,-0.3022,-0.296,-0.2469,-0.1977,-0.1977,-0.1977,0.0,-0.1937,-0.1871,-0.1922,-0.1891,-0.191,-0.1871,-0.1871,0.0,0.0,0.0,0.0,0.0,0.0,0.0,0.0,0.0,0.0,0.0,0.0,0.0,0.0,0.0,0.0,-0.2333,-0.2333,-0.2333,-0.2333,-0.2333,-0.2333,-0.2333,-0.2333,-0.2333,-0.2333,-0.2333,-0.2333,0.0,0.0,0.0,0.0,0.0,-0.2333,-0.2333,-0.2333,-0.2333,-0.2333,-0.2333,-0.2333,-0.2333,-0.2333,-0.2333,-0.2333,-0.2333,-0.2333,-0.2333,-0.2333,-0.2333,-0.2333,-0.2333,-0.2333,-0.2333,-0.2333,-0.2333,-0.2333,-0.2187,-0.1895,-0.175,-0.1531,-0.0802,-0.0584,-0.0438,-0.0073,0.0,0.0,0.0,0.0,0.0,0.0,0.0,0.0,0.0,0.0,0.0,0.0,0.0,0.0,0.0,0.0,0.0,0.0,0.0,0.0,0.0,0.0,0.0,0.0,0.0,0.0,0.0,0.0,0.0,0.0,0.0,0.0,-0.3702,0.0,-0.296,-0.2652,-0.2284,-0.1977,0.0,-0.1977,-0.1967,-0.1937,-0.1871,0.0,0.0,-0.191,-0.1871,0.0,0.0,0.0,0.0,0.0,0.0,0.0,0.0,0.0,0.0,0.0,0.0,0.0,0.0,0.0,0.0,0.0,-0.2333,-0.2333,-0.2333,-0.2333,-0.2333,-0.2333,-0.2333,-0.2333,-0.2333,-0.2333,-0.2333,-0.2333,0.0,0.0,0.0,0.0,-0.2333,-0.2333,-0.2333,-0.2333,-0.2333,-0.2333,-0.2333,-0.2333,-0.2333,-0.2333,-0.2333,-0.2333,-0.2333,-0.2333,-0.2333,-0.2333,-0.2333,-0.2333,-0.2333,-0.2333,-0.2333,-0.2333,-0.2333,-0.2333,-0.2187,-0.1895,-0.1532,-0.124,-0.073,-0.0365,-0.0146,0.0,0.0,0.0,0.0,0.0,0.0,0.0,0.0,0.0,0.0,0.0,0.0,0.0,0.0,0.0,0.0,0.0,0.0,0.0,0.0,0.0,0.0,0.0,0.0,0.0,0.0,0.0,0.0,0.0,0.0,0.0,0.0,0.0,-0.3111,-0.2915,-0.2714,-0.2529,-0.2222,-0.1977,-0.1977,-0.1977,-0.1967,-0.1937,-0.1871,0.0,0.0,0.0,0.0,0.0,0.0,0.0,0.0,0.0,0.0,0.0,0.0,0.0,0.0,0.0,0.0,0.0,0.0,0.0,0.0,0.0,-0.2333,-0.2333,-0.2333,-0.2333,-0.2333,-0.2333,-0.2333,-0.2333,-0.2333,-0.2333,-0.2333,-0.2333,-0.2333,0.0,0.0,0.0,-0.2333,-0.2333,-0.2333,-0.2333,-0.2333,-0.2333,-0.2333,-0.2333,-0.2333,-0.2333,-0.2333,-0.2333,-0.2333,-0.2333,-0.2333,-0.2333,-0.2333,-0.2333,-0.2333,-0.2333,-0.2333,-0.2333,-0.2333,-0.2187,-0.1968,-0.1605,-0.124,-0.0803,-0.0438,-0.0146,0.0,0.0,0.0,0.0,0.0,0.0,0.0,0.0,0.0,0.0,0.0,0.0,0.0,0.0,0.0,0.0,0.0,0.0,0.0,0.0,0.0,0.0,0.0,0.0,0.0,0.0,0.0,0.0,0.0,0.0,0.0,0.0,0.0,0.0,-0.265,-0.2508,-0.2422,-0.2422,-0.2237,-0.199,-0.199,-0.199,-0.1979,-0.1945,-0.1939,0.0,0.0,-0.191,0.0,0.0,0.0,0.0,0.0,0.0,0.0,0.0,0.0,0.0,0.0,0.0,0.0,0.0,0.0,0.0,0.0,0.0,0.0,-0.2333,-0.2333,-0.2333,-0.2333,-0.2333,-0.2333,-0.2333,-0.2333,-0.2333,-0.2333,-0.2333,-0.2333,0.0,0.0,0.0,-0.2333,-0.2333,-0.2333,-0.2333,-0.2333,-0.2333,-0.2333,-0.2333,-0.2333,-0.2333,-0.2333,-0.2333,-0.2333,-0.2333,-0.2333,-0.2333,-0.2333,-0.226,-0.226,-0.226,-0.226,-0.226,-0.226,-0.2041,-0.1677,-0.124,-0.0876,-0.0511,-0.0073,0.0,0.0,0.0,0.0,0.0,0.0,0.0,0.0,0.0,0.0,0.0,0.0,0.0,0.0,0.0,0.0,0.0,0.0,0.0,0.0,0.0,0.0,0.0,0.0,0.0,0.0,0.0,0.0,0.0,0.0,0.0,0.0,0.0,0.0,0.0,-0.2634,-0.2375,-0.2178,-0.2178,-0.2114,-0.2114,-0.2114,-0.2114,-0.2035,-0.1981,0.0,0.0,0.0,-0.191,-0.1871,0.0,0.0,0.0,0.0,0.0,0.0,0.0,0.0,0.0,0.0,0.0,0.0,0.0,0.0,0.0,0.0,0.0,0.0,-0.2333,-0.2333,-0.2333,-0.2333,-0.2333,-0.2333,-0.2333,-0.2333,-0.2333,-0.2333,-0.2333,-0.2333,0.0,0.0,-0.2333,-0.2333,-0.2333,-0.2333,-0.2333,-0.2333,-0.2333,-0.2333,-0.2333,-0.2333,-0.2333,-0.2333,-0.2333,-0.2333,-0.2333,-0.2333,-0.2333,-0.2333,-0.2114,-0.1895,-0.1895,-0.2114,-0.226,-0.1968,-0.1822,-0.1604,-0.0875,-0.0657,-0.0511,-0.0073,0.0,0.0,0.0,0.0,0.0,0.0,0.0,0.0,0.0,0.0,0.0,0.0,0.0,0.0,0.0,0.0,0.0,0.0,0.0,0.0,0.0,0.0,0.0,0.0,0.0,0.0,0.0,0.0,0.0,0.0,0.0,0.0,0.0,0.0,0.0,-0.241,-0.2219,-0.2093,-0.2175,-0.2154,-0.2128,-0.2128,-0.2128,-0.212,-0.203,-0.2023,0.0,0.0,0.0,0.0,0.0,0.0,0.0,0.0,0.0,0.0,0.0,0.0,0.0,0.0,0.0,0.0,0.0,0.0,0.0,0.0,0.0,0.0,-0.2333,-0.2333,-0.2333,-0.2333,-0.2333,-0.2333,-0.2333,-0.2333,-0.2333,-0.2333,-0.2333,-0.2333,-0.2333,0.0,-0.2333,-0.2333,-0.2333,-0.2333,-0.2333,-0.2333,-0.2333,-0.2333,-0.2333,-0.2333,-0.2333,-0.2333,-0.2333,-0.2333,-0.2333,-0.2187,-0.2041,-0.2041,-0.175,-0.1459,-0.1459,-0.1605,-0.1678,-0.1532,-0.1313,-0.1094,-0.0657,-0.0438,-0.0219,-0.0073,0.0,0.0,0.0,0.0,0.0,0.0,0.0,0.0,0.0,0.0,0.0,0.0,0.0,0.0,0.0,0.0,0.0,0.0,0.0,0.0,0.0,0.0,0.0,0.0,0.0,0.0,0.0,0.0,0.0,0.0,0.0,0.0,0.0,0.0,0.0,-0.2179,-0.212,-0.2125,-0.2216,-0.2186,-0.2151,-0.2151,-0.2151,-0.2148,-0.2076,-0.2075,0.0,0.0,0.0,0.0,0.0,0.0,0.0,0.0,0.0,0.0,0.0,0.0,0.0,0.0,0.0,0.0,0.0,0.0,0.0,0.0,0.0,-0.2326,-0.2333,-0.2333,-0.2333,-0.2333,-0.2333,-0.2333,-0.2333,-0.2333,-0.2333,-0.2333,-0.2333,-0.2333,-0.2333,-0.2333,-0.2333,-0.2333,-0.2333,-0.2333,-0.2333,-0.2333,-0.2333,-0.2333,-0.2333,-0.2333,-0.2333,-0.2333,-0.226,-0.2187,-0.2187,-0.1968,-0.1677,-0.1677,-0.1386,-0.1095,-0.1095,-0.1022,-0.0949,-0.1022,-0.0803,-0.0584,-0.0511,-0.0219,0.0,0.0,0.0,0.0,0.0,0.0,0.0,0.0,0.0,0.0,0.0,0.0,0.0,0.0,0.0,0.0,0.0,0.0,0.0,0.0,0.0,0.0,0.0,0.0,0.0,0.0,0.0,0.0,0.0,0.0,0.0,0.0,0.0,0.0,0.0,0.0,0.0,-0.2218,-0.2218,-0.2218,-0.2221,-0.2218,-0.2216,-0.2216,-0.2216,-0.2207,-0.2112,-0.2106,-0.2097,0.0,0.0,0.0,0.0,0.0,0.0,0.0,0.0,0.0,0.0,0.0,0.0,0.0,0.0,0.0,0.0,0.0,0.0,0.0,0.0,0.0,-0.2333,-0.2333,-0.2333,-0.2333,-0.2333,-0.2333,-0.2333,-0.2333,-0.2333,-0.2333,-0.2333,-0.2333,-0.2333,-0.2333,-0.2333,-0.2333,-0.2333,-0.2333,-0.2333,-0.2333,-0.2333,-0.2333,-0.2333,-0.2333,-0.2333,-0.2333,-0.2114,-0.1822,-0.1822,-0.1532,-0.1241,-0.1241,-0.0949,-0.0657,-0.0657,-0.0365,-0.0146,-0.0511,-0.0657,-0.0511,-0.0146,0.0,0.0,0.0,0.0,0.0,0.0,0.0,0.0,0.0,0.0,0.0,0.0,0.0,0.0,0.0,0.0,0.0,0.0,0.0,0.0,0.0,0.0,0.0,0.0,0.0,0.0,0.0,0.0,0.0,0.0,0.0,0.0,0.0,0.0,0.0,0.0,0.0,0.0,-0.2223,-0.2223,-0.2223,-0.2223,-0.2223,-0.2223,-0.2223,-0.2223,-0.2224,-0.2163,-0.2151,-0.2128,0.0,0.0,0.0,0.0,0.0,0.0,0.0,0.0,0.0,0.0,0.0,0.0,0.0,0.0,0.0,0.0,0.0,0.0,0.0,0.0,0.0,-0.2305,-0.2307,-0.2315,-0.2333,-0.2333,-0.2333,-0.2333,-0.2333,-0.2333,-0.2333,-0.2333,-0.2333,-0.2333,-0.2333,-0.2333,-0.2333,-0.2333,-0.2333,-0.2333,-0.2333,-0.2333,-0.2333,-0.2333,-0.2187,-0.1968,-0.1968,-0.175,-0.1459,-0.1459,-0.1167,-0.0803,-0.0803,-0.0511,-0.0219,-0.0219,-0.0146,0.0,-0.0219,-0.0219,-0.0219,0.0,0.0,0.0,0.0,0.0,0.0,0.0,0.0,0.0,0.0,0.0,0.0,0.0,0.0,0.0,0.0,0.0,0.0,0.0,0.0,0.0,0.0,0.0,0.0,0.0,0.0,0.0,0.0,0.0,0.0,0.0,0.0,0.0,0.0,0.0,0.0,0.0,0.0,0.0,-0.2143,-0.214,-0.214,-0.214,-0.214,-0.2143,-0.222,-0.2214,-0.2148,-0.218,-0.2169,-0.2213,-0.2114,0.0,0.0,0.0,0.0,0.0,0.0,0.0,0.0,0.0,0.0,0.0,0.0,0.0,0.0,0.0,0.0,0.0,0.0,0.0,0.0,0.0,-0.2277,-0.2286,-0.2233,-0.2315,-0.2319,-0.2319,-0.2328,-0.2333,-0.2333,-0.2333,-0.2333,-0.2333,-0.2333,-0.2333,-0.2333,-0.2333,-0.2333,-0.2333,-0.2333,-0.2333,-0.226,-0.2187,-0.1968,-0.175,-0.1677,-0.1313,-0.1022,-0.1022,-0.073,-0.0438,-0.0438,-0.0219,0.0,0.0,0.0,0.0,0.0,0.0,0.0,0.0,0.0,0.0,0.0,0.0,0.0,0.0,0.0,0.0,0.0,0.0,0.0,0.0,0.0,0.0,0.0,0.0,0.0,0.0,0.0,0.0,0.0,0.0,0.0,0.0,0.0,0.0,0.0,0.0,0.0,0.0,0.0,0.0,0.0,0.0,0.0,0.0,0.0,0.0,-0.2117,-0.2109,-0.2109,-0.2109,-0.2109,-0.2117,-0.2214,-0.2131,-0.2117,-0.2216,-0.2223,-0.2213,-0.2116,-0.2135,0.0,0.0,0.0,0.0,0.0,0.0,0.0,0.0,0.0,0.0,0.0,0.0,0.0,0.0,0.0,0.0,0.0,0.0,0.0,0.0,-0.2175,-0.2175,-0.2175,-0.2275,-0.229,-0.229,-0.2319,-0.2333,-0.2333,-0.2333,-0.2333,-0.2333,-0.2333,-0.2333,-0.2333,-0.2333,-0.2333,-0.2333,-0.226,-0.226,-0.226,-0.1895,-0.1822,-0.175,-0.1313,-0.0949,-0.0584,-0.0584,-0.0292,0.0,0.0,0.0,0.0,0.0,0.0,0.0,0.0,0.0,0.0,0.0,0.0,0.0,0.0,0.0,0.0,0.0,0.0,0.0,0.0,0.0,0.0,0.0,0.0,0.0,0.0,0.0,0.0,0.0,0.0,0.0,0.0,0.0,0.0,0.0,0.0,0.0,0.0,0.0,0.0,0.0,0.0,0.0,0.0,0.0,0.0,0.0,0.0,0.0,-0.2117,-0.2109,-0.2109,-0.2109,-0.2109,-0.2117,-0.2214,-0.2131,-0.2112,-0.2121,-0.2157,-0.2177,-0.2147,0.0,0.0,0.0,0.0,0.0,0.0,0.0,0.0,0.0,0.0,0.0,0.0,0.0,0.0,0.0,0.0,0.0,0.0,0.0,0.0,0.0,-0.2214,-0.2223,-0.2175,-0.2255,-0.2259,-0.2259,-0.2289,-0.2313,-0.2333,-0.2333,-0.2333,-0.2333,-0.2333,-0.2333,-0.2333,-0.2333,-0.2333,-0.226,-0.2041,-0.1968,-0.1895,-0.1532,-0.1167,-0.0948,-0.0803,-0.0511,-0.0146,-0.0146,-0.0073,0.0,0.0,0.0,0.0,0.0,0.0,0.0,0.0,0.0,0.0,0.0,0.0,0.0,0.0,0.0,0.0,0.0,0.0,0.0,0.0,0.0,0.0,0.0,0.0,0.0,0.0,0.0,0.0,0.0,0.0,0.0,0.0,0.0,0.0,0.0,0.0,0.0,0.0,0.0,0.0,0.0,0.0,0.0,0.0,0.0,0.0,0.0,0.0,0.0,-0.2102,-0.2091,-0.2089,-0.2076,-0.2082,-0.2095,-0.218,0.0,0.0,0.0,-0.2139,-0.2176,-0.2225,0.0,0.0,0.0,0.0,0.0,0.0,0.0,0.0,0.0,0.0,0.0,0.0,0.0,0.0,0.0,0.0,0.0,0.0,0.0,0.0,0.0,-0.2181,-0.2191,-0.2208,-0.2221,-0.2228,-0.2228,-0.2259,-0.2288,-0.2316,-0.2327,-0.2333,-0.2333,-0.2333,-0.2333,-0.226,-0.2187,-0.2114,-0.2041,-0.1677,-0.1532,-0.1532,-0.1095,-0.0803,-0.0584,-0.0438,-0.0219,0.0,0.0,0.0,0.0,0.0,0.0,0.0,0.0,0.0,0.0,0.0,0.0,0.0,0.0,0.0,0.0,0.0,0.0,0.0,0.0,0.0,0.0,0.0,0.0,0.0,0.0,0.0,0.0,0.0,0.0,0.0,0.0,0.0,0.0,0.0,0.0,0.0,0.0,0.0,0.0,0.0,0.0,0.0,0.0,0.0,0.0,0.0,0.0,0.0,0.0,0.0,0.0,-0.2145,-0.2128,-0.2057,-0.2026,-0.2044,0.0,-0.2128,-0.2175,-0.22,-0.2141,0.0,-0.2223,0.0,0.0,0.0,0.0,0.0,0.0,0.0,0.0,0.0,0.0,0.0,0.0,0.0,0.0,0.0,0.0,0.0,0.0,0.0,0.0,0.0,0.0,-0.2223,-0.2223,-0.2223,-0.2183,-0.2196,0.0,-0.2226,-0.2256,-0.2283,-0.2315,-0.233,-0.2333,-0.2333,-0.226,-0.226,-0.1895,-0.175,-0.1677,-0.1313,-0.1168,-0.1095,-0.073,-0.0511,-0.0511,-0.0146,0.0,0.0,0.0,0.0,0.0,0.0,0.0,0.0,0.0,0.0,0.0,0.0,0.0,0.0,0.0,0.0,0.0,0.0,0.0,0.0,0.0,0.0,0.0,0.0,0.0,0.0,0.0,0.0,0.0,0.0,0.0,0.0,0.0,0.0,0.0,0.0,0.0,0.0,0.0,0.0,0.0,0.0,0.0,0.0,0.0,0.0,0.0,0.0,0.0,0.0,0.0,0.0,0.0,-0.2145,-0.2128,0.0,-0.2026,-0.206,-0.2093,-0.2069,-0.2093,-0.2109,-0.2072,0.0,0.0,0.0,0.0,0.0,0.0,0.0,0.0,0.0,0.0,0.0,0.0,0.0,0.0,0.0,0.0,0.0,0.0,0.0,0.0,0.0,0.0,0.0,-0.2223,-0.2223,-0.2223,-0.2223,-0.2228,-0.2232,0.0,-0.2195,-0.2214,-0.2221,-0.2275,-0.2312,-0.2333,-0.2333,-0.2187,-0.1895,-0.1822,-0.1604,-0.1313,-0.0876,-0.073,-0.0657,-0.0292,-0.0146,-0.0146,0.0,0.0,0.0,0.0,0.0,0.0,0.0,0.0,0.0,0.0,0.0,0.0,0.0,0.0,0.0,0.0,0.0,0.0,0.0,0.0,0.0,0.0,0.0,0.0,0.0,0.0,0.0,0.0,0.0,0.0,0.0,0.0,0.0,0.0,0.0,0.0,0.0,0.0,0.0,0.0,0.0,0.0,0.0,0.0,0.0,0.0,0.0,0.0,0.0,0.0,0.0,0.0,0.0,0.0,-0.2141,-0.2107,0.0,-0.2003,0.0,-0.2061,-0.2046,-0.2065,-0.2079,0.0,0.0,0.0,0.0,0.0,0.0,0.0,0.0,0.0,0.0,0.0,0.0,0.0,0.0,0.0,0.0,0.0,0.0,0.0,0.0,0.0,0.0,-0.2223,-0.2223,-0.2223,-0.2223,-0.2223,-0.2223,-0.2223,-0.2223,-0.2223,-0.217,-0.2187,-0.2202,-0.2263,-0.2235,-0.2041,-0.2041,-0.1822,-0.1532,-0.1313,-0.1094,-0.0876,-0.0438,-0.0292,-0.0292,-0.0073,0.0,0.0,0.0,0.0,0.0,0.0,0.0,0.0,0.0,0.0,0.0,0.0,0.0,0.0,0.0,0.0,0.0,0.0,0.0,0.0,0.0,0.0,0.0,0.0,0.0,0.0,0.0,0.0,0.0,0.0,0.0,0.0,0.0,0.0,0.0,0.0,0.0,0.0,0.0,0.0,0.0,0.0,0.0,0.0,0.0,0.0,0.0,0.0,0.0,0.0,0.0,0.0,0.0,0.0,0.0,0.0,-0.2065,-0.2014,-0.197,-0.1975,-0.1997,0.0,-0.2019,-0.2038,-0.2049,0.0,0.0,0.0,0.0,0.0,0.0,0.0,0.0,0.0,0.0,0.0,0.0,0.0,0.0,0.0,0.0,0.0,0.0,0.0,0.0,0.0,-0.2223,-0.2223,-0.2223,-0.2223,-0.2223,-0.2223,-0.2223,-0.2223,-0.2223,-0.2223,-0.2223,-0.217,-0.2133,-0.2182,-0.2078,-0.1743,-0.1743,-0.1455,-0.1095,-0.073,-0.0584,-0.0438,-0.0146,0.0,0.0,0.0,0.0,0.0,0.0,0.0,0.0,0.0,0.0,0.0,0.0,0.0,0.0,0.0,0.0,0.0,0.0,0.0,0.0,0.0,0.0,0.0,0.0,0.0,0.0,0.0,0.0,0.0,0.0,0.0,0.0,0.0,0.0,0.0,0.0,0.0,0.0,0.0,0.0,0.0,0.0,0.0,0.0,0.0,0.0,0.0,0.0,0.0,0.0,0.0,0.0,0.0,0.0,0.0,0.0,0.0,0.0,0.0,-0.2039,0.0,-0.1943,0.0,-0.1997,-0.2019,0.0,0.0,0.0,0.0,0.0,0.0,0.0,0.0,0.0,0.0,0.0,0.0,0.0,0.0,0.0,0.0,0.0,0.0,0.0,0.0,0.0,0.0,0.0,0.0,-0.2223,-0.2223,-0.2223,-0.2223,-0.2223,-0.2223,-0.2223,-0.2223,-0.2223,-0.2223,-0.2223,-0.2035,-0.1788,-0.1795,-0.1752,-0.1722,-0.1435,-0.1083,-0.0657,-0.0657,-0.0365,-0.0073,0.0,0.0,0.0,0.0,0.0,0.0,0.0,0.0,0.0,0.0,0.0,0.0,0.0,0.0,0.0,0.0,0.0,0.0,0.0,0.0,0.0,0.0,0.0,0.0,0.0,0.0,0.0,0.0,0.0,0.0,0.0,0.0,0.0,0.0,0.0,0.0,0.0,0.0,0.0,0.0,0.0,0.0,0.0,0.0,0.0,0.0,0.0,0.0,0.0,0.0,0.0,0.0,0.0,0.0,0.0,0.0,0.0,0.0,0.0,0.0,-0.197,-0.1937,-0.1934,0.0,-0.1985,-0.2023,-0.2039,0.0,0.0,0.0,0.0,0.0,0.0,0.0,0.0,0.0,0.0,0.0,0.0,0.0,0.0,0.0,0.0,0.0,0.0,0.0,0.0,0.0,0.0,-0.2223,-0.2223,-0.2223,-0.2223,-0.2223,-0.2223,-0.2223,-0.2223,-0.2223,-0.2087,-0.1885,-0.1885,-0.1688,-0.1358,-0.1155,-0.1035,-0.1062,-0.092,-0.0642,-0.0289,-0.0289,-0.0145,0.0,0.0,0.0,0.0,0.0,0.0,0.0,0.0,0.0,0.0,0.0,0.0,0.0,0.0,0.0,0.0,0.0,0.0,0.0,0.0,0.0,0.0,0.0,0.0,0.0,0.0,0.0,0.0,0.0,0.0,0.0,0.0,0.0,0.0,0.0,0.0,0.0,0.0,0.0,0.0,0.0,0.0,0.0,0.0,0.0,0.0,0.0,0.0,0.0,0.0,0.0,0.0,0.0,0.0,0.0,0.0,0.0,0.0,0.0,0.0,0.0,0.0,0.0,-0.1943,-0.1943,-0.1986,-0.2035,0.0,0.0,0.0,0.0,0.0,0.0,0.0,0.0,0.0,0.0,0.0,0.0,0.0,0.0,0.0,0.0,0.0,0.0,0.0,0.0,0.0,0.0,0.0,-0.2223,-0.2223,-0.2223,-0.2223,-0.2223,-0.2223,-0.2223,-0.2223,-0.2087,-0.1885,-0.1481,-0.1481,-0.1279,-0.0943,-0.0606,-0.0477,-0.0416,-0.0418,-0.0282,0.0,0.0,0.0,0.0,0.0,0.0,0.0,0.0,0.0,0.0,0.0,0.0,0.0,0.0,0.0,0.0,0.0,0.0,0.0,0.0,0.0,0.0,0.0,0.0,0.0,0.0,0.0,0.0,0.0,0.0,0.0,0.0,0.0,0.0,0.0,0.0,0.0,0.0,0.0,0.0,0.0,0.0,0.0,0.0,0.0,0.0,0.0,0.0,0.0,0.0,0.0,0.0,0.0,0.0,0.0,0.0,0.0,0.0,0.0,0.0,0.0,0.0,0.0,0.0,0.0,-0.1951,0.0,-0.1974,-0.2018,0.0,0.0,0.0,0.0,0.0,0.0,0.0,0.0,0.0,0.0,0.0,0.0,0.0,0.0,0.0,0.0,0.0,0.0,0.0,0.0,0.0,0.0,0.0,0.0,-0.2223,-0.2223,-0.2223,-0.2223,-0.2223,-0.2223,-0.2223,-0.2223,-0.1818,-0.1481,-0.1144,-0.1144,-0.0943,-0.0539,-0.0539,-0.0337,0.0,0.0,0.0,0.0,0.0,0.0,0.0,0.0,0.0,0.0,0.0,0.0,0.0,0.0,0.0,0.0,0.0,0.0,0.0,0.0,0.0,0.0,0.0,0.0,0.0,0.0,0.0,0.0,0.0,0.0,0.0,0.0,0.0,0.0,0.0,0.0,0.0,0.0,0.0,0.0,0.0,0.0,0.0,0.0,0.0,0.0,0.0,0.0,0.0,0.0,0.0,0.0,0.0,0.0,0.0,0.0,0.0,0.0,0.0,0.0,0.0,0.0,0.0,0.0,0.0,0.0,0.0,0.0,0.0,0.0,-0.2027,-0.2063,0.0,0.0,0.0,0.0,0.0,0.0,0.0,0.0,0.0,0.0,0.0,0.0,0.0,0.0,0.0,0.0,0.0,0.0,0.0,0.0,0.0,0.0,0.0,0.0,0.0,-0.2125,-0.2125,-0.2125,-0.2125,-0.2144,-0.2087,-0.1818,-0.1481,-0.1077,-0.0741,-0.0741,-0.0539,-0.0202,-0.0202,-0.0135,0.0,0.0,0.0,0.0,0.0,0.0,0.0,0.0,0.0,0.0,0.0,0.0,0.0,0.0,0.0,0.0,0.0,0.0,0.0,0.0,0.0,0.0,0.0,0.0,0.0,0.0,0.0,0.0,0.0,0.0,0.0,0.0,0.0,0.0,0.0,0.0,0.0,0.0,0.0,0.0,0.0,0.0,0.0,0.0,0.0,0.0,0.0,0.0,0.0,0.0,0.0,0.0,0.0,0.0,0.0,0.0,0.0,0.0,0.0,0.0,0.0,0.0,0.0,0.0,0.0,0.0,0.0,-0.2042,0.0,0.0,0.0,0.0,0.0,0.0,0.0,0.0,0.0,0.0,0.0,0.0,0.0,0.0,0.0,0.0,0.0,0.0,0.0,0.0,0.0,0.0,0.0,0.0,0.0,0.0,0.0,0.0,0.0,-0.2094,-0.2094,-0.2033,-0.1911,-0.1995,-0.1741,-0.1212,-0.101,-0.0741,-0.0337,-0.0337,-0.0202,0.0,0.0,0.0,0.0,0.0,0.0,0.0,0.0,0.0,0.0,0.0,0.0,0.0,0.0,0.0,0.0,0.0,0.0,0.0,0.0,0.0,0.0,0.0,0.0,0.0,0.0,0.0,0.0,0.0,0.0,0.0,0.0,0.0,0.0,0.0,0.0,0.0,0.0,0.0,0.0,0.0,0.0,0.0,0.0,0.0,0.0,0.0,0.0,0.0,0.0,0.0,0.0,0.0,0.0,0.0,0.0,0.0,0.0,0.0,0.0,0.0,0.0,0.0,0.0,0.0,0.0,0.0,0.0,0.0,0.0,0.0,0.0,0.0,0.0,0.0,0.0,0.0,0.0,0.0,0.0,0.0,0.0,0.0,0.0,0.0,0.0,0.0,0.0,0.0,0.0,0.0,0.0,0.0,0.0,0.0,0.0,0.0,0.0,0.0,-0.2127,-0.2127,-0.2063,-0.1947,-0.1581,-0.1582,-0.1194,-0.0538,-0.0471,-0.0337,0.0,0.0,0.0,0.0,0.0,0.0,0.0,0.0,0.0,0.0,0.0,0.0,0.0,0.0,0.0,0.0,0.0,0.0,0.0,0.0,0.0,0.0,0.0,0.0,0.0,0.0,0.0,0.0,0.0,0.0,0.0,0.0,0.0,0.0,0.0,0.0,0.0,0.0,0.0,0.0,0.0,0.0,0.0,0.0,0.0,0.0,0.0,0.0,0.0,0.0,0.0,0.0,0.0,0.0,0.0,0.0,0.0,0.0,0.0,0.0,0.0,0.0,0.0,0.0,0.0,0.0,0.0,0.0,0.0,0.0,0.0,0.0,0.0,-0.2199,0.0,0.0,0.0,0.0,0.0,0.0,0.0,0.0,0.0,0.0,0.0,0.0,0.0,0.0,0.0,0.0,0.0,0.0,0.0,0.0,0.0,0.0,0.0,0.0,0.0,0.0,0.0,-0.2044,-0.2031,-0.2031,-0.1777,-0.1541,-0.1251,-0.0988,-0.073,-0.0471,-0.0269,-0.0067,0.0,0.0,0.0,0.0,0.0,0.0,0.0,0.0,0.0,0.0,0.0,0.0,0.0,0.0,0.0,0.0,0.0,0.0,0.0,0.0,0.0,0.0,0.0,0.0,0.0,0.0,0.0,0.0,0.0,0.0,0.0,0.0,0.0,0.0,0.0,0.0,0.0,0.0,0.0,0.0,0.0,0.0,0.0,0.0,0.0,0.0,0.0,0.0,0.0,0.0,0.0,0.0,0.0,0.0,0.0,0.0,0.0,0.0,0.0,0.0,0.0,0.0,0.0,0.0,0.0,0.0,0.0,0.0,0.0,0.0,0.0,0.0,0.0,-0.2192,-0.2192,-0.2189,0.0,0.0,0.0,-0.2119,-0.2109,0.0,0.0,0.0,0.0,0.0,0.0,0.0,0.0,0.0,0.0,0.0,0.0,0.0,0.0,0.0,0.0,0.0,0.0,0.0,-0.2026,-0.2011,-0.1939,-0.1814,-0.15,-0.1137,-0.0841,-0.0652,-0.0461,-0.0267,-0.0067,0.0,0.0,0.0,0.0,0.0,0.0,0.0,0.0,0.0,0.0,0.0,0.0,0.0,0.0,0.0,0.0,0.0,0.0,0.0,0.0,0.0,0.0,0.0,0.0,0.0,0.0,0.0,0.0,0.0,0.0,0.0,0.0,0.0,0.0,0.0,0.0,0.0,0.0,0.0,0.0,0.0,0.0,0.0,0.0,0.0,0.0,0.0,0.0,0.0,0.0,0.0,0.0,0.0,0.0,0.0,0.0,0.0,0.0,0.0,0.0,0.0,0.0,0.0,0.0,0.0,0.0,0.0,0.0,0.0,0.0,0.0,0.0,0.0,0.0,-0.2175,-0.2175,-0.2169,0.0,0.0,0.0,-0.2128,-0.2112,-0.2101,0.0,0.0,0.0,0.0,0.0,0.0,0.0,0.0,0.0,0.0,0.0,0.0,0.0,0.0,0.0,0.0,-0.1977,-0.1977,-0.1977,-0.1915,-0.173,-0.142,-0.1111,-0.0808,-0.0442,-0.0449,-0.0325,0.0,0.0,0.0,0.0,0.0,0.0,0.0,0.0,0.0,0.0,0.0,0.0,0.0,0.0,0.0,0.0,0.0,0.0,0.0,0.0,0.0,0.0,0.0,0.0,0.0,0.0,0.0,0.0,0.0,0.0,0.0,0.0,0.0,0.0,0.0,0.0,0.0,0.0,0.0,0.0,0.0,0.0,0.0,0.0,0.0,0.0,0.0,0.0,0.0,0.0,0.0,0.0,0.0,0.0,0.0,0.0,0.0,0.0,0.0,0.0,0.0,0.0,0.0,0.0,0.0,0.0,0.0,0.0,0.0,0.0,0.0,0.0,0.0,0.0,0.0,0.0,0.0,0.0,0.0,0.0,0.0,0.0,-0.2154,-0.2127,-0.2101,0.0,0.0,0.0,0.0,0.0,0.0,0.0,0.0,0.0,0.0,0.0,0.0,0.0,0.0,0.0,0.0,-0.1977,-0.1915,-0.1606,-0.1358,-0.105,-0.0741,-0.0617,-0.0435,-0.0126,-0.0128,-0.0065,0.0,0.0,0.0,0.0,0.0,0.0,0.0,0.0,0.0,0.0,0.0,0.0,0.0,0.0,0.0,0.0,0.0,0.0,0.0,0.0,0.0,0.0,0.0,0.0,0.0,0.0,0.0,0.0,0.0,0.0,0.0,0.0,0.0,0.0,0.0,0.0,0.0,0.0,0.0,0.0,0.0,0.0,0.0,0.0,0.0,0.0,0.0,0.0,0.0,0.0,0.0,0.0,0.0,0.0,0.0,0.0,0.0,0.0,0.0,0.0,0.0,0.0,0.0,0.0,0.0,0.0,0.0,0.0,0.0,0.0,0.0,0.0,0.0,0.0,0.0,0.0,0.0,0.0,0.0,-0.2271,0.0,0.0,0.0,-0.2165,-0.2146,0.0,0.0,0.0,0.0,0.0,0.0,0.0,0.0,0.0,0.0,0.0,0.0,0.0,0.0,0.0,0.0,-0.1865,-0.1628,-0.1261,-0.0941,-0.0687,-0.05,-0.0372,-0.0186,0.0,0.0,0.0,0.0,0.0,0.0,0.0,0.0,0.0,0.0,0.0,0.0,0.0,0.0,0.0,0.0,0.0,0.0,0.0,0.0,0.0,0.0,0.0,0.0,0.0,0.0,0.0,0.0,0.0,0.0,0.0,0.0,0.0,0.0,0.0,0.0,0.0,0.0,0.0,0.0,0.0,0.0,0.0,0.0,0.0,0.0,0.0,0.0,0.0,0.0,0.0,0.0,0.0,0.0,0.0,0.0,0.0,0.0,0.0,0.0,0.0,0.0,0.0,0.0,0.0,0.0,0.0,0.0,0.0,0.0,0.0,0.0,0.0,0.0,0.0,0.0,0.0,0.0,0.0,0.0,0.0,0.0,0.0,0.0,-0.2278,0.0,0.0,0.0,0.0,0.0,0.0,0.0,0.0,0.0,0.0,0.0,0.0,0.0,0.0,0.0,0.0,0.0,0.0,0.0,-0.1696,-0.14,-0.116,-0.0702,-0.0507,-0.0506,-0.0187,0.0,0.0,0.0,0.0,0.0,0.0,0.0,0.0,0.0,0.0,0.0,0.0,0.0,0.0,0.0,0.0,0.0,0.0,0.0,0.0,0.0,0.0,0.0,0.0,0.0,0.0,0.0,0.0,0.0,0.0,0.0,0.0,0.0,0.0,0.0,0.0,0.0,0.0,0.0,0.0,0.0,0.0,0.0,0.0,0.0,0.0,0.0,0.0,0.0,0.0,0.0,0.0,0.0,0.0,0.0,0.0,0.0,0.0,0.0,0.0,0.0,0.0,0.0,0.0,0.0,0.0,0.0,0.0,0.0,0.0,0.0,0.0,0.0,0.0,0.0,0.0,0.0,0.0,0.0,0.0,0.0,0.0,0.0,0.0,-0.233,0.0,0.0,0.0,0.0,0.0,0.0,0.0,0.0,0.0,0.0,0.0,0.0,0.0,0.0,0.0,0.0,0.0,0.0,0.0,0.0,0.0,-0.1545,-0.1547,-0.0902,-0.0512,-0.0506,-0.0189,0.0,0.0,0.0,0.0,0.0,0.0,0.0,0.0,0.0,0.0,0.0,0.0,0.0,0.0,0.0,0.0,0.0,0.0,0.0,0.0,0.0,0.0,0.0,0.0,0.0,0.0,0.0,0.0,0.0,0.0,0.0,0.0,0.0,0.0,0.0,0.0,0.0,0.0,0.0,0.0,0.0,0.0,0.0,0.0,0.0,0.0,0.0,0.0,0.0,0.0,0.0,0.0,0.0,0.0,0.0,0.0,0.0,0.0,0.0,0.0,0.0,0.0,0.0,0.0,0.0,0.0,0.0,0.0,0.0,0.0,0.0,0.0,0.0,0.0,0.0,0.0,0.0,0.0,0.0,0.0,0.0,0.0,0.0,0.0,0.0,0.0,-0.2315,0.0,-0.2224,0.0,0.0,0.0,0.0,0.0,0.0,0.0,0.0,0.0,0.0,0.0,0.0,0.0,0.0,0.0,0.0,0.0,0.0,0.0,0.0,-0.0721,-0.0513,-0.0384,-0.019,0.0,0.0,0.0,0.0,0.0,0.0,0.0,0.0,0.0,0.0,0.0,0.0,0.0,0.0,0.0,0.0,0.0,0.0,0.0,0.0,0.0,0.0,0.0,0.0,0.0,0.0,0.0,0.0,0.0,0.0,0.0,0.0,0.0,0.0,0.0,0.0,0.0,0.0,0.0,0.0,0.0,0.0,0.0,0.0,0.0,0.0,0.0,0.0,0.0,0.0,0.0,0.0,0.0,0.0,0.0,0.0,0.0,0.0,0.0,0.0,0.0,0.0,0.0,0.0,0.0,0.0,0.0,0.0,0.0,0.0,0.0,0.0,0.0,0.0,0.0,0.0,0.0,0.0,0.0,-0.2324,0.0,0.0,0.0,0.0,0.0,0.0,0.0,0.0,0.0,0.0,0.0,0.0,0.0,0.0,0.0,0.0,0.0,0.0,0.0,0.0,0.0,0.0,0.0,0.0,0.0,0.0,0.0,-0.1294,-0.1068,-0.0711,-0.0581,-0.0319,0.0,0.0,0.0,0.0,0.0,0.0,0.0,0.0,0.0,0.0,0.0,0.0,0.0,0.0,0.0,0.0,0.0,0.0,0.0,0.0,0.0,0.0,0.0,0.0,0.0,0.0,0.0,0.0,0.0,0.0,0.0,0.0,0.0,0.0,0.0,0.0,0.0,0.0,0.0,0.0,0.0,0.0,0.0,0.0,0.0,0.0,0.0,0.0,0.0,0.0,0.0,0.0,0.0,0.0,0.0,0.0,0.0,0.0,0.0,0.0,0.0,0.0,0.0,0.0,0.0,0.0,0.0,0.0,0.0,0.0,0.0,0.0,0.0,0.0,0.0,0.0,0.0,0.0,0.0,0.0,0.0,0.0,-0.188,0.0,0.0,0.0,0.0,-0.1241,0.0,0.0,0.0,0.0,0.0,-0.1188,-0.1188,0.0,0.0,0.0,0.0,0.0,0.0,0.0,0.0,0.0,0.0,0.0,-0.2204,-0.1855,-0.1484,-0.1099,-0.071,-0.0319,0.0,0.0,0.0,0.0,0.0,0.0,0.0,0.0,0.0,0.0,0.0,0.0,0.0,0.0,0.0,0.0,0.0,0.0,0.0,0.0,0.0,0.0,0.0,0.0,0.0,0.0,0.0,0.0,0.0,0.0,0.0,0.0,0.0,0.0,0.0,0.0,0.0,0.0,0.0,0.0,0.0,0.0,0.0,0.0,0.0,0.0,0.0,0.0,0.0,0.0,0.0,0.0,0.0,0.0,0.0,0.0,0.0,0.0,0.0,0.0,0.0,0.0,0.0,0.0,0.0,0.0,0.0,0.0,0.0,0.0,0.0,0.0,0.0,0.0,0.0,0.0,0.0,0.0,0.0,0.0,0.0,-0.2118,-0.1813,0.0,0.0,0.0,0.0,0.0,0.0,0.0,0.0,0.0,0.0,-0.0373,-0.0376,-0.0372,-0.037,0.0,0.0,0.0,0.0,0.0,0.0,0.0,0.0,0.0,-0.2264,-0.2101,-0.1847,-0.1443,-0.1321,-0.0983,-0.0318,-0.0327,-0.0198,0.0,0.0,0.0,0.0,0.0,0.0,0.0,0.0,0.0,0.0,0.0,0.0,0.0,0.0,0.0,0.0,0.0,0.0,0.0,0.0,0.0,0.0,0.0,0.0,0.0,0.0,0.0,0.0,0.0,0.0,0.0,0.0,0.0,0.0,0.0,0.0,0.0,0.0,0.0,0.0,0.0,0.0,0.0,0.0,0.0,0.0,0.0,0.0,0.0,0.0,0.0,0.0,0.0,0.0,0.0,0.0,0.0,0.0,0.0,0.0,0.0,0.0,0.0,0.0,0.0,0.0,0.0,0.0,0.0,0.0,0.0,0.0,0.0,0.0,0.0,0.0,-0.2187,-0.22,0.0,-0.1778,-0.17,0.0,-0.107,0.0,0.0,0.0,0.0,0.0,0.0,0.0,0.0,0.0,0.0,0.0,0.0,0.0,0.0,0.0,0.0,0.0,0.0,0.0,-0.1909,-0.2208,-0.2247,-0.2056,0.0,0.0,-0.1126,-0.0521,-0.0397,-0.02,0.0,0.0,0.0,0.0,0.0,0.0,0.0,0.0,0.0,0.0,0.0,0.0,0.0,0.0,0.0,0.0,0.0,0.0,0.0,0.0,0.0,0.0,0.0,0.0,0.0,0.0,0.0,0.0,0.0,0.0,0.0,0.0,0.0,0.0,0.0,0.0,0.0,0.0,0.0,0.0,0.0,0.0,0.0,0.0,0.0,0.0,0.0,0.0,0.0,0.0,0.0,0.0,0.0,0.0,0.0,0.0,0.0,0.0,0.0,0.0,0.0,0.0,0.0,0.0,0.0,0.0,0.0,0.0,0.0,0.0,0.0,0.0,0.0,0.0,0.0,0.0]}]]